[[{"header":{"parameterUnit":"m.s-1","parameterCategory":1,"la1":31.0,"la2":29.5877,"lo1":-88.7671,"lo2":-86.6584,"dy":0.0162,"dx":0.0185,"nx":115,"ny":88,"refTime":"2023-04-30T12:00:00:Z","depth":0,"parameterNumber":2,"parameterNumberName":"U-component_of_WINDS"},"data":[0.0,0.0,0.0,0.0,0.0,0.0,0.0,0.0,0.0,0.0,0.0,0.0,0.0,0.0,0.0,0.0,0.0,0.0,0.0,0.0,0.0,0.0,0.0,0.0,0.0,0.0,0.0,0.0,0.0,0.0,0.0,0.0,0.0,0.0,0.0,0.0,0.0,0.0,0.0,0.0,0.0,0.0,0.0,0.0,0.0,0.0,0.0,0.0,0.0,0.0,0.0,0.0,0.0,0.0,0.0,0.0,0.0,0.0,0.0,0.0,0.0,0.0,0.0,0.0,0.0,0.0,0.0,0.0,0.0,0.0,0.0,0.0,0.0,0.0,0.0,0.0,0.0,0.0,0.0,0.0,0.0,0.0,0.0,0.0,0.0,0.0,0.0,0.0,0.0,0.0,0.0,0.0,0.0,0.0,0.0,0.0,0.0,0.0,0.0,0.0,0.0,0.0,0.0,0.0,0.0,0.0,0.0,0.0,0.0,0.0,0.0,0.0,0.0,0.0,0.0,0.0,0.0,0.0,0.0,0.0,0.0,0.0,0.0,0.0,0.0,0.0,0.0,0.0,0.0,0.0,0.0,0.0,0.0,0.0,0.0,0.0,0.0,0.0,0.0,0.0,0.0,0.0,0.0,0.0,0.0,0.0,0.0,0.0,0.0,0.0,0.0,0.0,0.0,0.0,0.0,0.0,0.0,0.0,0.0,0.0,0.0,0.0,0.0,0.0,0.0,0.0,0.0,0.0,0.0,0.0,0.0,0.0,0.0,0.0,0.0,0.0,0.0,0.0,0.0,0.0,0.0,0.0,0.0,0.0,0.0,0.0,0.0,0.0,0.0,0.0,0.0,0.0,0.0,0.0,0.0,0.0,0.0,0.0,0.0,0.0,0.0,0.0,0.0,0.0,0.0,0.0,0.0,0.0,0.0,0.0,0.0,0.0,0.0,0.0,0.0,0.0,0.0,0.0,0.0,0.0,0.0,0.0,0.0,0.0,0.0,0.0,0.0,0.0,0.0,0.0,0.0,0.0,0.0,0.0,0.0,0.0,0.0,0.0,0.0,0.0,0.0,0.0,0.0,0.0,0.0,0.0,0.0,0.0,0.0,0.0,0.0,0.0,0.0,0.0,0.0,0.0,0.0,0.0,0.0,0.0,0.0,0.0,0.0,0.0,0.0,0.0,0.0,0.0,0.0,0.0,0.0,0.0,0.0,0.0,0.0,0.0,0.0,0.0,0.0,0.0,0.0,0.0,0.0,0.0,0.0,0.0,0.0,0.0,0.0,0.0,0.0,0.0,0.0,0.0,0.0,0.0,0.0,0.0,0.0,0.0,0.0,0.0,0.0,0.0,0.0,0.0,0.0,0.0,0.0,0.0,0.0,0.0,0.0,0.0,0.0,0.0,0.0,0.0,0.0,0.0,0.0,0.0,0.0,0.0,0.0,0.0,0.0,0.0,0.0,0.0,0.0,0.0,0.0,0.0,0.0,0.0,0.0,0.0,0.0,0.0,0.0,0.0,0.0,0.0,0.0,0.0,0.0,0.0,0.0,0.0,0.0,0.0,0.0,0.0,0.0,0.0,0.0,0.0,0.0,0.0,0.0,0.0,0.0,0.0,0.0,0.0,0.0,0.0,0.0,0.0,0.0,0.0,0.0,0.0,0.0,0.0,0.0,0.0,0.0,0.0,0.0,0.0,0.0,0.0,0.0,0.0,0.0,0.0,0.0,0.0,0.0,0.0,0.0,0.0,0.0,0.0,0.0,0.0,0.0,0.0,0.0,0.0,0.0,0.0,0.0,0.0,0.0,0.0,0.0,0.0,0.0,0.0,0.0,0.0,0.0,0.0,0.0,0.0,0.0,0.0,0.0,0.0,0.0,0.0,0.0,0.0,0.0,0.0,0.0,0.0,0.0,0.0,0.0,0.0,0.0,0.0,0.0,0.0,0.0,0.0,0.0,0.0,0.0,0.0,0.0,0.0,0.0,0.0,0.0,0.0,0.0,0.0,0.0,0.0,0.0,0.0,0.0,0.0,0.0,0.0,0.0,0.0,0.0,0.0,0.0,0.0,0.0,0.0,0.0,0.0,0.0,0.0,0.0,0.0,0.0,0.0,0.0,0.0,0.0,0.0,0.0,0.0,0.0,0.0,0.0,0.0,0.0,0.0,0.0,0.0,0.0,0.0,0.0,0.0,0.0,0.0,0.0,0.0,0.0,0.0,0.0,0.0,0.0,0.0,0.0,0.0,0.0,0.0,0.0,0.0,0.0,0.0,0.0,0.0,0.0,0.0,0.0,0.0,0.0,0.0,0.0,0.0,0.0,0.0,0.0,0.0,0.0,0.0,0.0,0.0,0.0,0.0,0.0,0.0,0.0,0.0,0.0,0.0,0.0,0.0,0.0,0.0,0.0,0.0,0.0,0.0,0.0,0.0,0.0,0.0,0.0,0.0,0.0,0.0,0.0,0.0,0.0,0.0,0.0,0.0,0.0,0.0,0.0,0.0,0.0,0.0,0.0,0.0,0.0,0.0,0.0,0.0,0.0,0.0,0.0,0.0,0.0,0.0,0.0,0.0,0.0,0.0,0.0,0.0,0.0,0.0,0.0,0.0,0.0,0.0,0.0,0.0,0.0,0.0,0.0,0.0,0.0,0.0,0.0,0.0,0.0,0.0,0.0,0.0,0.0,0.0,0.0,0.0,0.0,0.0,0.0,0.0,0.0,0.0,0.0,0.0,0.0,0.0,0.0,0.0,0.0,0.0,0.0,0.0,0.0,0.0,0.0,0.0,0.0,0.0,0.0,0.0,0.0,0.0,0.0,0.0,0.0,0.0,0.0,0.0,0.0,0.0,0.0,0.0,0.0,0.0,0.0,0.0,0.0,0.0,0.0,0.0,0.0,0.0,0.0,0.0,0.0,0.0,0.0,0.0,0.0,0.0,0.0,0.0,0.0,0.0,0.0,0.0,0.0,0.0,0.0,0.0,0.0,0.0,0.0,0.0,0.0,0.0,0.0,0.0,0.0,0.0,0.0,0.0,0.0,0.0,0.0,0.0,0.0,0.0,0.0,0.0,0.0,0.0,0.0,0.0,0.0,0.0,0.0,0.0,0.0,0.0,0.0,0.0,0.0,0.0,0.0,0.0,0.0,0.0,0.0,0.0,0.0,0.0,0.0,0.0,0.0,0.0,0.0,0.0,0.0,0.0,0.0,0.0,0.0,0.0,0.0,0.0,0.0,0.0,0.0,0.0,0.0,0.0,0.0,0.0,0.0,0.0,0.0,0.0,0.0,0.0,0.0,0.0,0.0,0.0,0.0,0.0,0.0,0.0,0.0,0.0,0.0,0.0,0.0,0.0,0.0,0.0,0.0,0.0,0.0,0.0,0.0,0.0,0.0,0.0,0.0,0.0,0.0,0.0,0.0,0.0,0.0,0.0,0.0,0.0,0.0,0.0,0.0,0.0,0.0,0.0,0.0,0.0,0.0,0.0,0.0,0.0,0.0,0.0,0.0,0.0,0.0,0.0,0.0,0.0,0.0,0.0,0.0,0.0,0.0,0.0,0.0,0.0,0.0,0.0,0.0,0.0,0.0,0.0,0.0,0.0,0.0,0.0,0.0,0.0,0.0,0.0,0.0,0.0,0.0,0.0,0.0,0.0,0.0,0.0,0.0,0.0,0.0,0.0,0.0,0.0,0.0,0.0,0.0,0.0,0.0,0.0,0.0,0.0,0.0,0.0,0.0,0.0,0.0,0.0,0.0,0.0,0.0,0.0,0.0,0.0,0.0,0.0,0.0,0.0,0.0,0.0,0.0,0.0,0.0,0.0,0.0,0.0,0.0,0.0,0.0,0.0,0.0,0.0,0.0,0.0,0.0,0.0,0.0,0.0,0.0,0.0,0.0,0.0,0.0,0.0,0.0,0.0,0.0,0.0,0.0,0.0,0.0,0.0,0.0,0.0,0.0,0.0,0.0,0.0,0.0,0.0,0.0,0.0,0.0,0.0,0.0,0.0,0.0,0.0,0.0,0.0,0.0,0.0,0.0,0.0,0.0,0.0,0.0,0.0,0.0,0.0,0.0,0.0,0.0,0.0,0.0,0.0,0.0,0.0,0.0,0.0,0.0,0.0,0.0,0.0,0.0,0.0,0.0,0.0,0.0,0.0,0.0,0.0,0.0,0.0,0.0,0.0,0.0,0.0,0.0,0.0,0.0,0.0,0.0,0.0,0.0,0.0,0.0,0.0,0.0,0.0,0.0,0.0,0.0,0.0,0.0,0.0,0.0,0.0,1.5807,0.0,0.0,0.0,0.0,0.0,0.0,0.0,0.0,0.0,0.0,0.0,0.0,0.0,0.0,0.0,0.0,0.0,0.0,0.0,0.0,0.0,0.0,0.0,0.0,0.0,0.0,0.0,0.0,0.0,0.0,0.0,0.0,0.0,0.0,0.0,0.0,0.0,0.0,0.0,0.0,0.0,0.0,0.0,0.0,0.0,0.0,0.0,0.0,0.0,0.0,0.0,0.0,0.0,0.0,0.0,0.0,0.0,0.0,0.0,0.0,0.0,0.0,0.0,0.0,0.0,0.0,0.0,0.0,0.0,0.0,0.0,0.0,0.0,0.0,0.0,0.0,0.0,0.0,0.0,0.0,0.0,0.0,0.0,0.0,0.0,0.0,0.0,0.0,0.0,0.0,0.0,0.0,0.0,0.0,0.0,0.0,0.0,0.0,0.0,0.0,0.0,0.0,0.0,0.0,0.0,0.0,0.0,0.0,0.0,0.0,1.6403,1.6193,1.614,1.5982,1.5824,0.0,0.0,0.0,0.0,0.0,0.0,0.0,0.0,0.0,0.0,0.0,0.0,0.0,0.0,0.0,0.0,0.0,0.0,0.0,0.0,0.0,0.0,0.0,0.0,0.0,0.0,0.0,0.0,0.0,0.0,0.0,0.0,0.0,0.0,0.0,0.0,0.0,0.0,0.0,0.0,0.0,0.0,0.0,0.0,0.0,0.0,0.0,0.0,0.0,0.0,0.0,0.0,0.0,0.0,0.0,0.0,0.0,0.0,0.0,0.0,0.0,0.0,0.0,0.0,0.0,0.0,0.0,0.0,0.0,0.0,0.0,0.0,0.0,0.0,0.0,0.0,0.0,0.0,0.0,0.0,0.0,0.0,0.0,0.0,0.0,0.0,0.0,0.0,0.0,0.0,0.0,0.0,0.0,0.0,0.0,0.0,0.0,0.0,0.0,0.0,0.0,0.0,0.0,0.0,0.0,0.0,0.0,0.0,0.0,0.0,0.0,0.0,1.6599,1.6315,1.584,0.0,0.0,0.0,0.0,0.0,0.0,0.0,0.0,0.0,0.0,0.0,0.0,0.0,0.0,0.0,0.0,0.0,0.0,0.0,0.0,0.0,0.0,0.0,0.0,0.0,0.0,0.0,0.0,0.0,0.0,0.0,0.0,0.0,0.0,0.0,0.0,0.0,0.0,0.0,0.0,0.0,0.0,0.0,0.0,0.0,0.0,0.0,0.0,0.0,0.0,0.0,0.0,0.0,0.0,0.0,0.0,0.0,0.0,0.0,0.0,0.0,0.0,0.0,0.0,0.0,0.0,0.0,0.0,0.0,0.0,0.0,0.0,0.0,0.0,0.0,0.0,0.0,0.0,0.0,0.0,0.0,0.0,0.0,0.0,0.0,0.0,0.0,0.0,0.0,0.0,0.0,0.0,0.0,0.0,0.0,0.0,0.0,0.0,0.0,0.0,0.0,0.0,0.0,0.0,0.0,0.0,0.0,0.0,0.0,0.0,1.7965,1.7972,1.7898,0.0,1.5926,0.0,0.0,0.0,0.0,0.0,0.0,0.0,0.0,0.0,0.0,0.0,0.0,0.0,0.0,0.0,0.0,0.0,0.0,0.0,0.0,0.0,0.0,0.0,0.0,0.0,0.0,0.0,0.0,0.0,0.0,0.0,0.0,0.0,0.0,0.0,0.0,0.0,0.0,0.0,0.0,0.0,0.0,0.0,0.0,0.0,0.0,0.0,0.0,0.0,0.0,0.0,0.0,0.0,0.0,0.0,0.0,0.0,0.0,0.0,0.0,0.0,0.0,0.0,0.0,0.0,0.0,0.0,0.0,0.0,0.0,0.0,0.0,0.0,0.0,0.0,0.0,0.0,0.0,0.0,0.0,0.0,0.0,0.0,0.0,0.0,0.0,0.0,0.0,0.0,0.0,0.0,0.0,0.0,0.0,0.0,0.0,0.0,0.0,0.0,0.0,0.0,0.0,0.0,0.0,0.0,0.0,0.0,0.0,0.0,0.0,1.8347,1.8452,1.81,1.7471,0.0,0.0,0.0,0.0,0.0,0.0,0.0,0.0,0.0,0.0,0.0,0.0,0.0,0.0,0.0,0.0,0.0,0.0,0.0,0.0,0.0,0.0,0.0,0.0,0.0,0.0,0.0,0.0,0.0,0.0,0.0,0.0,0.0,0.0,0.0,0.0,0.0,0.0,0.0,0.0,0.0,0.0,0.0,0.0,0.0,0.0,0.0,0.0,0.0,0.0,0.0,0.0,0.0,0.0,0.0,0.0,0.0,0.0,0.0,0.0,0.0,0.0,0.0,0.0,0.0,0.0,0.0,0.0,0.0,0.0,0.0,0.0,0.0,0.0,0.0,0.0,0.0,0.0,0.0,0.0,0.0,0.0,0.0,0.0,0.0,0.0,0.0,0.0,0.0,0.0,0.0,0.0,0.0,0.0,0.0,0.0,0.0,0.0,0.0,0.0,0.0,0.0,0.0,0.0,0.0,0.0,0.0,0.0,0.0,0.0,1.8913,1.8835,1.8995,1.8506,1.7997,1.7436,0.0,0.0,0.0,0.0,0.0,0.0,0.0,0.0,0.0,0.0,0.0,0.0,0.0,0.0,0.0,0.0,0.0,0.0,0.0,0.0,0.0,0.0,0.0,0.0,0.0,0.0,0.0,0.0,0.0,0.0,0.0,0.0,0.0,0.0,0.0,0.0,0.0,0.0,0.0,0.0,0.0,0.0,0.0,0.0,0.0,0.0,0.0,0.0,0.0,0.0,0.0,0.0,0.0,0.0,0.0,0.0,0.0,0.0,0.0,0.0,0.0,0.0,0.0,0.0,0.0,0.0,0.0,0.0,0.0,0.0,0.0,0.0,0.0,0.0,0.0,0.0,0.0,0.0,0.0,0.0,0.0,0.0,0.0,0.0,0.0,0.0,0.0,0.0,0.0,0.0,0.0,0.0,0.0,0.0,0.0,0.0,0.0,0.0,0.0,0.0,0.0,0.0,0.0,0.0,0.0,0.0,0.0,0.0,1.9647,1.9742,1.9831,1.9847,1.9492,1.903,0.0,0.0,0.0,0.0,0.0,0.0,0.0,0.0,0.0,0.0,0.0,0.0,0.0,0.0,0.0,0.0,0.0,0.0,0.0,0.0,0.0,0.0,0.0,0.0,0.0,0.0,0.0,0.0,0.0,0.0,0.0,0.0,0.0,0.0,0.0,0.0,0.0,0.0,0.0,0.0,0.0,0.0,0.0,0.0,0.0,0.0,0.0,0.0,0.0,0.0,0.0,0.0,0.0,0.0,0.0,0.0,0.0,0.0,0.0,0.0,0.0,0.0,0.0,0.0,0.0,0.0,0.0,0.0,0.0,0.0,0.0,0.0,0.0,0.0,0.0,0.0,0.0,0.0,0.0,0.0,0.0,0.0,0.0,0.0,0.0,0.0,0.0,0.0,0.0,0.0,0.0,0.0,0.0,0.0,0.0,0.0,0.0,0.0,0.0,0.0,0.0,0.0,0.0,0.0,0.0,0.0,0.0,0.0,0.0,1.9687,2.0151,2.0256,2.0177,1.9706,1.9353,0.0,0.0,0.0,0.0,0.0,0.0,0.0,0.0,0.0,0.0,0.0,0.0,0.0,0.0,0.0,0.0,0.0,0.0,0.0,0.0,0.0,0.0,0.0,0.0,0.0,0.0,0.0,0.0,0.0,0.0,0.0,0.0,0.0,0.0,0.0,0.0,0.0,0.0,0.0,0.0,0.0,0.0,0.0,0.0,0.0,0.0,0.0,0.0,0.0,0.0,0.0,0.0,0.0,0.0,0.0,0.0,0.0,0.0,0.0,0.0,0.0,0.0,0.0,0.0,0.0,0.0,0.0,0.0,0.0,0.0,0.0,0.0,0.0,0.0,0.0,0.0,0.0,0.0,0.0,0.0,0.0,0.0,0.0,0.0,0.0,0.0,0.0,0.0,0.0,0.0,0.0,0.0,0.0,0.0,0.0,0.0,0.0,0.0,0.0,0.0,0.0,0.0,0.0,0.0,0.0,0.0,0.0,0.0,0.0,1.9989,0.0,2.0489,2.0333,1.9863,1.9585,0.0,0.0,0.0,0.0,0.0,0.0,0.0,0.0,0.0,0.0,0.0,0.0,0.0,0.0,0.0,0.0,0.0,0.0,0.0,0.0,0.0,0.0,0.0,0.0,0.0,0.0,0.0,0.0,0.0,0.0,0.0,0.0,0.0,0.0,0.0,0.0,0.0,0.0,0.0,0.0,0.0,0.0,0.0,0.0,0.0,0.0,0.0,0.0,0.0,0.0,0.0,0.0,0.0,0.0,0.0,0.0,0.0,0.0,0.0,0.0,0.0,0.0,0.0,0.0,0.0,0.0,0.0,0.0,0.0,0.0,0.0,0.0,0.0,0.0,0.0,0.0,0.0,0.0,0.0,0.0,0.0,0.0,0.0,0.0,0.0,0.0,0.0,0.0,0.0,0.0,0.0,0.0,0.0,0.0,0.0,0.0,0.0,0.0,0.0,0.0,0.0,0.0,0.0,0.0,0.0,0.0,0.0,0.0,1.9707,2.0508,2.0566,2.0489,2.0333,2.002,1.9724,0.0,0.0,0.0,0.0,0.0,0.0,0.0,0.0,0.0,0.0,0.0,0.0,0.0,0.0,0.0,0.0,0.0,0.0,0.0,0.0,0.0,0.0,0.0,0.0,0.0,0.0,0.0,0.0,0.0,0.0,0.0,0.0,0.0,0.0,0.0,0.0,0.0,0.0,0.0,0.0,0.0,0.0,0.0,0.0,0.0,0.0,0.0,0.0,0.0,0.0,0.0,0.0,0.0,0.0,0.0,0.0,0.0,0.0,0.0,0.0,0.0,0.0,0.0,0.0,0.0,0.0,0.0,0.0,0.0,0.0,0.0,0.0,0.0,0.0,0.0,0.0,0.0,0.0,0.0,0.0,0.0,0.0,0.0,0.0,0.0,0.0,0.0,0.0,0.0,0.0,0.0,0.0,0.0,0.0,0.0,0.0,0.0,0.0,0.0,0.0,0.0,0.0,0.0,0.0,0.0,0.0,0.0,0.0,0.0,2.0566,2.0566,2.0566,2.0489,2.0098,1.9803,0.0,0.0,0.0,0.0,0.0,0.0,0.0,0.0,0.0,0.0,0.0,0.0,0.0,0.0,0.0,0.0,0.0,0.0,0.0,0.0,0.0,0.0,0.0,0.0,0.0,0.0,0.0,0.0,0.0,0.0,0.0,0.0,0.0,0.0,0.0,0.0,0.0,0.0,0.0,0.0,0.0,0.0,0.0,0.0,0.0,0.0,0.0,0.0,0.0,0.0,0.0,0.0,0.0,0.0,0.0,0.0,0.0,0.0,0.0,0.0,0.0,0.0,0.0,0.0,0.0,0.0,0.0,0.0,0.0,0.0,0.0,0.0,0.0,0.0,0.0,0.0,0.0,0.0,0.0,0.0,0.0,0.0,0.0,0.0,0.0,0.0,0.0,0.0,0.0,0.0,0.0,0.0,0.0,0.0,0.0,0.0,0.0,0.0,0.0,0.0,0.0,0.0,0.0,0.0,0.0,0.0,0.0,0.0,0.0,2.0722,2.0801,2.082,2.0801,2.0426,2.0052,1.986,0.0,0.0,0.0,0.0,0.0,0.0,0.0,0.0,0.0,0.0,0.0,0.0,0.0,0.0,0.0,0.0,0.0,0.0,0.0,0.0,0.0,0.0,0.0,0.0,0.0,0.0,0.0,0.0,0.0,0.0,0.0,0.0,0.0,0.0,0.0,0.0,0.0,0.0,0.0,0.0,0.0,0.0,0.0,0.0,0.0,0.0,0.0,0.0,0.0,0.0,0.0,0.0,0.0,0.0,0.0,0.0,0.0,0.0,0.0,0.0,0.0,0.0,0.0,0.0,0.0,0.0,0.0,0.0,0.0,0.0,0.0,0.0,0.0,0.0,0.0,0.0,0.0,0.0,0.0,0.0,0.0,0.0,0.0,0.0,0.0,0.0,0.0,0.0,0.0,0.0,0.0,0.0,0.0,0.0,0.0,0.0,0.0,0.0,0.0,0.0,0.0,0.0,0.0,0.0,0.0,0.0,0.0,0.0,2.0909,2.1128,2.1209,2.1189,2.0828,2.0415,0.0,0.0,0.0,0.0,0.0,0.0,0.0,0.0,0.0,0.0,0.0,0.0,0.0,0.0,0.0,0.0,0.0,0.0,0.0,0.0,0.0,0.0,0.0,0.0,0.0,0.0,0.0,0.0,0.0,0.0,0.0,0.0,0.0,0.0,0.0,0.0,0.0,0.0,0.0,0.0,0.0,0.0,0.0,0.0,0.0,0.0,0.0,0.0,0.0,0.0,0.0,0.0,0.0,0.0,0.0,0.0,0.0,0.0,0.0,0.0,0.0,0.0,0.0,0.0,0.0,0.0,0.0,0.0,0.0,0.0,0.0,0.0,0.0,0.0,0.0,0.0,0.0,0.0,0.0,0.0,0.0,0.0,0.0,0.0,0.0,0.0,0.0,0.0,0.0,0.0,0.0,0.0,0.0,0.0,0.0,0.0,0.0,0.0,0.0,0.0,0.0,0.0,0.0,0.0,0.0,0.0,0.0,0.0,0.0,2.0837,2.1343,2.1614,2.139,2.09,2.0348,0.0,0.0,0.0,0.0,0.0,0.0,0.0,0.0,0.0,0.0,0.0,0.0,0.0,0.0,0.0,0.0,0.0,0.0,0.0,0.0,0.0,0.0,0.0,0.0,0.0,0.0,0.0,0.0,0.0,0.0,0.0,0.0,0.0,0.0,0.0,0.0,0.0,0.0,0.0,0.0,0.0,0.0,0.0,0.0,0.0,0.0,0.0,0.0,0.0,0.0,0.0,0.0,0.0,0.0,0.0,0.0,0.0,0.0,0.0,0.0,0.0,0.0,0.0,0.0,0.0,0.0,0.0,0.0,0.0,0.0,0.0,0.0,0.0,0.0,0.0,0.0,0.0,0.0,0.0,0.0,0.0,0.0,0.0,0.0,0.0,0.0,0.0,0.0,0.0,0.0,0.0,0.0,0.0,0.0,0.0,0.0,0.0,0.0,0.0,0.0,0.0,0.0,0.0,0.0,0.0,0.0,0.0,0.0,2.0071,2.0674,2.1163,2.1434,2.1379,2.1147,2.066,0.0,0.0,0.0,0.0,0.0,0.0,0.0,0.0,0.0,0.0,0.0,0.0,0.0,0.0,0.0,0.0,0.0,0.0,0.0,0.0,0.0,0.0,0.0,0.0,0.0,0.0,0.0,0.0,0.0,0.0,0.0,0.0,0.0,0.0,0.0,0.0,0.0,0.0,0.0,0.0,0.0,0.0,0.0,0.0,0.0,0.0,0.0,0.0,0.0,0.0,0.0,0.0,0.0,0.0,0.0,0.0,0.0,0.0,0.0,0.0,0.0,0.0,0.0,0.0,0.0,0.0,0.0,0.0,0.0,0.0,0.0,0.0,0.0,0.0,0.0,0.0,0.0,0.0,0.0,0.0,0.0,0.0,0.0,0.0,0.0,0.0,0.0,0.0,0.0,0.0,0.0,0.0,0.0,0.0,0.0,0.0,0.0,0.0,0.0,0.0,0.0,0.0,0.0,0.0,0.0,0.0,0.0,0.0,1.9937,2.029,2.0694,2.0989,2.1247,2.1337,2.0985,0.0,0.0,0.0,0.0,0.0,0.0,0.0,0.0,0.0,0.0,0.0,0.0,0.0,0.0,0.0,0.0,0.0,0.0,0.0,0.0,0.0,0.0,0.0,0.0,0.0,0.0,0.0,0.0,0.0,0.0,0.0,0.0,0.0,0.0,0.0,0.0,0.0,0.0,0.0,0.0,0.0,0.0,0.0,0.0,0.0,0.0,0.0,0.0,0.0,0.0,0.0,0.0,0.0,0.0,0.0,0.0,0.0,0.0,0.0,0.0,0.0,0.0,0.0,0.0,0.0,0.0,0.0,0.0,0.0,0.0,0.0,0.0,0.0,0.0,0.0,0.0,0.0,0.0,0.0,0.0,0.0,0.0,0.0,0.0,0.0,0.0,0.0,0.0,0.0,0.0,0.0,0.0,0.0,0.0,0.0,0.0,0.0,0.0,0.0,0.0,0.0,0.0,0.0,0.0,0.0,0.0,0.0,0.0,1.9471,1.9957,2.0531,2.1002,2.1251,2.1098,2.0979,0.0,0.0,0.0,0.0,0.0,0.0,0.0,0.0,0.0,0.0,0.0,0.0,0.0,0.0,0.0,0.0,0.0,0.0,0.0,0.0,0.0,0.0,0.0,0.0,0.0,0.0,0.0,0.0,0.0,0.0,0.0,0.0,0.0,0.0,0.0,0.0,0.0,0.0,0.0,0.0,0.0,0.0,0.0,0.0,0.0,0.0,0.0,0.0,1.7543,0.0,0.0,0.0,0.0,0.0,0.0,0.0,0.0,0.0,0.0,0.0,0.0,0.0,0.0,0.0,0.0,0.0,0.0,0.0,0.0,0.0,0.0,0.0,0.0,0.0,0.0,0.0,0.0,0.0,0.0,0.0,0.0,0.0,0.0,0.0,0.0,0.0,0.0,0.0,0.0,0.0,0.0,0.0,0.0,0.0,0.0,0.0,0.0,0.0,0.0,0.0,0.0,0.0,0.0,0.0,0.0,0.0,0.0,0.0,1.9259,1.953,2.0168,2.055,2.0603,2.054,2.0819,0.0,0.0,0.0,0.0,0.0,0.0,0.0,0.0,0.0,0.0,0.0,0.0,0.0,0.0,0.0,0.0,0.0,0.0,0.0,0.0,0.0,0.0,0.0,0.0,0.0,0.0,0.0,0.0,0.0,0.0,0.0,0.0,0.0,0.0,0.0,0.0,0.0,0.0,0.0,0.0,0.0,0.0,0.0,0.0,0.0,0.0,0.0,0.0,0.0,0.0,0.0,0.0,0.0,0.0,0.0,0.0,0.0,0.0,0.0,0.0,0.0,0.0,0.0,0.0,0.0,0.0,0.0,0.0,0.0,0.0,0.0,0.0,0.0,0.0,0.0,0.0,0.0,0.0,0.0,0.0,0.0,0.0,0.0,0.0,0.0,0.0,0.0,0.0,0.0,0.0,0.0,0.0,0.0,0.0,0.0,0.0,0.0,0.0,0.0,0.0,0.0,0.0,0.0,0.0,0.0,0.0,0.0,1.9041,1.9079,1.9261,1.9829,2.0103,1.994,1.9989,2.0533,2.1366,0.0,0.0,0.0,0.0,0.0,0.0,0.0,0.0,0.0,0.0,0.0,0.0,0.0,0.0,0.0,0.0,0.0,0.0,0.0,0.0,0.0,0.0,0.0,0.0,0.0,0.0,0.0,0.0,0.0,0.0,0.0,0.0,0.0,0.0,0.0,0.0,0.0,0.0,1.5704,1.5738,0.0,0.0,0.0,0.0,0.0,0.0,0.0,0.0,1.6292,0.0,0.0,0.0,0.0,0.0,0.0,0.0,0.0,0.0,0.0,0.0,0.0,0.0,0.0,0.0,0.0,0.0,0.0,0.0,0.0,0.0,0.0,0.0,0.0,0.0,0.0,0.0,0.0,0.0,0.0,0.0,0.0,0.0,0.0,0.0,0.0,0.0,0.0,0.0,0.0,0.0,0.0,0.0,0.0,0.0,0.0,0.0,0.0,0.0,0.0,0.0,0.0,0.0,0.0,0.0,0.0,1.83,1.8506,1.8937,1.9351,1.9766,1.9905,1.999,1.9724,1.9763,2.0087,0.0,0.0,0.0,0.0,0.0,0.0,0.0,0.0,0.0,0.0,0.0,0.0,0.0,0.0,0.0,0.0,0.0,0.0,0.0,0.0,0.0,0.0,0.0,0.0,0.0,0.0,0.0,0.0,0.0,0.0,0.0,0.0,0.0,0.0,0.0,0.0,0.0,0.0,0.0,1.5654,1.5481,0.0,0.0,0.0,0.0,0.0,0.0,0.0,0.0,1.5171,0.0,0.0,0.0,0.0,0.0,0.0,0.0,0.0,0.0,0.0,0.0,0.0,0.0,0.0,0.0,0.0,0.0,0.0,0.0,0.0,0.0,0.0,0.0,0.0,0.0,0.0,0.0,0.0,0.0,0.0,0.0,0.0,0.0,0.0,0.0,0.0,0.0,0.0,0.0,0.0,0.0,0.0,0.0,0.0,0.0,0.0,0.0,0.0,0.0,0.0,0.0,0.0,0.0,0.0,0.0,1.7779,1.8229,1.8643,1.8972,1.9486,1.9729,1.9799,1.9475,1.9321,0.0,0.0,0.0,0.0,0.0,0.0,0.0,0.0,0.0,0.0,0.0,0.0,0.0,0.0,0.0,0.0,0.0,0.0,0.0,0.0,0.0,0.0,0.0,0.0,0.0,0.0,0.0,0.0,0.0,0.0,0.0,0.0,0.0,0.0,0.0,0.0,0.0,0.0,0.0,0.0,1.5618,1.5535,1.5546,0.0,0.0,0.0,0.0,0.0,0.0,1.4821,1.4791,0.0,0.0,0.0,0.0,0.0,0.0,0.0,0.0,0.0,0.0,0.0,0.0,0.0,0.0,0.0,0.0,0.0,0.0,0.0,0.0,0.0,0.0,0.0,0.0,0.0,0.0,0.0,0.0,0.0,0.0,0.0,0.0,0.0,0.0,0.0,0.0,0.0,0.0,0.0,0.0,0.0,0.0,0.0,0.0,0.0,0.0,0.0,0.0,0.0,0.0,0.0,0.0,0.0,0.0,0.0,1.7451,1.8117,1.855,1.8697,1.9292,1.9613,1.9497,1.9178,1.8913,0.0,0.0,0.0,0.0,0.0,0.0,0.0,0.0,0.0,0.0,0.0,0.0,0.0,0.0,0.0,0.0,0.0,0.0,0.0,0.0,0.0,0.0,0.0,0.0,0.0,0.0,0.0,0.0,0.0,0.0,0.0,0.0,0.0,0.0,0.0,0.0,0.0,0.0,0.0,0.0,0.0,1.5583,1.5455,1.5455,0.0,0.0,0.0,0.0,1.4808,1.4625,0.0,0.0,0.0,0.0,0.0,0.0,0.0,0.0,0.0,0.0,0.0,0.0,0.0,0.0,0.0,0.0,0.0,0.0,0.0,0.0,0.0,0.0,0.0,0.0,0.0,0.0,0.0,0.0,0.0,0.0,0.0,0.0,0.0,0.0,0.0,0.0,0.0,0.0,0.0,0.0,0.0,0.0,0.0,0.0,0.0,0.0,0.0,0.0,0.0,0.0,0.0,0.0,0.0,0.0,0.0,0.0,1.7627,1.8193,1.8697,1.9033,1.9414,1.9512,1.928,1.8666,1.8192,0.0,0.0,0.0,0.0,0.0,0.0,0.0,0.0,0.0,0.0,0.0,0.0,0.0,0.0,0.0,0.0,0.0,0.0,0.0,0.0,0.0,0.0,0.0,0.0,0.0,0.0,0.0,0.0,0.0,0.0,0.0,0.0,0.0,0.0,0.0,0.0,0.0,0.0,0.0,0.0,0.0,1.5294,1.5033,1.4763,1.4298,0.0,0.0,1.3633,1.3573,1.3722,0.0,0.0,0.0,0.0,0.0,0.0,0.0,0.0,0.0,0.0,0.0,0.0,0.0,0.0,0.0,0.0,0.0,0.0,0.0,0.0,0.0,0.0,0.0,0.0,0.0,0.0,0.0,0.0,0.0,0.0,0.0,0.0,0.0,0.0,0.0,0.0,0.0,0.0,0.0,0.0,0.0,0.0,0.0,0.0,0.0,0.0,0.0,0.0,0.0,0.0,0.0,0.0,0.0,0.0,0.0,1.6536,1.6698,1.7859,1.8468,1.8602,1.9209,1.9273,1.9067,1.8369,1.7796,0.0,0.0,0.0,0.0,0.0,0.0,0.0,0.0,0.0,0.0,0.0,0.0,0.0,0.0,0.0,0.0,0.0,0.0,0.0,0.0,0.0,0.0,0.0,0.0,0.0,0.0,0.0,0.0,0.0,0.0,0.0,0.0,0.0,0.0,0.0,0.0,0.0,0.0,0.0,0.0,0.0,0.0,1.4599,1.4504,0.0,0.0,0.0,1.3794,1.398,0.0,0.0,0.0,0.0,0.0,0.0,0.0,0.0,0.0,0.0,0.0,0.0,0.0,0.0,0.0,0.0,0.0,0.0,0.0,0.0,0.0,0.0,0.0,0.0,0.0,0.0,0.0,0.0,0.0,0.0,0.0,0.0,0.0,0.0,0.0,0.0,0.0,0.0,0.0,0.0,0.0,0.0,0.0,0.0,0.0,0.0,0.0,0.0,0.0,0.0,0.0,0.0,0.0,0.0,0.0,0.0,0.0,1.6188,1.7448,1.8137,1.8238,1.8774,1.8959,1.8646,1.795,0.0,0.0,0.0,0.0,0.0,0.0,0.0,0.0,0.0,0.0,0.0,0.0,0.0,0.0,0.0,0.0,0.0,0.0,0.0,0.0,0.0,0.0,0.0,0.0,0.0,0.0,0.0,1.0314,0.0,0.0,0.0,0.0,0.0,0.0,0.0,0.0,0.0,0.0,0.0,0.0,0.0,0.0,1.4773,1.4266,1.4501,1.4492,0.0,0.0,1.3779,1.3779,1.3704,1.3427,0.0,0.0,0.0,0.0,0.0,0.0,0.0,0.0,0.0,0.0,0.0,0.0,0.0,0.0,0.0,0.0,0.0,0.0,0.0,0.0,0.0,0.0,0.0,0.0,0.0,0.0,0.0,0.0,0.0,0.0,0.0,0.0,0.0,0.0,0.0,0.0,0.0,0.0,0.0,0.0,0.0,0.0,0.0,0.0,0.0,0.0,0.0,0.0,0.0,0.0,0.0,0.0,0.0,0.0,0.0,1.6518,1.726,1.7739,1.8034,1.8358,1.8331,1.8016,1.7327,1.6714,0.0,0.0,0.0,0.0,0.0,0.0,0.0,0.0,0.0,0.0,0.0,0.0,0.0,0.0,0.0,0.0,0.0,0.0,0.0,0.0,0.0,0.0,0.0,0.0,0.0,0.0,0.0,0.0,0.0,0.0,0.0,0.0,0.0,0.0,0.0,0.0,0.0,0.0,0.0,0.0,0.0,1.4649,1.4398,1.4441,1.4315,0.0,0.0,1.3231,1.2399,1.2804,1.2789,1.1774,0.0,0.0,0.0,0.0,0.0,0.0,0.0,0.0,0.0,0.0,0.0,0.0,0.0,0.0,0.0,0.0,0.0,0.0,0.0,0.0,0.0,0.0,0.0,0.0,0.0,0.0,0.0,0.0,0.0,0.0,0.0,0.0,0.0,0.0,0.0,0.0,0.0,0.0,0.0,0.0,0.0,0.0,0.0,0.0,0.0,0.0,0.0,0.0,0.0,0.0,0.0,0.0,0.0,1.5241,1.5644,1.6508,1.7168,1.7406,1.7757,1.7911,1.7806,1.7091,1.6495,0.0,0.0,0.0,0.0,0.0,0.0,0.0,0.0,0.0,0.0,0.0,0.0,0.0,0.0,0.0,0.0,0.0,0.0,0.0,0.0,0.0,0.0,0.0,0.0,0.0,0.0,0.0,0.0,0.9291,0.9415,0.9534,0.0,0.0,0.0,0.0,0.0,0.0,0.0,0.0,0.0,0.0,1.356,1.3444,1.3512,0.0,0.0,1.3228,1.297,1.2292,1.2255,1.2197,1.1788,1.1689,0.0,0.0,0.0,0.0,0.0,0.0,0.0,0.0,0.0,0.0,0.0,0.0,0.0,0.0,0.0,0.0,0.0,0.0,0.0,0.0,0.0,0.0,0.0,0.0,0.0,0.0,0.0,0.0,0.0,0.0,0.0,0.0,0.0,0.0,0.0,0.0,0.0,0.0,0.0,0.0,0.0,0.0,0.0,0.0,0.0,0.0,0.0,0.0,0.0,0.0,0.0,0.0,1.45,1.4765,1.5908,1.6513,1.6613,1.7067,1.7265,1.716,1.6691,1.624,0.0,0.0,0.0,0.0,0.0,0.0,0.0,0.0,0.0,0.0,0.0,0.0,0.0,0.0,0.0,0.0,0.0,0.0,0.0,0.0,0.0,0.0,0.0,0.0,0.0,0.0,0.0,0.0,0.8653,0.8786,0.8783,0.0,0.0,0.0,0.0,0.0,0.0,0.0,0.0,0.0,0.0,1.2948,1.2728,1.2956,1.3045,1.2736,1.267,1.2453,1.1763,1.166,1.1578,1.1255,0.0,0.0,0.0,0.0,0.0,0.0,0.0,0.0,0.0,0.0,0.0,0.0,0.0,0.0,0.0,0.0,0.0,0.0,0.0,0.0,0.0,0.0,0.0,0.0,0.0,0.0,0.0,0.0,0.0,0.0,0.5738,0.0,0.0,0.0,0.0,0.0,0.0,0.0,0.0,0.0,0.0,0.0,0.0,0.0,0.0,0.0,0.0,0.0,0.0,0.0,0.0,0.0,0.0,1.4038,1.428,1.532,1.5796,1.5607,1.6339,1.663,1.6324,1.6064,1.5707,1.5175,0.0,0.0,0.0,0.0,0.0,0.0,0.0,0.0,0.0,0.0,0.0,0.0,0.0,0.0,0.0,0.0,0.0,0.0,0.0,0.0,0.0,0.0,0.0,0.0,0.0,0.0,0.7437,0.7675,0.7942,0.0,0.0,0.0,0.0,0.0,0.0,0.0,0.0,0.0,0.0,1.2396,1.272,1.2741,1.2657,1.2452,1.201,1.1714,1.1325,1.0606,1.0737,1.0693,0.0,0.0,0.0,0.0,0.0,0.0,0.0,0.0,0.0,0.0,0.0,0.0,0.0,0.0,0.0,0.0,0.0,0.0,0.0,0.0,0.0,0.0,0.0,0.0,0.0,0.0,0.0,0.3906,0.3607,0.0,0.0,0.0,0.0,0.0,0.0,0.0,0.0,0.0,0.0,0.0,0.7517,0.8237,0.0,0.0,0.0,0.0,0.0,0.0,0.0,0.0,0.0,0.0,0.0,0.0,1.3473,1.3823,1.4524,1.4886,1.5011,1.5398,1.5672,1.5779,1.5482,1.5234,1.5033,0.0,0.0,0.0,0.0,0.0,0.0,0.0,0.0,0.0,0.0,0.0,0.0,0.0,0.0,0.0,0.0,0.0,0.0,0.0,0.0,0.0,0.0,0.0,0.0,0.0,0.6829,0.0,0.0,0.0,0.0,0.0,0.0,0.0,0.0,0.0,0.0,0.0,1.0136,1.0664,1.0972,1.1142,1.1283,1.1405,1.145,0.0,0.0,0.0,0.0,0.0,0.0,0.0,0.0,0.0,0.0,0.0,0.0,0.0,0.0,0.9043,0.9336,0.9579,0.9881,1.0104,0.0,0.0,0.0,0.0,0.0,0.0,0.0,0.0,0.0,0.0,0.0,0.0,0.0,0.0,0.3356,0.0,0.2776,0.0,0.0,0.0,0.0,0.0,0.0,0.0,0.0,0.681,0.7155,0.7462,0.8183,0.8879,0.0,0.9684,0.9763,0.0,0.0,0.0,0.0,0.0,0.0,0.0,0.0,1.3126,1.3367,1.397,1.4424,1.4539,1.4915,1.5275,1.5479,1.5138,1.4976,1.5229,1.4755,1.3932,0.0,0.0,0.0,0.0,0.0,0.0,0.0,0.0,0.0,0.0,0.0,0.0,0.0,0.0,0.0,0.0,0.0,0.0,0.0,0.0,0.0,0.0,0.0,0.6139,0.0,0.0,0.0,0.0,0.0,0.0,0.0,0.0,0.0,0.8934,0.8869,0.8944,0.9619,1.0019,1.012,1.0041,0.0,0.0,0.0,0.0,0.0,0.0,0.0,0.8417,0.8412,0.8347,0.8564,0.8721,0.8361,0.784,0.7182,0.0,0.0,0.8331,0.8708,0.9007,0.9188,0.9718,1.0233,1.0378,1.0785,1.118,0.0,0.0,0.0,0.0,0.0,0.0,0.0,0.0,0.2899,0.2308,0.0,0.1414,0.0,0.0,0.0,0.0,0.0,0.5229,0.0,0.0,0.6695,0.7101,0.7408,0.7952,0.9041,1.0427,0.9931,0.9722,1.0039,1.0051,0.0,0.0,0.0,0.0,0.0,0.0,1.2855,1.3104,1.3881,1.4333,1.4267,1.495,1.5418,1.5319,1.4986,1.5015,1.5626,1.5069,1.382,1.18,1.1564,0.0,0.0,0.0,0.0,0.0,0.0,0.0,0.0,0.0,0.0,0.0,0.0,0.0,0.0,0.0,0.0,0.0,0.0,0.0,0.0,0.5737,0.0,0.0,0.0,0.0,0.0,0.0,0.0,0.0,0.0,0.0,0.7454,0.7787,0.8043,0.8515,0.0,0.0,0.0,0.0,0.9334,0.8489,0.7959,0.772,0.7725,0.7498,0.7241,0.7245,0.0,0.0,0.7217,0.6911,0.6755,0.6755,0.6434,0.6523,0.7352,0.7738,0.8202,0.874,0.899,0.9229,0.9545,0.9927,1.0486,0.5406,0.0,0.0,0.0,0.0,0.4013,0.3367,0.2928,0.2161,0.1655,0.1421,0.1404,0.0,0.0,0.0,0.0,0.0,0.0,0.5078,0.5752,0.666,0.7068,0.7202,0.8231,0.8999,0.9554,0.9688,0.9872,1.0204,1.037,1.0615,1.1039,0.0,0.0,0.0,0.0,1.2762,1.2863,1.3771,1.4125,1.3772,1.4536,1.4896,1.4681,1.4323,1.4215,1.4456,1.4149,1.35,1.2409,1.1574,0.0,0.0,0.0,0.0,0.0,0.0,0.0,0.0,0.0,0.0,0.0,0.0,0.0,0.0,0.0,0.0,0.0,0.0,0.0,0.5058,0.4964,0.4845,0.0,0.0,0.0,0.0,0.0,0.0,0.0,0.0,0.0,0.5811,0.6281,0.6685,0.0,0.0,0.7747,0.7699,0.7853,0.7973,0.771,0.7277,0.0,0.6751,0.6309,0.6007,0.5691,0.5786,0.5686,0.5316,0.5183,0.5199,0.5158,0.5021,0.5194,0.5786,0.6441,0.6814,0.6984,0.7205,0.7731,0.8063,0.8664,0.9249,0.5764,0.569,0.5142,0.51,0.5097,0.4191,0.3498,0.302,0.1754,0.124,0.1468,0.1459,0.1612,0.1925,0.21,0.0,0.0,0.0,0.4625,0.5399,0.6333,0.6987,0.7349,0.8204,0.876,0.8997,0.9415,0.9931,1.0386,1.0482,1.0605,1.0757,0.0,0.0,1.2134,1.2475,1.27,1.29,1.3505,1.3853,1.393,1.4272,1.4384,1.4361,1.3781,1.3613,1.3858,1.3277,1.264,1.1955,1.102,1.0379,0.0,0.0,0.0,0.0,0.0,0.0,0.0,0.0,0.0,0.0,0.0,0.5891,0.5621,0.0,0.0,0.0,0.5165,0.4984,0.4521,0.4406,0.0,0.0,0.0,0.0,0.0,0.0,0.0,0.4057,0.4063,0.4052,0.4426,0.4798,0.5328,0.6312,0.6578,0.6685,0.6469,0.0,0.6696,0.6462,0.6184,0.5903,0.5783,0.5492,0.5037,0.4591,0.45,0.4544,0.4516,0.4535,0.4376,0.4187,0.4199,0.4387,0.4724,0.514,0.5541,0.5981,0.6509,0.6884,0.7218,0.7655,0.8236,0.5814,0.5514,0.5043,0.5045,0.5126,0.4296,0.3659,0.3234,0.1716,0.1286,0.1716,0.1593,0.1579,0.1577,0.2041,0.0,0.2875,0.3396,0.4186,0.5156,0.5919,0.6748,0.7647,0.8049,0.8405,0.8718,0.9186,0.9772,1.0382,1.0408,1.0621,1.0889,1.1463,1.1974,1.2442,1.2481,1.27,1.2999,1.3158,1.3608,1.4406,1.4003,1.3849,1.4191,1.3453,1.3222,1.3611,1.2363,1.1423,1.0791,1.0303,1.0002,0.975,0.0,0.0,0.0,0.0,0.0,0.0,0.0,0.0,0.0,0.0,0.0,0.0,0.0,0.0,0.0,0.4671,0.0,0.4242,0.4124,0.0,0.0,0.0,0.3187,0.284,0.2915,0.2847,0.2981,0.0,0.0,0.3244,0.3398,0.409,0.5405,0.612,0.6094,0.5394,0.5624,0.5691,0.5123,0.469,0.4564,0.4908,0.4459,0.3848,0.3404,0.3452,0.3814,0.4162,0.3989,0.3821,0.3641,0.3825,0.4003,0.4007,0.4177,0.4336,0.5444,0.6127,0.6495,0.6659,0.6887,0.7277,0.5851,0.5618,0.5494,0.5209,0.4807,0.4242,0.4262,0.4545,0.3197,0.2929,0.3418,0.2522,0.2016,0.18,0.2273,0.2368,0.2179,0.2851,0.3553,0.4279,0.547,0.6703,0.7905,0.8206,0.8306,0.823,0.894,0.9438,0.9697,1.0133,1.0506,1.0886,1.1238,1.1449,1.1645,1.1996,1.2318,1.259,1.2994,1.351,1.3897,1.3223,1.3232,1.3676,1.2682,1.244,1.2839,1.1712,1.0755,1.0102,0.9995,0.9813,0.9669,0.8561,0.0,0.0,0.0,0.0,0.0,0.0,0.0,0.0,0.0,0.5238,0.477,0.0,0.4425,0.0,0.4157,0.4079,0.3956,0.3717,0.0,0.0,0.3116,0.2905,0.2973,0.2999,0.3052,0.3154,0.3201,0.3267,0.3371,0.3482,0.3565,0.4045,0.429,0.4362,0.4222,0.4493,0.4581,0.4267,0.3974,0.3848,0.3883,0.2901,0.2064,0.1904,0.2431,0.313,0.3132,0.2435,0.2261,0.2784,0.2978,0.3354,0.3915,0.3587,0.3248,0.3609,0.4244,0.4846,0.5194,0.5412,0.5788,0.59,0.5778,0.561,0.5226,0.4689,0.4322,0.4354,0.4786,0.3931,0.3662,0.3669,0.2929,0.2589,0.2449,0.2567,0.238,0.2182,0.2598,0.3126,0.3764,0.4981,0.6134,0.7328,0.7808,0.811,0.8452,0.8931,0.9249,0.9512,0.9929,1.0317,1.0675,1.0785,1.0896,1.0896,1.1576,1.2069,1.2241,1.2516,1.2755,1.2968,1.2612,1.2411,1.2636,1.1808,1.1524,1.1808,1.0845,1.0058,0.9438,0.9451,0.9303,0.9093,0.8199,0.7541,0.0,0.0,0.0,0.0,0.0,0.0,0.0,0.0,0.0,0.0,0.0,0.3828,0.3638,0.3674,0.3704,0.3603,0.3357,0.3233,0.2985,0.2876,0.2655,0.2569,0.2605,0.265,0.2709,0.2747,0.2791,0.2856,0.2943,0.3006,0.3026,0.3122,0.3191,0.3516,0.3913,0.3978,0.3499,0.3197,0.3233,0.327,0.1739,0.0701,0.0701,0.1231,0.1764,0.2647,0.1941,0.1411,0.1589,0.1958,0.2335,0.2711,0.2553,0.2208,0.2211,0.2546,0.3221,0.4269,0.4459,0.4646,0.5945,0.5782,0.5418,0.509,0.4603,0.4309,0.4231,0.4368,0.4153,0.3787,0.351,0.3242,0.3189,0.3245,0.2883,0.2697,0.2596,0.2748,0.2981,0.3619,0.4585,0.5439,0.6167,0.7046,0.8011,0.885,0.8878,0.8918,0.9265,0.9529,0.9792,1.0178,1.0301,1.0316,1.033,1.1224,1.1765,1.1871,1.1646,1.1696,1.1905,1.188,1.1765,1.1433,1.1031,1.0834,1.0852,1.0079,0.9335,0.8738,0.8751,0.864,0.8401,0.7812,0.7276,0.0,0.6359,0.0,0.0,0.0,0.0,0.0,0.0,0.0,0.0,0.3648,0.3321,0.3158,0.3417,0.3436,0.3222,0.3097,0.2972,0.2725,0.2624,0.2383,0.2127,0.2174,0.2208,0.2217,0.2264,0.2298,0.2168,0.2085,0.2131,0.2294,0.2379,0.2768,0.3263,0.3458,0.3499,0.2694,0.2557,0.2762,0.209,0.0704,-0.0355,-0.0355,-0.0179,0.0541,0.2164,0.1803,0.0901,0.0361,0.0726,0.128,0.1281,0.1292,0.13,0.1489,0.1485,0.203,0.3293,0.3648,0.3653,0.6192,0.5662,0.5422,0.5245,0.5039,0.4205,0.387,0.3823,0.3714,0.3787,0.3937,0.3868,0.383,0.3715,0.383,0.3629,0.3215,0.3484,0.3831,0.415,0.4532,0.474,0.479,0.6448,0.7756,0.8878,0.8543,0.8437,0.8602,0.8824,0.9198,0.949,1.0069,1.0375,1.0494,0.0,0.0,0.0,1.0507,1.0479,1.1147,1.1149,1.0964,1.0958,1.0355,0.0,1.1147,0.9529,0.8273,0.7614,0.764,0.0,0.0,0.0,0.0,0.0,0.0,0.0,0.0,0.0,0.0,0.0,0.4591,0.4316,0.4458,0.4458,0.4339,0.3978,0.3722,0.3599,0.3479,0.2966,0.2735,0.2798,0.2411,0.2165,0.2213,0.223,0.2255,0.2161,0.2175,0.2052,0.1495,0.1381,0.1403,0.1405,0.2097,0.2472,0.2641,0.2665,0.2525,0.1874,0.1906,0.1931,0.0705,-0.1253,-0.1991,-0.1453,-0.128,-0.0736,0.0184,0.0552,-0.0,-0.0,0.0184,-0.0,-0.0,0.0187,0.0564,0.1327,0.1321,0.1496,0.1851,0.1847,0.2031,0.5346,0.0,0.451,0.4352,0.0,0.3812,0.3393,0.329,0.3519,0.3916,0.4256,0.4115,0.4079,0.4047,0.3937,0.3743,0.3452,0.3482,0.3731,0.3981,0.446,0.4477,0.4139,0.5686,0.6935,0.785,0.7459,0.7651,0.8232,0.7886,0.8101,0.8641,0.876,0.8948,0.9079,0.9787,1.0278,1.0543,1.0037,1.0033,1.0642,1.0585,1.0399,1.0365,0.9849,0.0,0.0,0.0,0.0,0.0,0.0,0.0,0.0,0.0,0.0,0.6177,0.549,0.5226,0.5391,0.4873,0.4361,0.4522,0.4152,0.4011,0.4221,0.4243,0.4126,0.3725,0.3703,0.3567,0.3457,0.2929,0.2687,0.2742,0.2489,0.2096,0.1698,0.172,0.1596,0.1616,0.1925,0.1794,0.0756,0.0615,0.0468,-0.0,-0.0161,0.0165,0.05,0.1006,0.0846,-0.0516,-0.0348,-0.0176,-0.0712,-0.1985,-0.292,-0.2374,-0.2208,-0.2036,-0.1667,-0.0741,-0.0,-0.0,-0.0,-0.0,-0.0,-0.0,0.0191,0.0579,0.0768,0.0763,0.0757,0.0752,0.112,0.441,0.3976,0.3606,0.3458,0.3417,0.3295,0.3024,0.286,0.0,0.0,0.0,0.3833,0.3913,0.4082,0.3749,0.3556,0.3602,0.3388,0.3529,0.3925,0.4396,0.4309,0.4115,0.5072,0.5894,0.6589,0.6382,0.6798,0.7605,0.6914,0.6982,0.7552,0.7434,0.7361,0.7577,0.8834,0.9545,0.9787,0.9761,0.9771,1.0048,1.0035,0.996,0.9707,0.9429,0.8998,0.8799,0.8274,0.7379,0.6373,0.6766,0.6949,0.6651,0.6257,0.5882,0.5403,0.4821,0.4551,0.4735,0.4203,0.3816,0.3583,0.363,0.376,0.3804,0.3974,0.3861,0.3445,0.3684,0.3816,0.3443,0.3036,0.2776,0.2669,0.2417,0.1863,0.1009,0.0587,0.0446,0.0299,0.0906,0.1217,-0.0153,-0.0464,-0.0625,-0.1266,-0.1942,-0.2474,-0.168,-0.0848,-0.0686,-0.1913,-0.2277,-0.2469,-0.1973,-0.2363,-0.2927,-0.2939,-0.2964,-0.3166,-0.2794,-0.1678,-0.056,-0.0,-0.0,-0.0,-0.0,-0.0,-0.0,-0.0,-0.0,-0.0194,-0.0388,-0.0575,-0.0,0.4933,0.4485,0.3842,0.3454,0.3449,0.2939,0.2789,0.2742,0.2996,0.2934,0.2803,0.3109,0.3317,0.3654,0.354,0.3657,0.4014,0.4064,0.4328,0.4695,0.4519,0.4519,0.4829,0.5126,0.5479,0.5777,0.5918,0.5998,0.6149,0.6168,0.6256,0.6392,0.6905,0.7169,0.7184,0.797,0.8092,0.7541,0.869,0.9276,0.9033,0.9313,0.9056,0.8654,0.8447,0.8307,0.8269,0.7486,0.6903,0.6648,0.6664,0.6574,0.6521,0.5968,0.514,0.3897,0.3894,0.4172,0.4455,0.3623,0.293,0.252,0.2973,0.3541,0.3911,0.419,0.4055,0.3636,0.3911,0.4192,0.406,0.3503,0.2961,0.2423,0.2289,0.1732,0.0295,-0.104,-0.1801,-0.1834,-0.1383,-0.0773,-0.1093,-0.1592,-0.1775,-0.1623,-0.2151,-0.2697,-0.2559,-0.1908,-0.1404,-0.1588,-0.2311,-0.2694,-0.2722,-0.2753,-0.2961,-0.2991,-0.3016,-0.3035,-0.3036,-0.2672,-0.1916,-0.0385,-0.0,-0.0,-0.0,-0.0,-0.0,-0.0,-0.0,-0.0588,-0.196,-0.2539,-0.1945,0.3894,0.3484,0.2966,0.2707,0.2707,0.2451,0.2314,0.2423,0.25,0.2686,0.2864,0.2626,0.2735,0.3067,0.3067,0.3185,0.3421,0.3416,0.3667,0.4056,0.3845,0.3861,0.4108,0.4258,0.4639,0.5255,0.4954,0.5133,0.556,0.5248,0.5154,0.5544,0.5754,0.5954,0.6133,0.618,0.6199,0.6337,0.6792,0.7532,0.8371,0.8055,0.7979,0.8013,0.7435,0.7305,0.7767,0.6541,0.5755,0.5546,0.5549,0.5747,0.6583,0.5441,0.4174,0.2917,0.3195,0.362,0.3909,0.2732,0.1863,0.1722,0.203,0.204,0.1737,0.302,0.3571,0.298,0.2567,0.2293,0.2293,0.2307,0.2039,0.1327,0.1772,0.1484,-0.045,-0.1664,-0.244,-0.2467,-0.2185,-0.2049,-0.206,-0.243,-0.2472,-0.2157,-0.2547,-0.2766,-0.2765,-0.2462,-0.2135,-0.2302,-0.2841,-0.3227,-0.2911,-0.3126,-0.3158,-0.3002,-0.3032,-0.3056,-0.3071,-0.3091,-0.2714,-0.1949,-0.1371,-0.0983,-0.079,-0.0,-0.0793,-0.0797,-0.0794,-0.1386,-0.2177,-0.2771,-0.2367,0.2888,0.2619,0.2225,0.2091,0.2084,0.2084,0.208,0.2074,0.2074,0.2412,0.2829,0.2231,0.2228,0.2573,0.2571,0.2565,0.2676,0.2646,0.2885,0.3028,0.3151,0.33,0.347,0.3475,0.3997,0.4681,0.4322,0.4485,0.5046,0.4547,0.4435,0.4847,0.4812,0.4898,0.524,0.4739,0.4762,0.5311,0.5095,0.5822,0.7309,0.6914,0.671,0.6983,0.6159,0.6034,0.6477,0.5491,0.4659,0.4542,0.4542,0.517,0.6169,0.4999,0.3707,0.2564,0.2551,0.2836,0.3134,0.2072,0.1178,0.0884,0.0594,0.0149,-0.0447,0.1035,0.2051,0.1743,0.0877,0.0147,-0.0,0.0296,0.0449,0.0151,0.0757,0.0303,-0.1374,-0.2157,-0.2487,-0.25,-0.2541,-0.2568,-0.2579,-0.2622,-0.2672,-0.2716,-0.2781,-0.2815,-0.2979,-0.3023,-0.3049,-0.3214,-0.3561,-0.3597,-0.3291,-0.3511,-0.373,-0.32,-0.3227,-0.325,-0.3271,-0.3089,-0.311,-0.2937,-0.2558,-0.1979,-0.1994,-0.1998,-0.2003,-0.2013,-0.2007,-0.2,-0.2206,-0.2615,-0.2404,0.3038,0.2736,0.2322,0.2172,0.2147,0.2146,0.2131,0.2108,0.2105,0.2086,0.2183,0.2054,0.2054,0.218,0.2177,0.2161,0.2135,0.2384,0.2367,0.2218,0.2708,0.3229,0.3399,0.3527,0.368,0.4117,0.4169,0.4194,0.4341,0.4262,0.4316,0.4504,0.4521,0.4558,0.4611,0.4482,0.4485,0.4622,0.418,0.4589,0.5716,0.5997,0.5726,0.5181,0.5048,0.465,0.4279,0.4422,0.4328,0.4126,0.4725,0.5206,0.482,0.4678,0.408,0.2575,0.1816,0.1663,0.2269,0.2266,0.1509,0.0151,-0.1209,-0.1967,-0.2117,-0.1964,-0.1358,-0.0301,-0.0603,-0.1357,-0.2114,-0.1965,-0.1668,-0.1217,-0.152,-0.2139,-0.2339,-0.2508,-0.2532,-0.2587,-0.2592,-0.2597,-0.2605,-0.2653,-0.2712,-0.2763,-0.2808,-0.3013,-0.336,-0.3592,-0.3825,-0.4001,-0.3999,-0.4031,-0.4095,-0.4308,-0.414,-0.3798,-0.3812,-0.3631,-0.3451,-0.3281,-0.3108,-0.3538,-0.317,-0.2995,-0.3014,-0.3027,-0.3027,-0.3029,-0.303,-0.3034,-0.3058,-0.3283,-0.2662,0.2934,0.2782,0.2365,0.2219,0.2207,0.2189,0.2174,0.2162,0.2143,0.2139,0.2144,0.1876,0.1718,0.1679,0.1952,0.2074,0.2046,0.2173,0.2167,0.2027,0.228,0.2669,0.2939,0.2943,0.3222,0.3525,0.3682,0.3706,0.3606,0.3789,0.3994,0.4075,0.4083,0.4251,0.4586,0.4162,0.403,0.4206,0.3774,0.3787,0.3948,0.4305,0.4411,0.4445,0.4047,0.3637,0.3366,0.339,0.3122,0.3002,0.3456,0.3476,0.3366,0.2909,0.2612,0.2474,0.1238,0.0619,0.0929,-0.0,-0.0925,-0.1532,-0.1708,-0.2023,-0.2457,-0.2482,-0.2184,-0.1703,-0.1846,-0.2144,-0.2453,-0.2466,-0.2329,-0.2187,-0.2348,-0.2521,-0.256,-0.2566,-0.2578,-0.2601,-0.2617,-0.2628,-0.2639,-0.2698,-0.2759,-0.2807,-0.3026,-0.3409,-0.3576,-0.3812,-0.442,-0.4819,-0.4826,-0.4653,-0.4502,-0.4695,-0.4719,-0.4373,-0.4196,-0.4198,-0.404,-0.4074,-0.4113,-0.4151,-0.3987,-0.4014,-0.4235,-0.4242,-0.4242,-0.4045,-0.4065,-0.4082,-0.3916,-0.414,-0.3717,0.2703,0.2679,0.2388,0.2245,0.2244,0.2222,0.2213,0.221,0.2188,0.2192,0.2211,0.1797,0.1633,0.1724,0.1995,0.2121,0.2101,0.2083,0.2076,0.2075,0.2068,0.2331,0.2609,0.2612,0.2769,0.3214,0.3492,0.3379,0.3283,0.3454,0.3663,0.3747,0.376,0.3928,0.4265,0.3831,0.3701,0.3878,0.3586,0.3302,0.3014,0.3097,0.321,0.3535,0.3122,0.2839,0.2989,0.2562,0.2276,0.2131,0.2284,0.2297,0.2014,0.124,0.1091,0.1576,0.0158,-0.0793,-0.0793,-0.1745,-0.2372,-0.2512,-0.1911,-0.1915,-0.2367,-0.2547,-0.2559,-0.2541,-0.2518,-0.2506,-0.2497,-0.2521,-0.2548,-0.2568,-0.2571,-0.2583,-0.2609,-0.2615,-0.2617,-0.2627,-0.2657,-0.268,-0.2702,-0.2755,-0.2806,-0.3016,-0.3422,-0.382,-0.3984,-0.4402,-0.4845,-0.5443,-0.5468,-0.5485,-0.5094,-0.5285,-0.5304,-0.4958,-0.4789,-0.4806,-0.4651,-0.4692,-0.4727,-0.4561,-0.4806,-0.4835,-0.4643,-0.4645,-0.4857,-0.4874,-0.4909,-0.4954,-0.4783,-0.5005,-0.5224,0.2662,0.229,0.2259,0.2252,0.2247,0.2245,0.2245,0.2249,0.2102,0.2102,0.2108,0.2106,0.2243,0.2236,0.2213,0.2196,0.2185,0.2136,0.2113,0.2242,0.2084,0.236,0.2687,0.269,0.2861,0.3194,0.3336,0.3367,0.3272,0.3282,0.3329,0.3261,0.3411,0.3582,0.3614,0.3621,0.3627,0.3629,0.3183,0.3033,0.2883,0.2572,0.2571,0.2574,0.2421,0.2424,0.2424,0.2424,0.2134,0.1696,0.2007,0.2017,0.1411,0.0471,-0.0,-0.0,-0.1453,-0.2436,-0.2274,-0.1948,-0.1785,-0.2435,-0.2601,-0.2601,-0.2587,-0.2597,-0.26,-0.2597,-0.2596,-0.2586,-0.2567,-0.2577,-0.2593,-0.2598,-0.26,-0.2613,-0.2642,-0.2649,-0.266,-0.2683,-0.2712,-0.2747,-0.2804,-0.2823,-0.3016,-0.3403,-0.3622,-0.4014,-0.4766,-0.5199,-0.5448,-0.586,-0.6106,-0.6161,-0.6109,-0.5919,-0.5751,-0.5587,-0.5418,-0.5234,-0.5076,-0.4716,-0.494,-0.4964,-0.4989,-0.5015,-0.4837,-0.4857,-0.5079,-0.5319,-0.5604,-0.5657,-0.5897,-0.5931,-0.6162,0.2556,0.2373,0.2343,0.2342,0.2354,0.2319,0.2312,0.2182,0.1155,0.1156,0.1746,0.2184,0.2341,0.2357,0.2327,0.2282,0.223,0.2206,0.2196,0.2195,0.2185,0.2192,0.2348,0.2351,0.25,0.2521,0.2666,0.2837,0.2749,0.2627,0.281,0.3001,0.2859,0.3167,0.3484,0.3052,0.3065,0.3224,0.2956,0.2658,0.2643,0.2519,0.2532,0.2511,0.2492,0.2326,0.1861,0.2203,0.206,0.1422,0.2068,0.176,0.0482,-0.0964,-0.1771,-0.1779,-0.1787,-0.2124,-0.263,-0.2468,-0.2302,-0.2634,-0.2652,-0.2643,-0.2619,-0.2635,-0.2652,-0.2642,-0.2669,-0.268,-0.2667,-0.2632,-0.2609,-0.2627,-0.2631,-0.2645,-0.2672,-0.2692,-0.271,-0.2722,-0.2748,-0.2958,-0.3167,-0.3181,-0.3558,-0.3977,-0.4389,-0.4806,-0.5246,-0.5695,-0.5937,-0.6175,-0.6218,-0.624,-0.6224,-0.6215,-0.6226,-0.604,-0.5861,-0.5863,-0.5693,-0.5732,-0.5769,-0.5981,-0.5797,-0.6034,-0.6078,-0.6523,-0.6545,-0.6404,-0.6709,-0.6788,-0.7047,-0.7295,-0.7548,0.2429,0.2432,0.2406,0.2405,0.2418,0.238,0.2373,0.224,0.1333,0.1186,0.1942,0.2243,0.2405,0.2418,0.2402,0.2363,0.2303,0.2275,0.2264,0.2271,0.2253,0.2255,0.2271,0.2274,0.2279,0.2289,0.2442,0.248,0.2535,0.2702,0.2733,0.2774,0.2622,0.278,0.3103,0.2816,0.2669,0.2839,0.2714,0.2403,0.2232,0.2099,0.2276,0.2428,0.2578,0.2081,0.1114,0.1938,0.1947,0.1129,0.1946,0.1465,-0.0651,-0.196,-0.262,-0.262,-0.2136,-0.1985,-0.2673,-0.2677,-0.268,-0.2691,-0.2707,-0.2702,-0.2668,-0.2699,-0.2707,-0.2706,-0.2724,-0.2752,-0.2742,-0.2697,-0.2665,-0.2677,-0.2684,-0.2694,-0.2706,-0.2733,-0.2754,-0.294,-0.2958,-0.3336,-0.3721,-0.3741,-0.4132,-0.4553,-0.4976,-0.5239,-0.5682,-0.595,-0.6392,-0.644,-0.6673,-0.6696,-0.6702,-0.6707,-0.6502,-0.6313,-0.6311,-0.6311,-0.653,-0.6572,-0.6797,-0.6809,-0.7041,-0.7291,-0.7544,-0.8,-0.8067,-0.7931,-0.7824,-0.7925,-0.8412,-0.8692,-0.8933,0.2443,0.2463,0.2436,0.2427,0.2431,0.2423,0.2423,0.2427,0.2274,0.2122,0.2278,0.2427,0.2431,0.2429,0.2431,0.2423,0.2401,0.2341,0.2318,0.2328,0.2283,0.2288,0.2333,0.2334,0.2346,0.2371,0.2855,0.2756,0.2651,0.3101,0.3123,0.2706,0.2711,0.272,0.2598,0.2593,0.2437,0.2601,0.2445,0.212,0.1466,0.1308,0.1645,0.232,0.2173,0.1332,-0.0,0.1634,0.18,0.0652,0.1469,0.0652,-0.1962,-0.2637,-0.2652,-0.2658,-0.2676,-0.2705,-0.2732,-0.2735,-0.2746,-0.2762,-0.2777,-0.2772,-0.2763,-0.2772,-0.2777,-0.2774,-0.2781,-0.2787,-0.2788,-0.278,-0.2762,-0.2746,-0.2752,-0.2757,-0.2748,-0.2765,-0.2969,-0.3348,-0.3539,-0.3728,-0.4124,-0.4348,-0.4566,-0.496,-0.5211,-0.5473,-0.5895,-0.6166,-0.6387,-0.6815,-0.7092,-0.7159,-0.7187,-0.7208,-0.6994,-0.6786,-0.6575,-0.6575,-0.7205,-0.7245,-0.7462,-0.7478,-0.7931,-0.798,-0.8232,-0.8497,-0.88,-0.8675,-0.8993,-0.9082,-0.9367,-0.9641,-0.9871,0.2492,0.2496,0.2467,0.2467,0.2481,0.2465,0.2466,0.233,0.1398,0.1087,0.1553,0.1709,0.2019,0.2487,0.2485,0.2474,0.2455,0.2444,0.2428,0.2397,0.2375,0.2376,0.2393,0.2397,0.2401,0.2413,0.2593,0.263,0.2668,0.2684,0.2713,0.2585,0.2592,0.2596,0.2609,0.1968,0.1647,0.1815,0.2342,0.252,0.2005,0.1015,0.1021,0.2037,0.0171,-0.1544,-0.1876,0.0852,0.22,0.1502,-0.0168,-0.1343,-0.1836,-0.2339,-0.269,-0.2709,-0.2718,-0.2737,-0.2763,-0.2769,-0.2773,-0.2782,-0.2785,-0.2784,-0.2787,-0.2806,-0.2815,-0.2818,-0.2833,-0.2845,-0.2846,-0.2846,-0.2825,-0.2774,-0.2777,-0.2785,-0.2782,-0.3147,-0.3542,-0.3958,-0.4152,-0.434,-0.4726,-0.4963,-0.5215,-0.5626,-0.5887,-0.5955,-0.6234,-0.6264,-0.6728,-0.7566,-0.7818,-0.8221,-0.8432,-0.8439,-0.8231,-0.7631,-0.743,-0.7233,-0.7673,-0.7921,-0.8137,-0.8375,-0.8632,-0.8888,-0.8939,-0.9225,-0.9326,-0.9633,-0.9733,-1.0034,-1.0336,-1.0372,-1.0388,0.2532,0.2527,0.2499,0.2496,0.2512,0.2493,0.2496,0.2358,0.1421,0.1265,0.1741,0.1748,0.207,0.2548,0.2548,0.2537,0.2523,0.254,0.237,0.2178,0.231,0.2463,0.2472,0.2474,0.2489,0.2506,0.2517,0.2536,0.2563,0.2572,0.243,0.2126,0.1803,0.1977,0.2486,0.2171,0.1511,0.1013,0.1367,0.1372,0.0513,-0.0518,-0.0347,0.0518,-0.1566,-0.2799,-0.2625,-0.0702,0.0697,0.0514,-0.1372,-0.24,-0.1876,-0.2386,-0.2735,-0.275,-0.2757,-0.2767,-0.2796,-0.28,-0.2811,-0.2826,-0.2833,-0.2834,-0.2838,-0.286,-0.2874,-0.2867,-0.2889,-0.2906,-0.2906,-0.2906,-0.3068,-0.3213,-0.302,-0.2838,-0.2846,-0.339,-0.3958,-0.4375,-0.4566,-0.4933,-0.533,-0.5592,-0.5672,-0.6101,-0.6172,-0.6234,-0.6322,-0.6544,-0.7389,-0.8028,-0.8643,-0.9047,-0.9669,-0.9673,-0.9472,-0.8881,-0.8291,-0.8099,-0.8329,-0.8392,-0.8632,-0.9094,-0.9358,-0.9403,-0.9667,-0.976,-1.0072,-1.0387,-1.0481,-1.0563,-1.042,-1.0686,-1.0706,0.256,0.2556,0.2529,0.2515,0.2515,0.2515,0.2518,0.2523,0.239,0.2402,0.2567,0.2423,0.2436,0.2601,0.2594,0.2593,0.2602,0.2601,0.2276,0.1938,0.2076,0.2541,0.2551,0.2551,0.2574,0.2613,0.2441,0.2453,0.2639,0.246,0.2133,0.1663,0.0834,0.0839,0.1872,0.2397,0.1203,0.0347,-0.0,-0.0696,-0.209,-0.2616,-0.2269,-0.1396,-0.2287,-0.2831,-0.2657,-0.2316,-0.2131,-0.1745,-0.226,-0.2777,-0.2781,-0.2782,-0.2952,-0.2789,-0.2789,-0.281,-0.2829,-0.2845,-0.2861,-0.2902,-0.2909,-0.2916,-0.2908,-0.3101,-0.311,-0.3091,-0.3114,-0.3136,-0.3137,-0.3139,-0.3322,-0.3513,-0.3474,-0.3105,-0.3137,-0.385,-0.4583,-0.4976,-0.5144,-0.5315,-0.5752,-0.6041,-0.6106,-0.6153,-0.6232,-0.63,-0.6522,-0.6961,-0.7765,-0.8599,-0.9452,-1.0262,-1.0881,-1.0881,-1.048,-1.0104,-0.9536,-0.8982,-0.9004,-0.9068,-0.915,-0.962,-0.9864,-1.0126,-1.0204,-1.0294,-1.0383,-1.0477,-1.0563,-1.0653,-1.0702,-1.0739,-1.0751,0.256,0.2559,0.2551,0.2534,0.2519,0.2537,0.2547,0.2552,0.2577,0.2586,0.2755,0.2598,0.2605,0.2602,0.2604,0.2602,0.2611,0.2627,0.2637,0.2473,0.2481,0.262,0.2597,0.2593,0.2602,0.2617,0.213,0.1973,0.251,0.2342,0.236,0.2232,0.0685,-0.0,0.0519,-0.052,-0.0696,-0.0,-0.0,-0.0,-0.0889,-0.2313,-0.2849,-0.2672,-0.2679,-0.2503,-0.1967,-0.2511,-0.2857,-0.2467,-0.2619,-0.2784,-0.2789,-0.3139,-0.3162,-0.3021,-0.3207,-0.323,-0.2912,-0.2923,-0.2934,-0.2946,-0.3134,-0.3123,-0.3464,-0.3472,-0.3657,-0.383,-0.4024,-0.4044,-0.4067,-0.4076,-0.4088,-0.4293,-0.4082,-0.4074,-0.4285,-0.4823,-0.5182,-0.56,-0.5784,-0.5802,-0.6049,-0.6147,-0.6237,-0.6286,-0.6541,-0.66,-0.6994,-0.7598,-0.8421,-0.9636,-1.0476,-1.1278,-1.1884,-1.1683,-1.1693,-1.1522,-1.0789,-0.9877,-0.97,-0.9748,-0.9852,-1.0155,-1.0147,-1.0183,-1.0285,-1.0387,-1.0477,-1.0547,-1.0641,-1.0714,-1.0726,-1.0751,-1.0751,0.256,0.2557,0.2547,0.253,0.2517,0.2533,0.254,0.2547,0.2571,0.2592,0.2601,0.2616,0.2628,0.2639,0.2641,0.2641,0.2642,0.2658,0.2665,0.2672,0.2695,0.2682,0.2653,0.2652,0.266,0.2661,0.2171,0.1687,0.1533,0.1536,0.1548,0.1387,0.0522,-0.0,-0.0,-0.088,-0.1767,-0.0,-0.0,-0.0,-0.0,-0.1436,-0.2154,-0.2335,-0.2515,-0.2515,-0.2156,-0.2694,-0.2866,-0.2851,-0.2841,-0.2838,-0.2841,-0.303,-0.3234,-0.3274,-0.3456,-0.3293,-0.3136,-0.3147,-0.3339,-0.3349,-0.3539,-0.3529,-0.3704,-0.3704,-0.3898,-0.4044,-0.4067,-0.4275,-0.4469,-0.4674,-0.4885,-0.4905,-0.5075,-0.5073,-0.4912,-0.5246,-0.5621,-0.603,-0.6052,-0.6071,-0.6128,-0.6243,-0.6513,-0.6762,-0.6806,-0.7239,-0.7858,-0.8471,-0.9074,-1.048,-1.1282,-1.1884,-1.231,-1.232,-1.1959,-1.1782,-1.1283,-1.057,-1.0215,-1.0049,-1.0114,-1.0196,-1.0208,-1.0249,-1.0347,-1.0436,-1.0506,-1.0588,-1.069,-1.0743,-1.0751,-1.0751,-1.0751,0.2722,0.2717,0.2688,0.2677,0.2678,0.2681,0.2694,0.2537,0.2571,0.2596,0.2617,0.2642,0.2662,0.2692,0.268,0.2688,0.2688,0.2686,0.2688,0.2699,0.272,0.2722,0.2698,0.272,0.2731,0.2736,0.2596,0.1735,0.0869,0.0348,0.0174,0.035,0.0175,-0.0,-0.0,-0.0,-0.0898,-0.1796,-0.1086,-0.0,-0.0,-0.1257,-0.1976,-0.1976,-0.2515,-0.2874,-0.2874,-0.2874,-0.2872,-0.2874,-0.2901,-0.2908,-0.2916,-0.2946,-0.3329,-0.3518,-0.3332,-0.3152,-0.3159,-0.3354,-0.3731,-0.3759,-0.414,-0.4322,-0.3943,-0.3956,-0.395,-0.3898,-0.3959,-0.4342,-0.4717,-0.5124,-0.5339,-0.5537,-0.5728,-0.5542,-0.5147,-0.549,-0.6044,-0.609,-0.6098,-0.6136,-0.6204,-0.6289,-0.6572,-0.6997,-0.7239,-0.7854,-0.8467,-0.9275,-1.0079,-1.1082,-1.1884,-1.2289,-1.2722,-1.2759,-1.2419,-1.1866,-1.1395,-1.0674,-1.0332,-1.0163,-1.0187,-1.0216,-1.0216,-1.0273,-1.0375,-1.0457,-1.0522,-1.062,-1.0718,-1.0743,-1.0751,-1.0751,-1.0751,0.3548,0.3516,0.3508,0.3505,0.367,0.3538,0.3244,0.2616,0.2646,0.2656,0.2671,0.2679,0.2684,0.2692,0.2692,0.2692,0.2692,0.2694,0.2692,0.2699,0.275,0.2754,0.2742,0.2763,0.2773,0.2603,0.2084,0.1572,0.123,0.0705,0.0354,0.089,-0.0,-0.0,-0.0,-0.0,-0.0,-0.0721,-0.1452,-0.1271,-0.054,-0.1437,-0.2335,-0.2515,-0.2695,-0.2875,-0.2874,-0.2874,-0.2874,-0.2881,-0.2901,-0.2924,-0.2942,-0.3326,-0.3345,-0.3363,-0.356,-0.3383,-0.3214,-0.3595,-0.3793,-0.3986,-0.4365,-0.4545,-0.4322,-0.4332,-0.433,-0.4308,-0.4702,-0.4916,-0.5505,-0.594,-0.5966,-0.5977,-0.6199,-0.6213,-0.5979,-0.5924,-0.6093,-0.6101,-0.6139,-0.6191,-0.6251,-0.6313,-0.6777,-0.7224,-0.7851,-0.8467,-0.9271,-1.0079,-1.0681,-1.1483,-1.1889,-1.2289,-1.231,-1.2367,-1.2044,-1.1715,-1.1239,-1.0709,-1.037,-1.0216,-1.0216,-1.0216,-1.0216,-1.0298,-1.04,-1.0461,-1.0522,-1.0632,-1.0735,-1.0743,-1.0751,-1.0751,-1.0751,0.3827,0.3963,0.3646,0.3644,0.3652,0.4012,0.3725,0.3261,0.3297,0.3324,0.3338,0.334,0.3348,0.3363,0.3195,0.3195,0.3369,0.3386,0.3241,0.3099,0.3141,0.2977,0.2808,0.2814,0.2821,0.281,0.2468,0.2304,0.2134,0.1603,0.125,0.0898,0.1082,-0.0,-0.0,-0.0,-0.0,-0.0,-0.0915,-0.0914,-0.0362,-0.09,-0.2156,-0.2699,-0.2886,-0.289,-0.2876,-0.2889,-0.3074,-0.3079,-0.3091,-0.2923,-0.2943,-0.3153,-0.3178,-0.3191,-0.3211,-0.36,-0.381,-0.4196,-0.4575,-0.4577,-0.4958,-0.4753,-0.4357,-0.4162,-0.4151,-0.4332,-0.4528,-0.5121,-0.5908,-0.615,-0.6183,-0.6006,-0.6437,-0.6641,-0.6589,-0.6353,-0.6125,-0.612,-0.615,-0.6401,-0.6465,-0.6728,-0.7187,-0.8041,-0.8259,-0.8873,-0.9677,-1.048,-1.0881,-1.1488,-1.1889,-1.2094,-1.2104,-1.1757,-1.1657,-1.1344,-1.1046,-1.0696,-1.0328,-1.0171,-1.0216,-1.0216,-1.022,-1.0318,-1.0412,-1.0465,-1.0539,-1.0665,-1.0743,-1.0751,-1.0751,-1.0751,-1.0751,0.4254,0.4241,0.3925,0.3613,0.3467,0.4139,0.4333,0.4192,0.4385,0.445,0.431,0.4148,0.418,0.4029,0.4036,0.4038,0.3889,0.3924,0.3801,0.3498,0.3529,0.319,0.3029,0.2856,0.2856,0.284,0.2855,0.2868,0.287,0.2874,0.1973,0.1079,0.181,0.1634,-0.0,-0.0,-0.0,-0.0,-0.0,-0.0,-0.0,-0.0,-0.1081,-0.2159,-0.289,-0.2898,-0.289,-0.3082,-0.328,-0.3653,-0.3288,-0.3105,-0.312,-0.3158,-0.3198,-0.3391,-0.3607,-0.3998,-0.4383,-0.5147,-0.553,-0.5527,-0.5908,-0.5718,-0.4764,-0.4569,-0.4365,-0.4551,-0.4936,-0.554,-0.6308,-0.6577,-0.6418,-0.6237,-0.6863,-0.7251,-0.721,-0.6797,-0.6577,-0.6502,-0.6728,-0.6794,-0.7055,-0.732,-0.7987,-0.8654,-0.8869,-0.9279,-1.0083,-1.0685,-1.0881,-1.1082,-1.1483,-1.1488,-1.1493,-1.1359,-1.1047,-1.0906,-1.0609,-1.0461,-1.0081,-1.0122,-1.0167,-1.0208,-1.0245,-1.033,-1.04,-1.0457,-1.0555,-1.0694,-1.0747,-1.0751,-1.0751,-1.0751,-1.0751,0.5593,0.4865,0.5338,0.5209,0.4775,0.4469,0.4526,0.5092,0.5105,0.5148,0.5195,0.52,0.4698,0.4374,0.488,0.4734,0.4442,0.4316,0.4175,0.3685,0.3723,0.3394,0.2849,0.305,0.3052,0.287,0.3056,0.3061,0.2875,0.2874,0.2515,0.2336,0.1982,0.1447,0.0913,-0.0,-0.0,-0.0,-0.0,-0.0,-0.0,-0.0,-0.0,-0.1801,-0.2533,-0.2901,-0.3092,-0.3279,-0.366,-0.3689,-0.4061,-0.4248,-0.4071,-0.3923,-0.3957,-0.4359,-0.4567,-0.4577,-0.4956,-0.5905,-0.6286,-0.6288,-0.6479,-0.6666,-0.6286,-0.5903,-0.5517,-0.5718,-0.6125,-0.6746,-0.7526,-0.7427,-0.7511,-0.754,-0.7563,-0.7984,-0.813,-0.7895,-0.7632,-0.7694,-0.7526,-0.7382,-0.7658,-0.7926,-0.8385,-0.8847,-0.9271,-0.948,-1.0083,-1.048,-1.0681,-1.0877,-1.1077,-1.0881,-1.0685,-1.0762,-1.0635,-1.024,-1.012,-1.0211,-1.0045,-1.0077,-1.0118,-1.0183,-1.0228,-1.0277,-1.0355,-1.0432,-1.053,-1.0637,-1.0694,-1.0747,-1.0751,-1.0751,-1.0751,0.6181,0.5811,0.5528,0.5243,0.512,0.4857,0.4581,0.4631,0.5158,0.5357,0.5379,0.5384,0.5403,0.5251,0.56,0.5648,0.5383,0.5242,0.4922,0.4427,0.4283,0.3761,0.3033,0.3422,0.3616,0.3807,0.3818,0.3443,0.2876,0.2874,0.2875,0.2699,0.2346,0.1634,0.0913,0.0737,0.0369,-0.0,-0.0,-0.0,-0.0,-0.0,-0.0,-0.1453,-0.2376,-0.2941,-0.3306,-0.3513,-0.4071,-0.4442,-0.4442,-0.4828,-0.5036,-0.4872,-0.4708,-0.4921,-0.4945,-0.5149,-0.5337,-0.6096,-0.6286,-0.6476,-0.6666,-0.6476,-0.6476,-0.6286,-0.6286,-0.6681,-0.6725,-0.7153,-0.7735,-0.7875,-0.7946,-0.7771,-0.8021,-0.8428,-0.8382,-0.8562,-0.866,-0.8536,-0.8182,-0.8036,-0.8285,-0.8548,-0.8795,-0.9036,-0.9472,-0.9882,-1.0083,-1.0279,-1.048,-1.048,-1.048,-1.048,-1.0288,-1.0142,-1.0206,-1.0015,-0.9857,-0.9947,-1.0016,-1.0057,-1.0122,-1.0196,-1.0232,-1.0249,-1.0314,-1.0396,-1.049,-1.0575,-1.0628,-1.0677,-1.073,-1.0751,-1.0743,0.6648,0.6641,0.5906,0.5451,0.5465,0.5395,0.4946,0.447,0.5171,0.5703,0.572,0.5735,0.5936,0.6315,0.6353,0.6416,0.6356,0.618,0.5676,0.5005,0.4838,0.4303,0.3778,0.3805,0.4373,0.4739,0.4228,0.3855,0.3268,0.3071,0.3063,0.2886,0.2906,0.2189,0.1099,0.0738,0.0555,0.0741,-0.0185,-0.0184,-0.0,-0.0,-0.0366,-0.1281,-0.2602,-0.3543,-0.3532,-0.3922,-0.4491,-0.4857,-0.5039,-0.5237,-0.5834,-0.5654,-0.5275,-0.4903,-0.4936,-0.5522,-0.5908,-0.6479,-0.6669,-0.6859,-0.6663,-0.6666,-0.6666,-0.7049,-0.7049,-0.7443,-0.7512,-0.7759,-0.8174,-0.8095,-0.797,-0.7997,-0.8435,-0.8854,-0.861,-0.8783,-0.9368,-0.9095,-0.8486,-0.8493,-0.8735,-0.8944,-0.9185,-0.9244,-0.9681,-0.9681,-0.9882,-0.9882,-0.9878,-0.9882,-0.9882,-0.9882,-0.9895,-0.9924,-0.9965,-0.9787,-0.984,-0.9918,-0.9987,-1.0045,-1.0122,-1.0196,-1.0216,-1.024,-1.0302,-1.0351,-1.042,-1.049,-1.0555,-1.0612,-1.0448,-1.0261,-1.0265,0.751,0.7114,0.7125,0.6809,0.6327,0.6516,0.59,0.5289,0.597,0.65,0.6563,0.6447,0.6476,0.6682,0.6576,0.6466,0.6344,0.6018,0.5689,0.5196,0.5022,0.4843,0.4134,0.3809,0.4746,0.5315,0.4617,0.4067,0.3498,0.3475,0.3276,0.2911,0.2901,0.2541,0.1842,0.0554,0.0558,0.1499,-0.0189,-0.0942,-0.0,-0.0,-0.0,-0.0925,-0.2599,-0.392,-0.3561,-0.4326,-0.5084,-0.5121,-0.5692,-0.5889,-0.6087,-0.6087,-0.5897,-0.609,-0.6286,-0.6482,-0.6288,-0.6669,-0.7049,-0.7052,-0.7242,-0.7809,-0.7999,-0.8193,-0.8383,-0.877,-0.8896,-0.8783,-0.8814,-0.8757,-0.8632,-0.8654,-0.8661,-0.8873,-0.8851,-0.8621,-0.9209,-0.9213,-0.8581,-0.8959,-0.917,-0.9368,-0.9571,-0.9632,-0.9681,-0.9681,-0.9681,-0.9681,-0.9681,-0.9681,-0.9681,-0.9681,-0.9702,-0.9726,-0.9742,-0.9767,-0.984,-0.9906,-0.9971,-1.0045,-1.0118,-1.0179,-1.02,-1.0216,-1.0253,-1.0298,-1.0351,-1.0408,-1.0469,-1.032,-0.9951,-0.9757,-1.0008,0.7981,0.733,0.7593,0.7309,0.6996,0.7252,0.6981,0.6337,0.651,0.7034,0.7238,0.6758,0.6646,0.6904,0.7017,0.7095,0.6764,0.6408,0.6068,0.5733,0.5559,0.5383,0.5224,0.4921,0.5332,0.4976,0.5225,0.4715,0.4125,0.3524,0.3126,0.2939,0.2747,0.2384,0.2037,0.074,-0.0185,-0.0745,-0.1682,-0.1497,-0.0747,-0.0934,-0.1121,-0.0187,-0.3003,-0.3961,-0.435,-0.4738,-0.5503,-0.5527,-0.5718,-0.5718,-0.5908,-0.5908,-0.5718,-0.6096,-0.6288,-0.6288,-0.6098,-0.6479,-0.6669,-0.6862,-0.7052,-0.7433,-0.8383,-0.8763,-0.8569,-0.8193,-0.8676,-0.8764,-0.8634,-0.8342,-0.8414,-0.8453,-0.8471,-0.8471,-0.8471,-0.8672,-0.8657,-0.8668,-0.8869,-0.8836,-0.9013,-0.9216,-0.9216,-0.9444,-0.948,-0.9279,-0.948,-0.9681,-0.9681,-0.9681,-0.9681,-0.9681,-0.9706,-0.9734,-0.9738,-0.9771,-0.9869,-0.993,-0.9975,-1.004,-1.0126,-1.0179,-1.0204,-1.0216,-1.022,-1.0245,-1.0294,-1.0338,-1.0383,-1.0244,-0.9882,-1.0175,-1.0214,0.8424,0.7927,0.7787,0.7701,0.7545,0.8019,0.7733,0.7063,0.7227,0.7737,0.8085,0.76,0.701,0.6966,0.7431,0.731,0.717,0.6815,0.6633,0.6454,0.6276,0.592,0.5589,0.5477,0.497,0.4242,0.45,0.4538,0.3968,0.3382,0.2984,0.2973,0.2958,0.2224,0.1299,0.0372,-0.0559,-0.2434,-0.2811,-0.206,-0.1123,-0.2259,-0.2074,-0.2269,-0.3229,-0.4768,-0.5339,-0.5527,-0.5718,-0.5908,-0.5527,-0.5527,-0.5908,-0.5718,-0.5718,-0.5908,-0.6098,-0.6098,-0.6098,-0.6288,-0.6288,-0.6479,-0.6672,-0.7052,-0.7816,-0.8189,-0.7996,-0.7619,-0.8074,-0.8156,-0.7841,-0.7919,-0.7794,-0.7841,-0.7867,-0.7867,-0.8069,-0.8266,-0.8266,-0.8471,-0.8471,-0.827,-0.8453,-0.8866,-0.907,-0.9271,-0.9078,-0.9078,-0.9279,-0.948,-0.9681,-0.9681,-0.9681,-0.9681,-0.9697,-0.9722,-0.973,-0.9779,-0.9877,-0.9975,-1.0036,-1.0085,-1.0151,-1.0192,-1.0212,-1.0216,-1.0216,-1.0224,-1.0236,-1.0273,-1.0318,-1.0172,-1.0248,-1.034,-1.0207,0.9088,0.8922,0.8127,0.8198,0.8536,0.8223,0.8064,0.7897,0.8236,0.8579,0.8769,0.8336,0.7435,0.7199,0.7075,0.7126,0.7173,0.7173,0.6994,0.6994,0.6994,0.6279,0.5766,0.5079,0.4385,0.3482,0.3547,0.3766,0.3584,0.3414,0.3018,0.3005,0.2987,0.224,0.1123,-0.0375,-0.1507,-0.2837,-0.3033,-0.2846,-0.2087,-0.2663,-0.3236,-0.4191,-0.5149,-0.5913,-0.5913,-0.5919,-0.5926,-0.6117,-0.5542,-0.554,-0.5924,-0.5542,-0.5542,-0.5911,-0.6098,-0.6101,-0.6109,-0.6104,-0.6098,-0.6288,-0.6479,-0.6669,-0.6859,-0.7429,-0.7429,-0.7242,-0.7486,-0.7755,-0.7638,-0.7514,-0.7374,-0.744,-0.7465,-0.7465,-0.7666,-0.8065,-0.8065,-0.8065,-0.8065,-0.7867,-0.7666,-0.8069,-0.8471,-0.8672,-0.8672,-0.8471,-0.8877,-0.9078,-0.9279,-0.948,-0.9681,-0.9681,-0.9681,-0.9697,-0.9718,-0.9791,-0.9885,-1.0012,-1.0118,-1.0163,-1.0183,-1.0196,-1.0216,-1.0216,-1.0216,-1.022,-1.0224,-1.022,-1.0257,-1.012,-1.0019,-1.014,-0.9779,0.8693,0.9034,0.9017,0.8874,0.8654,0.8207,0.806,0.806,0.7733,0.7596,0.7815,0.7608,0.7178,0.6706,0.6757,0.6783,0.6633,0.6097,0.6276,0.6276,0.592,0.5562,0.5041,0.4706,0.3828,0.3111,0.2973,0.3006,0.3388,0.3037,0.3044,0.3031,0.3017,0.1512,-0.0,-0.1326,-0.247,-0.2855,-0.3052,-0.2862,-0.2862,-0.2862,-0.3624,-0.4581,-0.4804,-0.5193,-0.5195,-0.5771,-0.5982,-0.5995,-0.5592,-0.5776,-0.5961,-0.5577,-0.5753,-0.6112,-0.6106,-0.6117,-0.6136,-0.6123,-0.6098,-0.6098,-0.6288,-0.6294,-0.6112,-0.6865,-0.6862,-0.6871,-0.689,-0.715,-0.686,-0.6699,-0.6736,-0.6823,-0.7065,-0.7264,-0.7465,-0.7864,-0.7864,-0.7867,-0.7666,-0.7465,-0.7267,-0.7065,-0.7666,-0.8069,-0.8069,-0.8065,-0.8471,-0.8676,-0.9078,-0.9279,-0.948,-0.9681,-0.9681,-0.9693,-0.9714,-0.9808,-0.9696,-0.9808,-0.9924,-1.0187,-1.0204,-1.0212,-1.0004,-1.0004,-1.0004,-1.0216,-1.0216,-1.0216,-1.0245,-1.0298,-0.9999,-0.9928,-0.9783,0.8601,0.9132,0.9516,0.9179,0.8645,0.8202,0.7897,0.7725,0.7394,0.6937,0.684,0.6949,0.6673,0.6359,0.6399,0.6614,0.6448,0.6097,0.6097,0.5918,0.5739,0.5201,0.5036,0.4512,0.3624,0.3101,0.296,0.2992,0.2991,0.2842,0.2855,0.305,0.3052,0.1525,-0.0191,-0.2288,-0.3052,-0.3052,-0.3052,-0.3052,-0.3052,-0.3243,-0.3434,-0.4391,-0.4604,-0.4804,-0.5003,-0.5589,-0.6006,-0.6024,-0.5835,-0.583,-0.5822,-0.5812,-0.5792,-0.5963,-0.6139,-0.6147,-0.6166,-0.6175,-0.615,-0.6169,-0.6164,-0.6161,-0.6342,-0.6537,-0.6557,-0.6356,-0.6537,-0.656,-0.6284,-0.6505,-0.6742,-0.7026,-0.7459,-0.7666,-0.7666,-0.7867,-0.7867,-0.7867,-0.7465,-0.7264,-0.7065,-0.6864,-0.6864,-0.7264,-0.7264,-0.7465,-0.7867,-0.827,-0.8676,-0.9078,-0.9279,-0.948,-0.9681,-0.9322,-0.9166,-0.9247,-0.9327,-0.9184,-0.948,-0.9749,-0.9788,-0.9367,-0.9371,-0.958,-0.958,-0.9367,-0.9792,-1.0216,-1.0261,-1.01,-0.9991,-0.9693,-0.9772,0.9141,0.9383,0.9297,0.8985,0.8553,0.8227,0.7558,0.7059,0.7402,0.7282,0.6669,0.6696,0.6429,0.5989,0.6204,0.6405,0.6448,0.6637,0.6461,0.5929,0.5755,0.5567,0.5034,0.4328,0.3802,0.3075,0.2931,0.2964,0.2972,0.2264,0.2282,0.248,0.2481,0.21,0.1144,-0.1716,-0.3052,-0.3052,-0.3052,-0.3052,-0.3249,-0.3441,-0.3634,-0.3837,-0.4234,-0.463,-0.4639,-0.5241,-0.5656,-0.5866,-0.5685,-0.5688,-0.608,-0.5848,-0.584,-0.6251,-0.621,-0.6194,-0.6196,-0.6245,-0.6262,-0.6243,-0.6221,-0.624,-0.6259,-0.6264,-0.6446,-0.6229,-0.6409,-0.644,-0.6491,-0.6722,-0.697,-0.7218,-0.7653,-0.8069,-0.8069,-0.827,-0.827,-0.8069,-0.7666,-0.7264,-0.7065,-0.6864,-0.6662,-0.6662,-0.6461,-0.6864,-0.7264,-0.7871,-0.8277,-0.8709,-0.8914,-0.9139,-0.8948,-0.8568,-0.8409,-0.8685,-0.895,-0.8796,-0.8853,-0.8911,-0.8939,-0.873,-0.8734,-0.9159,-0.8946,-0.8521,-0.917,-0.961,-0.9874,-0.9933,-0.9809,-0.9674,-0.9539,0.7983,0.806,0.8032,0.8036,0.7897,0.8064,0.7893,0.7566,0.6768,0.6322,0.6381,0.6218,0.5946,0.5847,0.5853,0.6042,0.6088,0.5741,0.5388,0.5796,0.5434,0.5285,0.4741,0.4367,0.3821,0.3474,0.3129,0.2964,0.2994,0.2077,0.1138,0.1142,-0.0,0.0954,-0.0,-0.1716,-0.2862,-0.248,-0.2672,-0.3061,-0.3078,-0.3275,-0.3282,-0.33,-0.3898,-0.4099,-0.41,-0.4508,-0.5118,-0.5335,-0.5351,-0.574,-0.6335,-0.6106,-0.6098,-0.6292,-0.6254,-0.6273,-0.6308,-0.6352,-0.6333,-0.6286,-0.627,-0.6289,-0.6281,-0.6278,-0.6278,-0.6281,-0.6267,-0.63,-0.6539,-0.655,-0.6786,-0.7236,-0.7666,-0.8069,-0.8471,-0.8873,-0.9074,-0.8877,-0.8475,-0.7666,-0.7264,-0.6864,-0.6662,-0.6463,-0.6463,-0.6662,-0.7264,-0.7471,-0.7679,-0.8133,-0.8568,-0.8593,-0.8413,-0.8229,-0.8043,-0.83,-0.8556,-0.8601,-0.8447,-0.8286,-0.8299,-0.8306,-0.8521,-0.8521,-0.8309,-0.8316,-0.8556,-0.9007,-0.9254,-0.9309,-0.9179,-0.9031,-0.9097,0.7443,0.7516,0.7489,0.7493,0.7686,0.7881,0.8064,0.7737,0.6775,0.6325,0.6381,0.5894,0.5786,0.5853,0.5698,0.5695,0.5739,0.5383,0.5411,0.5826,0.5101,0.4947,0.4779,0.4232,0.3862,0.3509,0.3332,0.2975,0.3003,0.2451,0.1517,-0.0,-0.0,-0.0,-0.0,-0.1145,-0.2103,-0.2299,-0.2882,-0.3078,-0.3091,-0.3097,-0.3104,-0.3313,-0.3324,-0.3526,-0.3544,-0.3958,-0.4571,-0.479,-0.4991,-0.5782,-0.6188,-0.6161,-0.6151,-0.6333,-0.6324,-0.6338,-0.6368,-0.6387,-0.6349,-0.6286,-0.6311,-0.6338,-0.6343,-0.6357,-0.6352,-0.6346,-0.6322,-0.6349,-0.6384,-0.6393,-0.6797,-0.7245,-0.7666,-0.827,-0.8672,-0.9074,-0.9279,-0.8877,-0.8475,-0.7867,-0.7264,-0.6864,-0.6463,-0.6463,-0.6463,-0.6864,-0.7062,-0.727,-0.7285,-0.7737,-0.7977,-0.7997,-0.8037,-0.7673,-0.7692,-0.7915,-0.7961,-0.8012,-0.7824,-0.7659,-0.7878,-0.7881,-0.7884,-0.7671,-0.7884,-0.7893,-0.7906,-0.7931,-0.7959,-0.8239,-0.832,-0.8601,-0.8658,0.7856,0.7917,0.7844,0.7872,0.795,0.8032,0.7897,0.7566,0.7917,0.7465,0.6846,0.6061,0.6133,0.6192,0.5889,0.573,0.5739,0.5562,0.5779,0.5823,0.5295,0.5332,0.4993,0.4261,0.39,0.3723,0.3354,0.2987,0.2822,0.2841,0.1904,0.0572,-0.0,-0.0,-0.0,-0.0,-0.0,-0.1921,-0.2501,-0.2895,-0.3104,-0.3106,-0.3118,-0.3126,-0.3125,-0.332,-0.3331,-0.3547,-0.3948,-0.4159,-0.4567,-0.5404,-0.5804,-0.5752,-0.5983,-0.6204,-0.6395,-0.6387,-0.6384,-0.6398,-0.6393,-0.6363,-0.6409,-0.6447,-0.6447,-0.6428,-0.642,-0.6412,-0.6395,-0.6417,-0.6439,-0.682,-0.7003,-0.7437,-0.8065,-0.827,-0.8676,-0.8877,-0.8877,-0.8475,-0.7867,-0.7264,-0.7065,-0.6662,-0.6463,-0.6463,-0.6463,-0.6461,-0.6864,-0.6864,-0.7086,-0.7131,-0.7365,-0.7594,-0.7438,-0.7315,-0.7342,-0.7573,-0.7182,-0.722,-0.7022,-0.7022,-0.724,-0.7243,-0.703,-0.703,-0.7243,-0.7246,-0.7039,-0.7064,-0.7318,-0.7373,-0.7883,-0.7938,-0.799,0.7689,0.7439,0.7805,0.7837,0.7527,0.7885,0.8064,0.7905,0.8134,0.787,0.7435,0.7461,0.7013,0.6421,0.6222,0.6068,0.5728,0.5749,0.5782,0.5639,0.5681,0.5742,0.5406,0.4674,0.4318,0.3945,0.3566,0.3003,0.3032,0.3052,0.3052,0.2288,0.0954,-0.0,-0.0,-0.0,-0.0,-0.0959,-0.1729,-0.2512,-0.2922,-0.3123,-0.3142,-0.3157,-0.3161,-0.3163,-0.3176,-0.3385,-0.3593,-0.3602,-0.4013,-0.4638,-0.5038,-0.5423,-0.5839,-0.6447,-0.6442,-0.6436,-0.6436,-0.6436,-0.6431,-0.6428,-0.6452,-0.6455,-0.6461,-0.6463,-0.6463,-0.645,-0.6442,-0.645,-0.6455,-0.6643,-0.7032,-0.7245,-0.7666,-0.7867,-0.8069,-0.827,-0.827,-0.8069,-0.7465,-0.7264,-0.6864,-0.6662,-0.6463,-0.6463,-0.6463,-0.6463,-0.6461,-0.6662,-0.6893,-0.6936,-0.6985,-0.722,-0.7107,-0.6983,-0.6994,-0.7011,-0.6812,-0.6818,-0.6818,-0.6815,-0.6818,-0.6818,-0.6818,-0.6818,-0.6818,-0.682,-0.6823,-0.6867,-0.712,-0.7171,-0.7221,-0.7263,-0.7541,0.7665,0.7561,0.7809,0.7865,0.7725,0.7897,0.8076,0.8117,0.8138,0.8009,0.7894,0.8137,0.788,0.7071,0.6567,0.6243,0.5736,0.5744,0.5774,0.5831,0.5872,0.5935,0.5608,0.5075,0.4721,0.4348,0.3781,0.3211,0.3237,0.3243,0.3052,0.2862,0.1526,0.0765,-0.0,-0.0,-0.0,-0.0,-0.0771,-0.1742,-0.253,-0.3137,-0.3167,-0.319,-0.32,-0.3205,-0.3215,-0.3216,-0.3215,-0.3215,-0.3615,-0.4026,-0.4839,-0.545,-0.6055,-0.6461,-0.6458,-0.6455,-0.6455,-0.6458,-0.6461,-0.6463,-0.6463,-0.6463,-0.6463,-0.6463,-0.6463,-0.6458,-0.6461,-0.6461,-0.6461,-0.6461,-0.6662,-0.6864,-0.7062,-0.7264,-0.7264,-0.7465,-0.7465,-0.7465,-0.7264,-0.7065,-0.6864,-0.6662,-0.6463,-0.6463,-0.6463,-0.6463,-0.6463,-0.6662,-0.6702,-0.6749,-0.6602,-0.6651,-0.6744,-0.6809,-0.6812,-0.6809,-0.6815,-0.6818,-0.6818,-0.6818,-0.6818,-0.6818,-0.6818,-0.6818,-0.6605,-0.682,-0.6828,-0.6867,-0.6894,-0.6929,-0.6965,-0.7003,-0.7289,0.7791,0.7811,0.7905,0.7999,0.8056,0.806,0.8105,0.8174,0.8101,0.8072,0.8121,0.844,0.8185,0.7545,0.7085,0.6427,0.6091,0.592,0.594,0.6007,0.5839,0.5899,0.5598,0.5073,0.4914,0.4753,0.4191,0.361,0.3619,0.3434,0.3052,0.3052,0.2862,0.2103,-0.0,-0.0,-0.0,-0.0,-0.0,-0.0969,-0.2137,-0.2931,-0.3142,-0.3152,-0.3159,-0.3165,-0.3187,-0.3194,-0.3191,-0.3193,-0.3397,-0.3812,-0.4833,-0.5654,-0.6259,-0.6463,-0.6463,-0.6463,-0.6469,-0.6474,-0.6472,-0.6469,-0.6466,-0.6469,-0.6469,-0.6463,-0.6463,-0.6463,-0.6463,-0.6463,-0.6463,-0.6463,-0.6662,-0.6673,-0.6881,-0.6872,-0.7065,-0.7065,-0.7062,-0.7065,-0.6864,-0.6662,-0.6662,-0.6463,-0.6463,-0.6463,-0.6463,-0.6463,-0.6463,-0.6463,-0.6507,-0.6561,-0.6608,-0.6668,-0.6744,-0.6799,-0.6815,-0.6818,-0.6818,-0.6818,-0.6818,-0.6818,-0.6818,-0.6605,-0.6605,-0.6605,-0.6605,-0.6605,-0.6608,-0.6621,-0.665,-0.6679,-0.6927,-0.6742,-0.7011,0.7738,0.7815,0.8301,0.8549,0.8566,0.8395,0.8407,0.8605,0.824,0.8105,0.8179,0.8109,0.8027,0.7735,0.7604,0.7122,0.6627,0.6276,0.6467,0.6323,0.5988,0.5872,0.576,0.5246,0.5098,0.5133,0.4768,0.4196,0.3815,0.3434,0.3052,0.3054,0.3052,0.2296,0.1152,-0.0,-0.0,-0.0,-0.0,-0.0,-0.0977,-0.234,-0.3123,-0.3155,-0.3176,-0.3187,-0.3206,-0.3217,-0.3219,-0.322,-0.322,-0.383,-0.4845,-0.545,-0.6057,-0.6461,-0.6463,-0.6463,-0.6472,-0.6485,-0.6491,-0.6488,-0.6485,-0.6485,-0.648,-0.6469,-0.6463,-0.6463,-0.6463,-0.6463,-0.6463,-0.6463,-0.6463,-0.6682,-0.6702,-0.6687,-0.6671,-0.6671,-0.6668,-0.6668,-0.6466,-0.6463,-0.6463,-0.6463,-0.6463,-0.6463,-0.6463,-0.6463,-0.6463,-0.6469,-0.6521,-0.657,-0.6611,-0.6668,-0.6744,-0.6796,-0.6812,-0.6818,-0.6818,-0.6818,-0.6818,-0.6605,-0.6392,-0.6395,-0.6395,-0.6179,-0.6179,-0.5969,-0.6184,-0.6187,-0.6407,-0.665,-0.6443,-0.6469,-0.6732,0.7911,0.7819,0.8492,0.8764,0.8786,0.8751,0.8782,0.8679,0.8307,0.834,0.8423,0.8313,0.8209,0.8121,0.7975,0.7648,0.7167,0.6994,0.664,0.6476,0.6347,0.6047,0.5739,0.5424,0.5475,0.5515,0.5147,0.4768,0.4007,0.3435,0.3055,0.3063,0.3063,0.268,0.1922,-0.0,-0.0,-0.0,-0.0,-0.0,-0.0,-0.1174,-0.2144,-0.2166,-0.2777,-0.2992,-0.3209,-0.3221,-0.323,-0.323,-0.343,-0.4036,-0.4847,-0.545,-0.6057,-0.6259,-0.6463,-0.6463,-0.6472,-0.6488,-0.6504,-0.6496,-0.6485,-0.6477,-0.6472,-0.6463,-0.6463,-0.6463,-0.6463,-0.6463,-0.6463,-0.6463,-0.6463,-0.6472,-0.6512,-0.6531,-0.6529,-0.6531,-0.6523,-0.6512,-0.6496,-0.6463,-0.6463,-0.6463,-0.6463,-0.6463,-0.6463,-0.6466,-0.6466,-0.6463,-0.6521,-0.6567,-0.66,-0.666,-0.673,-0.6782,-0.6815,-0.6818,-0.6605,-0.6179,-0.5967,-0.5967,-0.5967,-0.5754,-0.5756,-0.5756,-0.5756,-0.5543,-0.5543,-0.5543,-0.5974,-0.6407,-0.6199,-0.5781,-0.582,0.8276,0.8165,0.8663,0.8959,0.9031,0.93,0.9366,0.9158,0.8757,0.8774,0.8861,0.8527,0.8403,0.8301,0.8187,0.804,0.7885,0.7531,0.6991,0.6848,0.6531,0.6428,0.5937,0.5615,0.5667,0.57,0.5527,0.4958,0.4196,0.3626,0.3062,0.3081,0.3085,0.3082,0.2523,-0.0,-0.0,-0.0,-0.0,-0.0,-0.0392,-0.0196,-0.0782,-0.1567,-0.2361,-0.298,-0.3197,-0.3209,-0.3224,-0.3231,-0.3635,-0.4038,-0.4444,-0.5047,-0.5652,-0.6057,-0.6259,-0.6259,-0.6466,-0.628,-0.6485,-0.648,-0.6472,-0.6474,-0.6477,-0.6469,-0.6469,-0.6477,-0.6477,-0.6466,-0.6466,-0.6466,-0.6466,-0.6491,-0.654,-0.6589,-0.6597,-0.6594,-0.6575,-0.6559,-0.6526,-0.6485,-0.6477,-0.6477,-0.6474,-0.6474,-0.6472,-0.6472,-0.6474,-0.6469,-0.6491,-0.6534,-0.657,-0.6635,-0.6717,-0.656,-0.66,-0.6392,-0.6179,-0.5754,-0.5328,-0.5541,-0.5328,-0.5115,-0.5115,-0.5115,-0.5115,-0.5115,-0.5115,-0.5115,-0.533,-0.5547,-0.5334,-0.4916,-0.4717,0.8898,0.9062,0.9687,0.98,0.9884,0.9521,0.9592,1.0214,1.0563,1.0269,0.9302,0.879,0.8456,0.8473,0.8481,0.8349,0.8246,0.7889,0.7757,0.7628,0.6919,0.6635,0.6526,0.6006,0.6046,0.5887,0.5718,0.5149,0.4577,0.3815,0.3246,0.3641,0.3284,0.3095,0.3103,0.2134,0.1561,0.0785,-0.0789,-0.1382,-0.1763,-0.1177,-0.0196,-0.0588,-0.137,-0.218,-0.2797,-0.3202,-0.3213,-0.3223,-0.3433,-0.3635,-0.424,-0.4847,-0.5452,-0.5853,-0.6057,-0.6259,-0.6264,-0.6083,-0.6091,-0.6507,-0.651,-0.6531,-0.6521,-0.6496,-0.6504,-0.6526,-0.6518,-0.6485,-0.648,-0.6482,-0.6488,-0.6542,-0.6594,-0.6649,-0.6681,-0.6651,-0.6624,-0.6602,-0.6575,-0.6551,-0.6537,-0.6534,-0.6534,-0.6534,-0.6534,-0.6531,-0.6515,-0.6496,-0.6474,-0.6504,-0.6542,-0.6624,-0.6709,-0.6344,-0.6169,-0.5962,-0.5754,-0.5115,-0.4902,-0.5115,-0.4902,-0.4476,-0.4476,-0.4689,-0.4689,-0.4476,-0.4478,-0.4478,-0.4691,-0.4693,-0.0,-0.3842,-0.3426]},{"header":{"parameterUnit":"m.s-1","parameterCategory":1,"la1":31.0,"la2":29.5877,"lo1":-88.7671,"lo2":-86.6584,"dy":0.0162,"dx":0.0185,"nx":115,"ny":88,"refTime":"2023-04-30T12:00:00:Z","depth":0,"parameterNumber":3,"parameterNumberName":"V-component_of_WINDS"},"data":[0.0,0.0,0.0,0.0,0.0,0.0,0.0,0.0,0.0,0.0,0.0,0.0,0.0,0.0,0.0,0.0,0.0,0.0,0.0,0.0,0.0,0.0,0.0,0.0,0.0,0.0,0.0,0.0,0.0,0.0,0.0,0.0,0.0,0.0,0.0,0.0,0.0,0.0,0.0,0.0,0.0,0.0,0.0,0.0,0.0,0.0,0.0,0.0,0.0,0.0,0.0,0.0,0.0,0.0,0.0,0.0,0.0,0.0,0.0,0.0,0.0,0.0,0.0,0.0,0.0,0.0,0.0,0.0,0.0,0.0,0.0,0.0,0.0,0.0,0.0,0.0,0.0,0.0,0.0,0.0,0.0,0.0,0.0,0.0,0.0,0.0,0.0,0.0,0.0,0.0,0.0,0.0,0.0,0.0,0.0,0.0,0.0,0.0,0.0,0.0,0.0,0.0,0.0,0.0,0.0,0.0,0.0,0.0,0.0,0.0,0.0,0.0,0.0,0.0,0.0,0.0,0.0,0.0,0.0,0.0,0.0,0.0,0.0,0.0,0.0,0.0,0.0,0.0,0.0,0.0,0.0,0.0,0.0,0.0,0.0,0.0,0.0,0.0,0.0,0.0,0.0,0.0,0.0,0.0,0.0,0.0,0.0,0.0,0.0,0.0,0.0,0.0,0.0,0.0,0.0,0.0,0.0,0.0,0.0,0.0,0.0,0.0,0.0,0.0,0.0,0.0,0.0,0.0,0.0,0.0,0.0,0.0,0.0,0.0,0.0,0.0,0.0,0.0,0.0,0.0,0.0,0.0,0.0,0.0,0.0,0.0,0.0,0.0,0.0,0.0,0.0,0.0,0.0,0.0,0.0,0.0,0.0,0.0,0.0,0.0,0.0,0.0,0.0,0.0,0.0,0.0,0.0,0.0,0.0,0.0,0.0,0.0,0.0,0.0,0.0,0.0,0.0,0.0,0.0,0.0,0.0,0.0,0.0,0.0,0.0,0.0,0.0,0.0,0.0,0.0,0.0,0.0,0.0,0.0,0.0,0.0,0.0,0.0,0.0,0.0,0.0,0.0,0.0,0.0,0.0,0.0,0.0,0.0,0.0,0.0,0.0,0.0,0.0,0.0,0.0,0.0,0.0,0.0,0.0,0.0,0.0,0.0,0.0,0.0,0.0,0.0,0.0,0.0,0.0,0.0,0.0,0.0,0.0,0.0,0.0,0.0,0.0,0.0,0.0,0.0,0.0,0.0,0.0,0.0,0.0,0.0,0.0,0.0,0.0,0.0,0.0,0.0,0.0,0.0,0.0,0.0,0.0,0.0,0.0,0.0,0.0,0.0,0.0,0.0,0.0,0.0,0.0,0.0,0.0,0.0,0.0,0.0,0.0,0.0,0.0,0.0,0.0,0.0,0.0,0.0,0.0,0.0,0.0,0.0,0.0,0.0,0.0,0.0,0.0,0.0,0.0,0.0,0.0,0.0,0.0,0.0,0.0,0.0,0.0,0.0,0.0,0.0,0.0,0.0,0.0,0.0,0.0,0.0,0.0,0.0,0.0,0.0,0.0,0.0,0.0,0.0,0.0,0.0,0.0,0.0,0.0,0.0,0.0,0.0,0.0,0.0,0.0,0.0,0.0,0.0,0.0,0.0,0.0,0.0,0.0,0.0,0.0,0.0,0.0,0.0,0.0,0.0,0.0,0.0,0.0,0.0,0.0,0.0,0.0,0.0,0.0,0.0,0.0,0.0,0.0,0.0,0.0,0.0,0.0,0.0,0.0,0.0,0.0,0.0,0.0,0.0,0.0,0.0,0.0,0.0,0.0,0.0,0.0,0.0,0.0,0.0,0.0,0.0,0.0,0.0,0.0,0.0,0.0,0.0,0.0,0.0,0.0,0.0,0.0,0.0,0.0,0.0,0.0,0.0,0.0,0.0,0.0,0.0,0.0,0.0,0.0,0.0,0.0,0.0,0.0,0.0,0.0,0.0,0.0,0.0,0.0,0.0,0.0,0.0,0.0,0.0,0.0,0.0,0.0,0.0,0.0,0.0,0.0,0.0,0.0,0.0,0.0,0.0,0.0,0.0,0.0,0.0,0.0,0.0,0.0,0.0,0.0,0.0,0.0,0.0,0.0,0.0,0.0,0.0,0.0,0.0,0.0,0.0,0.0,0.0,0.0,0.0,0.0,0.0,0.0,0.0,0.0,0.0,0.0,0.0,0.0,0.0,0.0,0.0,0.0,0.0,0.0,0.0,0.0,0.0,0.0,0.0,0.0,0.0,0.0,0.0,0.0,0.0,0.0,0.0,0.0,0.0,0.0,0.0,0.0,0.0,0.0,0.0,0.0,0.0,0.0,0.0,0.0,0.0,0.0,0.0,0.0,0.0,0.0,0.0,0.0,0.0,0.0,0.0,0.0,0.0,0.0,0.0,0.0,0.0,0.0,0.0,0.0,0.0,0.0,0.0,0.0,0.0,0.0,0.0,0.0,0.0,0.0,0.0,0.0,0.0,0.0,0.0,0.0,0.0,0.0,0.0,0.0,0.0,0.0,0.0,0.0,0.0,0.0,0.0,0.0,0.0,0.0,0.0,0.0,0.0,0.0,0.0,0.0,0.0,0.0,0.0,0.0,0.0,0.0,0.0,0.0,0.0,0.0,0.0,0.0,0.0,0.0,0.0,0.0,0.0,0.0,0.0,0.0,0.0,0.0,0.0,0.0,0.0,0.0,0.0,0.0,0.0,0.0,0.0,0.0,0.0,0.0,0.0,0.0,0.0,0.0,0.0,0.0,0.0,0.0,0.0,0.0,0.0,0.0,0.0,0.0,0.0,0.0,0.0,0.0,0.0,0.0,0.0,0.0,0.0,0.0,0.0,0.0,0.0,0.0,0.0,0.0,0.0,0.0,0.0,0.0,0.0,0.0,0.0,0.0,0.0,0.0,0.0,0.0,0.0,0.0,0.0,0.0,0.0,0.0,0.0,0.0,0.0,0.0,0.0,0.0,0.0,0.0,0.0,0.0,0.0,0.0,0.0,0.0,0.0,0.0,0.0,0.0,0.0,0.0,0.0,0.0,0.0,0.0,0.0,0.0,0.0,0.0,0.0,0.0,0.0,0.0,0.0,0.0,0.0,0.0,0.0,0.0,0.0,0.0,0.0,0.0,0.0,0.0,0.0,0.0,0.0,0.0,0.0,0.0,0.0,0.0,0.0,0.0,0.0,0.0,0.0,0.0,0.0,0.0,0.0,0.0,0.0,0.0,0.0,0.0,0.0,0.0,0.0,0.0,0.0,0.0,0.0,0.0,0.0,0.0,0.0,0.0,0.0,0.0,0.0,0.0,0.0,0.0,0.0,0.0,0.0,0.0,0.0,0.0,0.0,0.0,0.0,0.0,0.0,0.0,0.0,0.0,0.0,0.0,0.0,0.0,0.0,0.0,0.0,0.0,0.0,0.0,0.0,0.0,0.0,0.0,0.0,0.0,0.0,0.0,0.0,0.0,0.0,0.0,0.0,0.0,0.0,0.0,0.0,0.0,0.0,0.0,0.0,0.0,0.0,0.0,0.0,0.0,0.0,0.0,0.0,0.0,0.0,0.0,0.0,0.0,0.0,0.0,0.0,0.0,0.0,0.0,0.0,0.0,0.0,0.0,0.0,0.0,0.0,0.0,0.0,0.0,0.0,0.0,0.0,0.0,0.0,0.0,0.0,0.0,0.0,0.0,0.0,0.0,0.0,0.0,0.0,0.0,0.0,0.0,0.0,0.0,0.0,0.0,0.0,0.0,0.0,0.0,0.0,0.0,0.0,0.0,0.0,0.0,0.0,0.0,0.0,0.0,0.0,0.0,0.0,0.0,0.0,0.0,0.0,0.0,0.0,0.0,0.0,0.0,0.0,0.0,0.0,0.0,0.0,0.0,0.0,0.0,0.0,0.0,0.0,0.0,0.0,0.0,0.0,0.0,0.0,0.0,0.0,0.0,0.0,0.0,0.0,0.0,0.0,0.0,0.0,0.0,0.0,0.0,0.0,0.0,0.0,0.0,0.0,0.0,0.0,0.0,0.0,0.0,0.0,0.0,0.0,0.0,0.0,0.0,0.0,0.0,0.0,0.0,0.0,0.0,0.0,0.0,0.0,0.0,0.0,0.0,0.0,0.0,0.0,0.0,0.0,0.0,0.0,0.0,0.0,0.0,0.0,0.0,0.0,0.0,0.0,0.0,0.0,0.0,0.0,0.0,0.0,0.0,0.0,0.0,0.0,0.0,0.0,0.0,0.0,0.0,0.0,-3.2231,0.0,0.0,0.0,0.0,0.0,0.0,0.0,0.0,0.0,0.0,0.0,0.0,0.0,0.0,0.0,0.0,0.0,0.0,0.0,0.0,0.0,0.0,0.0,0.0,0.0,0.0,0.0,0.0,0.0,0.0,0.0,0.0,0.0,0.0,0.0,0.0,0.0,0.0,0.0,0.0,0.0,0.0,0.0,0.0,0.0,0.0,0.0,0.0,0.0,0.0,0.0,0.0,0.0,0.0,0.0,0.0,0.0,0.0,0.0,0.0,0.0,0.0,0.0,0.0,0.0,0.0,0.0,0.0,0.0,0.0,0.0,0.0,0.0,0.0,0.0,0.0,0.0,0.0,0.0,0.0,0.0,0.0,0.0,0.0,0.0,0.0,0.0,0.0,0.0,0.0,0.0,0.0,0.0,0.0,0.0,0.0,0.0,0.0,0.0,0.0,0.0,0.0,0.0,0.0,0.0,0.0,0.0,0.0,0.0,0.0,-3.202,-3.2126,-3.2196,-3.2232,-3.2266,0.0,0.0,0.0,0.0,0.0,0.0,0.0,0.0,0.0,0.0,0.0,0.0,0.0,0.0,0.0,0.0,0.0,0.0,0.0,0.0,0.0,0.0,0.0,0.0,0.0,0.0,0.0,0.0,0.0,0.0,0.0,0.0,0.0,0.0,0.0,0.0,0.0,0.0,0.0,0.0,0.0,0.0,0.0,0.0,0.0,0.0,0.0,0.0,0.0,0.0,0.0,0.0,0.0,0.0,0.0,0.0,0.0,0.0,0.0,0.0,0.0,0.0,0.0,0.0,0.0,0.0,0.0,0.0,0.0,0.0,0.0,0.0,0.0,0.0,0.0,0.0,0.0,0.0,0.0,0.0,0.0,0.0,0.0,0.0,0.0,0.0,0.0,0.0,0.0,0.0,0.0,0.0,0.0,0.0,0.0,0.0,0.0,0.0,0.0,0.0,0.0,0.0,0.0,0.0,0.0,0.0,0.0,0.0,0.0,0.0,0.0,0.0,-3.2577,-3.2546,-3.2476,0.0,0.0,0.0,0.0,0.0,0.0,0.0,0.0,0.0,0.0,0.0,0.0,0.0,0.0,0.0,0.0,0.0,0.0,0.0,0.0,0.0,0.0,0.0,0.0,0.0,0.0,0.0,0.0,0.0,0.0,0.0,0.0,0.0,0.0,0.0,0.0,0.0,0.0,0.0,0.0,0.0,0.0,0.0,0.0,0.0,0.0,0.0,0.0,0.0,0.0,0.0,0.0,0.0,0.0,0.0,0.0,0.0,0.0,0.0,0.0,0.0,0.0,0.0,0.0,0.0,0.0,0.0,0.0,0.0,0.0,0.0,0.0,0.0,0.0,0.0,0.0,0.0,0.0,0.0,0.0,0.0,0.0,0.0,0.0,0.0,0.0,0.0,0.0,0.0,0.0,0.0,0.0,0.0,0.0,0.0,0.0,0.0,0.0,0.0,0.0,0.0,0.0,0.0,0.0,0.0,0.0,0.0,0.0,0.0,0.0,-3.2916,-3.38,-3.3839,0.0,-3.3389,0.0,0.0,0.0,0.0,0.0,0.0,0.0,0.0,0.0,0.0,0.0,0.0,0.0,0.0,0.0,0.0,0.0,0.0,0.0,0.0,0.0,0.0,0.0,0.0,0.0,0.0,0.0,0.0,0.0,0.0,0.0,0.0,0.0,0.0,0.0,0.0,0.0,0.0,0.0,0.0,0.0,0.0,0.0,0.0,0.0,0.0,0.0,0.0,0.0,0.0,0.0,0.0,0.0,0.0,0.0,0.0,0.0,0.0,0.0,0.0,0.0,0.0,0.0,0.0,0.0,0.0,0.0,0.0,0.0,0.0,0.0,0.0,0.0,0.0,0.0,0.0,0.0,0.0,0.0,0.0,0.0,0.0,0.0,0.0,0.0,0.0,0.0,0.0,0.0,0.0,0.0,0.0,0.0,0.0,0.0,0.0,0.0,0.0,0.0,0.0,0.0,0.0,0.0,0.0,0.0,0.0,0.0,0.0,0.0,0.0,-3.2929,-3.3808,-3.4042,-3.4106,0.0,0.0,0.0,0.0,0.0,0.0,0.0,0.0,0.0,0.0,0.0,0.0,0.0,0.0,0.0,0.0,0.0,0.0,0.0,0.0,0.0,0.0,0.0,0.0,0.0,0.0,0.0,0.0,0.0,0.0,0.0,0.0,0.0,0.0,0.0,0.0,0.0,0.0,0.0,0.0,0.0,0.0,0.0,0.0,0.0,0.0,0.0,0.0,0.0,0.0,0.0,0.0,0.0,0.0,0.0,0.0,0.0,0.0,0.0,0.0,0.0,0.0,0.0,0.0,0.0,0.0,0.0,0.0,0.0,0.0,0.0,0.0,0.0,0.0,0.0,0.0,0.0,0.0,0.0,0.0,0.0,0.0,0.0,0.0,0.0,0.0,0.0,0.0,0.0,0.0,0.0,0.0,0.0,0.0,0.0,0.0,0.0,0.0,0.0,0.0,0.0,0.0,0.0,0.0,0.0,0.0,0.0,0.0,0.0,0.0,-3.2923,-3.3461,-3.4267,-3.4622,-3.4757,-3.4781,0.0,0.0,0.0,0.0,0.0,0.0,0.0,0.0,0.0,0.0,0.0,0.0,0.0,0.0,0.0,0.0,0.0,0.0,0.0,0.0,0.0,0.0,0.0,0.0,0.0,0.0,0.0,0.0,0.0,0.0,0.0,0.0,0.0,0.0,0.0,0.0,0.0,0.0,0.0,0.0,0.0,0.0,0.0,0.0,0.0,0.0,0.0,0.0,0.0,0.0,0.0,0.0,0.0,0.0,0.0,0.0,0.0,0.0,0.0,0.0,0.0,0.0,0.0,0.0,0.0,0.0,0.0,0.0,0.0,0.0,0.0,0.0,0.0,0.0,0.0,0.0,0.0,0.0,0.0,0.0,0.0,0.0,0.0,0.0,0.0,0.0,0.0,0.0,0.0,0.0,0.0,0.0,0.0,0.0,0.0,0.0,0.0,0.0,0.0,0.0,0.0,0.0,0.0,0.0,0.0,0.0,0.0,0.0,-3.3354,-3.4023,-3.4873,-3.5805,-3.6088,-3.598,0.0,0.0,0.0,0.0,0.0,0.0,0.0,0.0,0.0,0.0,0.0,0.0,0.0,0.0,0.0,0.0,0.0,0.0,0.0,0.0,0.0,0.0,0.0,0.0,0.0,0.0,0.0,0.0,0.0,0.0,0.0,0.0,0.0,0.0,0.0,0.0,0.0,0.0,0.0,0.0,0.0,0.0,0.0,0.0,0.0,0.0,0.0,0.0,0.0,0.0,0.0,0.0,0.0,0.0,0.0,0.0,0.0,0.0,0.0,0.0,0.0,0.0,0.0,0.0,0.0,0.0,0.0,0.0,0.0,0.0,0.0,0.0,0.0,0.0,0.0,0.0,0.0,0.0,0.0,0.0,0.0,0.0,0.0,0.0,0.0,0.0,0.0,0.0,0.0,0.0,0.0,0.0,0.0,0.0,0.0,0.0,0.0,0.0,0.0,0.0,0.0,0.0,0.0,0.0,0.0,0.0,0.0,0.0,0.0,-3.3422,-3.4553,-3.544,-3.5844,-3.6105,-3.6207,0.0,0.0,0.0,0.0,0.0,0.0,0.0,0.0,0.0,0.0,0.0,0.0,0.0,0.0,0.0,0.0,0.0,0.0,0.0,0.0,0.0,0.0,0.0,0.0,0.0,0.0,0.0,0.0,0.0,0.0,0.0,0.0,0.0,0.0,0.0,0.0,0.0,0.0,0.0,0.0,0.0,0.0,0.0,0.0,0.0,0.0,0.0,0.0,0.0,0.0,0.0,0.0,0.0,0.0,0.0,0.0,0.0,0.0,0.0,0.0,0.0,0.0,0.0,0.0,0.0,0.0,0.0,0.0,0.0,0.0,0.0,0.0,0.0,0.0,0.0,0.0,0.0,0.0,0.0,0.0,0.0,0.0,0.0,0.0,0.0,0.0,0.0,0.0,0.0,0.0,0.0,0.0,0.0,0.0,0.0,0.0,0.0,0.0,0.0,0.0,0.0,0.0,0.0,0.0,0.0,0.0,0.0,0.0,0.0,-3.4105,0.0,-3.5667,-3.5756,-3.6019,-3.626,0.0,0.0,0.0,0.0,0.0,0.0,0.0,0.0,0.0,0.0,0.0,0.0,0.0,0.0,0.0,0.0,0.0,0.0,0.0,0.0,0.0,0.0,0.0,0.0,0.0,0.0,0.0,0.0,0.0,0.0,0.0,0.0,0.0,0.0,0.0,0.0,0.0,0.0,0.0,0.0,0.0,0.0,0.0,0.0,0.0,0.0,0.0,0.0,0.0,0.0,0.0,0.0,0.0,0.0,0.0,0.0,0.0,0.0,0.0,0.0,0.0,0.0,0.0,0.0,0.0,0.0,0.0,0.0,0.0,0.0,0.0,0.0,0.0,0.0,0.0,0.0,0.0,0.0,0.0,0.0,0.0,0.0,0.0,0.0,0.0,0.0,0.0,0.0,0.0,0.0,0.0,0.0,0.0,0.0,0.0,0.0,0.0,0.0,0.0,0.0,0.0,0.0,0.0,0.0,0.0,0.0,0.0,0.0,-3.4134,-3.552,-3.5622,-3.5667,-3.5756,-3.5932,-3.614,0.0,0.0,0.0,0.0,0.0,0.0,0.0,0.0,0.0,0.0,0.0,0.0,0.0,0.0,0.0,0.0,0.0,0.0,0.0,0.0,0.0,0.0,0.0,0.0,0.0,0.0,0.0,0.0,0.0,0.0,0.0,0.0,0.0,0.0,0.0,0.0,0.0,0.0,0.0,0.0,0.0,0.0,0.0,0.0,0.0,0.0,0.0,0.0,0.0,0.0,0.0,0.0,0.0,0.0,0.0,0.0,0.0,0.0,0.0,0.0,0.0,0.0,0.0,0.0,0.0,0.0,0.0,0.0,0.0,0.0,0.0,0.0,0.0,0.0,0.0,0.0,0.0,0.0,0.0,0.0,0.0,0.0,0.0,0.0,0.0,0.0,0.0,0.0,0.0,0.0,0.0,0.0,0.0,0.0,0.0,0.0,0.0,0.0,0.0,0.0,0.0,0.0,0.0,0.0,0.0,0.0,0.0,0.0,0.0,-3.5622,-3.5622,-3.5622,-3.5667,-3.5888,-3.6096,0.0,0.0,0.0,0.0,0.0,0.0,0.0,0.0,0.0,0.0,0.0,0.0,0.0,0.0,0.0,0.0,0.0,0.0,0.0,0.0,0.0,0.0,0.0,0.0,0.0,0.0,0.0,0.0,0.0,0.0,0.0,0.0,0.0,0.0,0.0,0.0,0.0,0.0,0.0,0.0,0.0,0.0,0.0,0.0,0.0,0.0,0.0,0.0,0.0,0.0,0.0,0.0,0.0,0.0,0.0,0.0,0.0,0.0,0.0,0.0,0.0,0.0,0.0,0.0,0.0,0.0,0.0,0.0,0.0,0.0,0.0,0.0,0.0,0.0,0.0,0.0,0.0,0.0,0.0,0.0,0.0,0.0,0.0,0.0,0.0,0.0,0.0,0.0,0.0,0.0,0.0,0.0,0.0,0.0,0.0,0.0,0.0,0.0,0.0,0.0,0.0,0.0,0.0,0.0,0.0,0.0,0.0,0.0,0.0,-3.6073,-3.6028,-3.6062,-3.6028,-3.6287,-3.6361,-3.6199,0.0,0.0,0.0,0.0,0.0,0.0,0.0,0.0,0.0,0.0,0.0,0.0,0.0,0.0,0.0,0.0,0.0,0.0,0.0,0.0,0.0,0.0,0.0,0.0,0.0,0.0,0.0,0.0,0.0,0.0,0.0,0.0,0.0,0.0,0.0,0.0,0.0,0.0,0.0,0.0,0.0,0.0,0.0,0.0,0.0,0.0,0.0,0.0,0.0,0.0,0.0,0.0,0.0,0.0,0.0,0.0,0.0,0.0,0.0,0.0,0.0,0.0,0.0,0.0,0.0,0.0,0.0,0.0,0.0,0.0,0.0,0.0,0.0,0.0,0.0,0.0,0.0,0.0,0.0,0.0,0.0,0.0,0.0,0.0,0.0,0.0,0.0,0.0,0.0,0.0,0.0,0.0,0.0,0.0,0.0,0.0,0.0,0.0,0.0,0.0,0.0,0.0,0.0,0.0,0.0,0.0,0.0,0.0,-3.6956,-3.6966,-3.692,-3.6886,-3.7002,-3.683,0.0,0.0,0.0,0.0,0.0,0.0,0.0,0.0,0.0,0.0,0.0,0.0,0.0,0.0,0.0,0.0,0.0,0.0,0.0,0.0,0.0,0.0,0.0,0.0,0.0,0.0,0.0,0.0,0.0,0.0,0.0,0.0,0.0,0.0,0.0,0.0,0.0,0.0,0.0,0.0,0.0,0.0,0.0,0.0,0.0,0.0,0.0,0.0,0.0,0.0,0.0,0.0,0.0,0.0,0.0,0.0,0.0,0.0,0.0,0.0,0.0,0.0,0.0,0.0,0.0,0.0,0.0,0.0,0.0,0.0,0.0,0.0,0.0,0.0,0.0,0.0,0.0,0.0,0.0,0.0,0.0,0.0,0.0,0.0,0.0,0.0,0.0,0.0,0.0,0.0,0.0,0.0,0.0,0.0,0.0,0.0,0.0,0.0,0.0,0.0,0.0,0.0,0.0,0.0,0.0,0.0,0.0,0.0,0.0,-3.798,-3.8504,-3.8397,-3.7806,-3.732,-3.709,0.0,0.0,0.0,0.0,0.0,0.0,0.0,0.0,0.0,0.0,0.0,0.0,0.0,0.0,0.0,0.0,0.0,0.0,0.0,0.0,0.0,0.0,0.0,0.0,0.0,0.0,0.0,0.0,0.0,0.0,0.0,0.0,0.0,0.0,0.0,0.0,0.0,0.0,0.0,0.0,0.0,0.0,0.0,0.0,0.0,0.0,0.0,0.0,0.0,0.0,0.0,0.0,0.0,0.0,0.0,0.0,0.0,0.0,0.0,0.0,0.0,0.0,0.0,0.0,0.0,0.0,0.0,0.0,0.0,0.0,0.0,0.0,0.0,0.0,0.0,0.0,0.0,0.0,0.0,0.0,0.0,0.0,0.0,0.0,0.0,0.0,0.0,0.0,0.0,0.0,0.0,0.0,0.0,0.0,0.0,0.0,0.0,0.0,0.0,0.0,0.0,0.0,0.0,0.0,0.0,0.0,0.0,0.0,-3.7948,-3.9088,-3.9802,-4.01,-3.9996,-3.8745,-3.7854,0.0,0.0,0.0,0.0,0.0,0.0,0.0,0.0,0.0,0.0,0.0,0.0,0.0,0.0,0.0,0.0,0.0,0.0,0.0,0.0,0.0,0.0,0.0,0.0,0.0,0.0,0.0,0.0,0.0,0.0,0.0,0.0,0.0,0.0,0.0,0.0,0.0,0.0,0.0,0.0,0.0,0.0,0.0,0.0,0.0,0.0,0.0,0.0,0.0,0.0,0.0,0.0,0.0,0.0,0.0,0.0,0.0,0.0,0.0,0.0,0.0,0.0,0.0,0.0,0.0,0.0,0.0,0.0,0.0,0.0,0.0,0.0,0.0,0.0,0.0,0.0,0.0,0.0,0.0,0.0,0.0,0.0,0.0,0.0,0.0,0.0,0.0,0.0,0.0,0.0,0.0,0.0,0.0,0.0,0.0,0.0,0.0,0.0,0.0,0.0,0.0,0.0,0.0,0.0,0.0,0.0,0.0,0.0,-3.8504,-4.0254,-4.1056,-4.1869,-4.2614,-4.077,-3.9055,0.0,0.0,0.0,0.0,0.0,0.0,0.0,0.0,0.0,0.0,0.0,0.0,0.0,0.0,0.0,0.0,0.0,0.0,0.0,0.0,0.0,0.0,0.0,0.0,0.0,0.0,0.0,0.0,0.0,0.0,0.0,0.0,0.0,0.0,0.0,0.0,0.0,0.0,0.0,0.0,0.0,0.0,0.0,0.0,0.0,0.0,0.0,0.0,0.0,0.0,0.0,0.0,0.0,0.0,0.0,0.0,0.0,0.0,0.0,0.0,0.0,0.0,0.0,0.0,0.0,0.0,0.0,0.0,0.0,0.0,0.0,0.0,0.0,0.0,0.0,0.0,0.0,0.0,0.0,0.0,0.0,0.0,0.0,0.0,0.0,0.0,0.0,0.0,0.0,0.0,0.0,0.0,0.0,0.0,0.0,0.0,0.0,0.0,0.0,0.0,0.0,0.0,0.0,0.0,0.0,0.0,0.0,0.0,-3.9701,-4.1376,-4.2096,-4.2822,-4.357,-4.1858,-4.0516,0.0,0.0,0.0,0.0,0.0,0.0,0.0,0.0,0.0,0.0,0.0,0.0,0.0,0.0,0.0,0.0,0.0,0.0,0.0,0.0,0.0,0.0,0.0,0.0,0.0,0.0,0.0,0.0,0.0,0.0,0.0,0.0,0.0,0.0,0.0,0.0,0.0,0.0,0.0,0.0,0.0,0.0,0.0,0.0,0.0,0.0,0.0,0.0,-4.886,0.0,0.0,0.0,0.0,0.0,0.0,0.0,0.0,0.0,0.0,0.0,0.0,0.0,0.0,0.0,0.0,0.0,0.0,0.0,0.0,0.0,0.0,0.0,0.0,0.0,0.0,0.0,0.0,0.0,0.0,0.0,0.0,0.0,0.0,0.0,0.0,0.0,0.0,0.0,0.0,0.0,0.0,0.0,0.0,0.0,0.0,0.0,0.0,0.0,0.0,0.0,0.0,0.0,0.0,0.0,0.0,0.0,0.0,0.0,-4.0151,-4.1881,-4.3006,-4.3819,-4.4182,-4.3305,-4.2216,0.0,0.0,0.0,0.0,0.0,0.0,0.0,0.0,0.0,0.0,0.0,0.0,0.0,0.0,0.0,0.0,0.0,0.0,0.0,0.0,0.0,0.0,0.0,0.0,0.0,0.0,0.0,0.0,0.0,0.0,0.0,0.0,0.0,0.0,0.0,0.0,0.0,0.0,0.0,0.0,0.0,0.0,0.0,0.0,0.0,0.0,0.0,0.0,0.0,0.0,0.0,0.0,0.0,0.0,0.0,0.0,0.0,0.0,0.0,0.0,0.0,0.0,0.0,0.0,0.0,0.0,0.0,0.0,0.0,0.0,0.0,0.0,0.0,0.0,0.0,0.0,0.0,0.0,0.0,0.0,0.0,0.0,0.0,0.0,0.0,0.0,0.0,0.0,0.0,0.0,0.0,0.0,0.0,0.0,0.0,0.0,0.0,0.0,0.0,0.0,0.0,0.0,0.0,0.0,0.0,0.0,0.0,-3.9476,-4.0453,-4.2263,-4.3764,-4.4626,-4.4785,-4.4634,-4.3784,-4.2161,0.0,0.0,0.0,0.0,0.0,0.0,0.0,0.0,0.0,0.0,0.0,0.0,0.0,0.0,0.0,0.0,0.0,0.0,0.0,0.0,0.0,0.0,0.0,0.0,0.0,0.0,0.0,0.0,0.0,0.0,0.0,0.0,0.0,0.0,0.0,0.0,0.0,0.0,-5.218,-5.2292,0.0,0.0,0.0,0.0,0.0,0.0,0.0,0.0,-5.1672,0.0,0.0,0.0,0.0,0.0,0.0,0.0,0.0,0.0,0.0,0.0,0.0,0.0,0.0,0.0,0.0,0.0,0.0,0.0,0.0,0.0,0.0,0.0,0.0,0.0,0.0,0.0,0.0,0.0,0.0,0.0,0.0,0.0,0.0,0.0,0.0,0.0,0.0,0.0,0.0,0.0,0.0,0.0,0.0,0.0,0.0,0.0,0.0,0.0,0.0,0.0,0.0,0.0,0.0,0.0,0.0,-3.9696,-4.0375,-4.1552,-4.3208,-4.4135,-4.4971,-4.5702,-4.5094,-4.465,-4.4333,0.0,0.0,0.0,0.0,0.0,0.0,0.0,0.0,0.0,0.0,0.0,0.0,0.0,0.0,0.0,0.0,0.0,0.0,0.0,0.0,0.0,0.0,0.0,0.0,0.0,0.0,0.0,0.0,0.0,0.0,0.0,0.0,0.0,0.0,0.0,0.0,0.0,0.0,0.0,-5.5044,-5.489,0.0,0.0,0.0,0.0,0.0,0.0,0.0,0.0,-5.2907,0.0,0.0,0.0,0.0,0.0,0.0,0.0,0.0,0.0,0.0,0.0,0.0,0.0,0.0,0.0,0.0,0.0,0.0,0.0,0.0,0.0,0.0,0.0,0.0,0.0,0.0,0.0,0.0,0.0,0.0,0.0,0.0,0.0,0.0,0.0,0.0,0.0,0.0,0.0,0.0,0.0,0.0,0.0,0.0,0.0,0.0,0.0,0.0,0.0,0.0,0.0,0.0,0.0,0.0,0.0,-3.9932,-4.1185,-4.2369,-4.3632,-4.4814,-4.5645,-4.6083,-4.5329,-4.497,0.0,0.0,0.0,0.0,0.0,0.0,0.0,0.0,0.0,0.0,0.0,0.0,0.0,0.0,0.0,0.0,0.0,0.0,0.0,0.0,0.0,0.0,0.0,0.0,0.0,0.0,0.0,0.0,0.0,0.0,0.0,0.0,0.0,0.0,0.0,0.0,0.0,0.0,0.0,0.0,-5.6798,-5.6983,-5.6534,0.0,0.0,0.0,0.0,0.0,0.0,-5.5314,-5.5201,0.0,0.0,0.0,0.0,0.0,0.0,0.0,0.0,0.0,0.0,0.0,0.0,0.0,0.0,0.0,0.0,0.0,0.0,0.0,0.0,0.0,0.0,0.0,0.0,0.0,0.0,0.0,0.0,0.0,0.0,0.0,0.0,0.0,0.0,0.0,0.0,0.0,0.0,0.0,0.0,0.0,0.0,0.0,0.0,0.0,0.0,0.0,0.0,0.0,0.0,0.0,0.0,0.0,0.0,0.0,-4.0374,-4.1916,-4.3176,-4.4047,-4.545,-4.6205,-4.6212,-4.5456,-4.5101,0.0,0.0,0.0,0.0,0.0,0.0,0.0,0.0,0.0,0.0,0.0,0.0,0.0,0.0,0.0,0.0,0.0,0.0,0.0,0.0,0.0,0.0,0.0,0.0,0.0,0.0,0.0,0.0,0.0,0.0,0.0,0.0,0.0,0.0,0.0,0.0,0.0,0.0,0.0,0.0,0.0,-5.8669,-5.8703,-5.8703,0.0,0.0,0.0,0.0,-5.7257,-5.7586,0.0,0.0,0.0,0.0,0.0,0.0,0.0,0.0,0.0,0.0,0.0,0.0,0.0,0.0,0.0,0.0,0.0,0.0,0.0,0.0,0.0,0.0,0.0,0.0,0.0,0.0,0.0,0.0,0.0,0.0,0.0,0.0,0.0,0.0,0.0,0.0,0.0,0.0,0.0,0.0,0.0,0.0,0.0,0.0,0.0,0.0,0.0,0.0,0.0,0.0,0.0,0.0,0.0,0.0,0.0,0.0,-4.1276,-4.2861,-4.4047,-4.4839,-4.5737,-4.6248,-4.626,-4.5626,-4.5312,0.0,0.0,0.0,0.0,0.0,0.0,0.0,0.0,0.0,0.0,0.0,0.0,0.0,0.0,0.0,0.0,0.0,0.0,0.0,0.0,0.0,0.0,0.0,0.0,0.0,0.0,0.0,0.0,0.0,0.0,0.0,0.0,0.0,0.0,0.0,0.0,0.0,0.0,0.0,0.0,0.0,-5.9673,-5.9739,-5.9766,-5.9558,0.0,0.0,-5.8471,-5.7642,-5.8851,0.0,0.0,0.0,0.0,0.0,0.0,0.0,0.0,0.0,0.0,0.0,0.0,0.0,0.0,0.0,0.0,0.0,0.0,0.0,0.0,0.0,0.0,0.0,0.0,0.0,0.0,0.0,0.0,0.0,0.0,0.0,0.0,0.0,0.0,0.0,0.0,0.0,0.0,0.0,0.0,0.0,0.0,0.0,0.0,0.0,0.0,0.0,0.0,0.0,0.0,0.0,0.0,0.0,0.0,0.0,-4.0673,-4.1071,-4.3382,-4.4863,-4.5188,-4.6374,-4.7108,-4.7192,-4.6041,-4.5469,0.0,0.0,0.0,0.0,0.0,0.0,0.0,0.0,0.0,0.0,0.0,0.0,0.0,0.0,0.0,0.0,0.0,0.0,0.0,0.0,0.0,0.0,0.0,0.0,0.0,0.0,0.0,0.0,0.0,0.0,0.0,0.0,0.0,0.0,0.0,0.0,0.0,0.0,0.0,0.0,0.0,0.0,-6.0811,-6.1597,0.0,0.0,0.0,-6.0959,-6.0555,0.0,0.0,0.0,0.0,0.0,0.0,0.0,0.0,0.0,0.0,0.0,0.0,0.0,0.0,0.0,0.0,0.0,0.0,0.0,0.0,0.0,0.0,0.0,0.0,0.0,0.0,0.0,0.0,0.0,0.0,0.0,0.0,0.0,0.0,0.0,0.0,0.0,0.0,0.0,0.0,0.0,0.0,0.0,0.0,0.0,0.0,0.0,0.0,0.0,0.0,0.0,0.0,0.0,0.0,0.0,0.0,0.0,-4.1359,-4.4011,-4.5461,-4.5715,-4.7057,-4.7824,-4.7947,-4.6458,0.0,0.0,0.0,0.0,0.0,0.0,0.0,0.0,0.0,0.0,0.0,0.0,0.0,0.0,0.0,0.0,0.0,0.0,0.0,0.0,0.0,0.0,0.0,0.0,0.0,0.0,0.0,-4.5125,0.0,0.0,0.0,0.0,0.0,0.0,0.0,0.0,0.0,0.0,0.0,0.0,0.0,0.0,-6.2737,-6.2414,-6.3442,-6.4045,0.0,0.0,-6.2803,-6.2803,-6.2459,-6.184,0.0,0.0,0.0,0.0,0.0,0.0,0.0,0.0,0.0,0.0,0.0,0.0,0.0,0.0,0.0,0.0,0.0,0.0,0.0,0.0,0.0,0.0,0.0,0.0,0.0,0.0,0.0,0.0,0.0,0.0,0.0,0.0,0.0,0.0,0.0,0.0,0.0,0.0,0.0,0.0,0.0,0.0,0.0,0.0,0.0,0.0,0.0,0.0,0.0,0.0,0.0,0.0,0.0,0.0,0.0,-4.3032,-4.4672,-4.5911,-4.6676,-4.7514,-4.8068,-4.8187,-4.6652,-4.592,0.0,0.0,0.0,0.0,0.0,0.0,0.0,0.0,0.0,0.0,0.0,0.0,0.0,0.0,0.0,0.0,0.0,0.0,0.0,0.0,0.0,0.0,0.0,0.0,0.0,0.0,0.0,0.0,0.0,0.0,0.0,0.0,0.0,0.0,0.0,0.0,0.0,0.0,0.0,0.0,0.0,-6.4089,-6.4946,-6.5137,-6.5245,0.0,0.0,-6.2921,-6.305,-6.3646,-6.357,-6.2017,0.0,0.0,0.0,0.0,0.0,0.0,0.0,0.0,0.0,0.0,0.0,0.0,0.0,0.0,0.0,0.0,0.0,0.0,0.0,0.0,0.0,0.0,0.0,0.0,0.0,0.0,0.0,0.0,0.0,0.0,0.0,0.0,0.0,0.0,0.0,0.0,0.0,0.0,0.0,0.0,0.0,0.0,0.0,0.0,0.0,0.0,0.0,0.0,0.0,0.0,0.0,0.0,0.0,-4.1592,-4.2693,-4.4747,-4.5919,-4.6247,-4.7492,-4.8226,-4.8265,-4.7279,-4.658,0.0,0.0,0.0,0.0,0.0,0.0,0.0,0.0,0.0,0.0,0.0,0.0,0.0,0.0,0.0,0.0,0.0,0.0,0.0,0.0,0.0,0.0,0.0,0.0,0.0,0.0,0.0,0.0,-4.6184,-4.6797,-4.8485,0.0,0.0,0.0,0.0,0.0,0.0,0.0,0.0,0.0,0.0,-6.4488,-6.535,-6.6413,0.0,0.0,-6.5753,-6.5207,-6.4742,-6.455,-6.4243,-6.3604,-6.3066,0.0,0.0,0.0,0.0,0.0,0.0,0.0,0.0,0.0,0.0,0.0,0.0,0.0,0.0,0.0,0.0,0.0,0.0,0.0,0.0,0.0,0.0,0.0,0.0,0.0,0.0,0.0,0.0,0.0,0.0,0.0,0.0,0.0,0.0,0.0,0.0,0.0,0.0,0.0,0.0,0.0,0.0,0.0,0.0,0.0,0.0,0.0,0.0,0.0,0.0,0.0,0.0,-4.1815,-4.2881,-4.4923,-4.5993,-4.5956,-4.7537,-4.842,-4.8458,-4.7794,-4.7165,0.0,0.0,0.0,0.0,0.0,0.0,0.0,0.0,0.0,0.0,0.0,0.0,0.0,0.0,0.0,0.0,0.0,0.0,0.0,0.0,0.0,0.0,0.0,0.0,0.0,0.0,0.0,0.0,-4.7261,-4.7991,-4.9183,0.0,0.0,0.0,0.0,0.0,0.0,0.0,0.0,0.0,0.0,-6.5092,-6.6249,-6.7438,-6.7899,-6.7083,-6.6737,-6.6381,-6.5872,-6.5295,-6.4834,-6.4653,0.0,0.0,0.0,0.0,0.0,0.0,0.0,0.0,0.0,0.0,0.0,0.0,0.0,0.0,0.0,0.0,0.0,0.0,0.0,0.0,0.0,0.0,0.0,0.0,0.0,0.0,0.0,0.0,0.0,0.0,-3.4289,0.0,0.0,0.0,0.0,0.0,0.0,0.0,0.0,0.0,0.0,0.0,0.0,0.0,0.0,0.0,0.0,0.0,0.0,0.0,0.0,0.0,0.0,-4.2261,-4.3949,-4.5456,-4.6202,-4.6308,-4.7792,-4.8642,-4.8787,-4.8009,-4.7633,-4.7765,0.0,0.0,0.0,0.0,0.0,0.0,0.0,0.0,0.0,0.0,0.0,0.0,0.0,0.0,0.0,0.0,0.0,0.0,0.0,0.0,0.0,0.0,0.0,0.0,0.0,0.0,-4.6954,-4.8458,-4.9444,0.0,0.0,0.0,0.0,0.0,0.0,0.0,0.0,0.0,0.0,-6.4523,-6.6211,-6.7917,-6.829,-6.801,-6.7256,-6.6436,-6.5909,-6.6029,-6.5928,-6.5658,0.0,0.0,0.0,0.0,0.0,0.0,0.0,0.0,0.0,0.0,0.0,0.0,0.0,0.0,0.0,0.0,0.0,0.0,0.0,0.0,0.0,0.0,0.0,0.0,0.0,0.0,0.0,-3.7964,-3.662,0.0,0.0,0.0,0.0,0.0,0.0,0.0,0.0,0.0,0.0,0.0,-3.6539,-3.7544,0.0,0.0,0.0,0.0,0.0,0.0,0.0,0.0,0.0,0.0,0.0,0.0,-4.3058,-4.4177,-4.5717,-4.6504,-4.6545,-4.8103,-4.8959,-4.8925,-4.8732,-4.8688,-4.8791,0.0,0.0,0.0,0.0,0.0,0.0,0.0,0.0,0.0,0.0,0.0,0.0,0.0,0.0,0.0,0.0,0.0,0.0,0.0,0.0,0.0,0.0,0.0,0.0,0.0,-4.7835,0.0,0.0,0.0,0.0,0.0,0.0,0.0,0.0,0.0,0.0,0.0,-5.9771,-6.3723,-6.4701,-6.5702,-6.7422,-6.8154,-6.8423,0.0,0.0,0.0,0.0,0.0,0.0,0.0,0.0,0.0,0.0,0.0,0.0,0.0,0.0,-6.3342,-6.247,-6.2236,-6.2386,-6.2905,0.0,0.0,0.0,0.0,0.0,0.0,0.0,0.0,0.0,0.0,0.0,0.0,0.0,0.0,-3.9349,0.0,-3.7358,0.0,0.0,0.0,0.0,0.0,0.0,0.0,0.0,-3.7194,-3.7686,-3.7945,-3.8915,-3.9643,0.0,-4.0338,-4.0279,0.0,0.0,0.0,0.0,0.0,0.0,0.0,0.0,-4.3614,-4.4766,-4.6053,-4.6813,-4.7186,-4.8786,-4.9575,-4.9471,-4.9903,-5.0156,-5.0202,-4.9814,-4.9401,0.0,0.0,0.0,0.0,0.0,0.0,0.0,0.0,0.0,0.0,0.0,0.0,0.0,0.0,0.0,0.0,0.0,0.0,0.0,0.0,0.0,0.0,0.0,-4.911,0.0,0.0,0.0,0.0,0.0,0.0,0.0,0.0,0.0,-5.8896,-5.9341,-6.0751,-6.4363,-6.5093,-6.5749,-6.7183,0.0,0.0,0.0,0.0,0.0,0.0,0.0,-6.8548,-6.8509,-6.9225,-6.9749,-6.9769,-6.9341,-6.8812,-6.8334,0.0,0.0,-6.5488,-6.5045,-6.5122,-6.5373,-6.6007,-6.6483,-6.646,-6.7147,-6.7716,0.0,0.0,0.0,0.0,0.0,0.0,0.0,0.0,-4.1461,-4.0638,0.0,-3.8099,0.0,0.0,0.0,0.0,0.0,-3.7804,0.0,0.0,-3.896,-3.9762,-4.046,-4.0436,-4.1207,-4.261,-4.1765,-4.1694,-4.2221,-4.0691,0.0,0.0,0.0,0.0,0.0,0.0,-4.4102,-4.5697,-4.6487,-4.7249,-4.8166,-4.9674,-5.043,-5.0501,-5.1415,-5.1935,-5.1918,-5.2123,-5.1579,-5.0114,-5.0089,0.0,0.0,0.0,0.0,0.0,0.0,0.0,0.0,0.0,0.0,0.0,0.0,0.0,0.0,0.0,0.0,0.0,0.0,0.0,0.0,-4.9394,0.0,0.0,0.0,0.0,0.0,0.0,0.0,0.0,0.0,0.0,-5.859,-6.0162,-6.2138,-6.4676,0.0,0.0,0.0,0.0,-6.8586,-6.7909,-6.8524,-6.9101,-6.914,-6.9872,-7.037,-7.0409,0.0,0.0,-7.1669,-7.1777,-7.1792,-7.1792,-7.1743,-7.099,-6.8513,-6.792,-6.8023,-6.8704,-6.9459,-7.0098,-7.0135,-7.0634,-7.1224,-5.1435,0.0,0.0,0.0,0.0,-4.4742,-4.4012,-4.3221,-4.3032,-4.2116,-4.0678,-4.021,0.0,0.0,0.0,0.0,0.0,0.0,-3.8573,-3.9071,-3.9798,-4.06,-4.137,-4.1855,-4.2335,-4.2654,-4.2383,-4.2341,-4.2503,-4.198,-4.1798,-4.193,0.0,0.0,0.0,0.0,-4.5632,-4.6779,-4.8025,-4.8858,-4.9243,-5.0691,-5.1523,-5.1625,-5.2536,-5.305,-5.3025,-5.327,-5.3156,-5.2699,-5.2209,0.0,0.0,0.0,0.0,0.0,0.0,0.0,0.0,0.0,0.0,0.0,0.0,0.0,0.0,0.0,0.0,0.0,0.0,0.0,-5.1353,-5.1558,-5.1491,0.0,0.0,0.0,0.0,0.0,0.0,0.0,0.0,0.0,-6.0346,-6.1045,-6.2298,0.0,0.0,-6.67,-6.757,-6.8929,-6.9977,-7.0399,-7.072,0.0,-7.1753,-7.2107,-7.229,-7.2315,-7.3522,-7.4314,-7.3715,-7.4116,-7.435,-7.3765,-7.4127,-7.4272,-7.3522,-7.1821,-7.0766,-7.0907,-7.1552,-7.2047,-7.2168,-7.32,-7.3994,-5.3715,-5.1955,-4.997,-4.8522,-4.7501,-4.6726,-4.5726,-4.4585,-4.4653,-4.3693,-4.2045,-4.1771,-4.1023,-4.0071,-4.0062,0.0,0.0,0.0,-4.0597,-4.1013,-4.1749,-4.2318,-4.2771,-4.3212,-4.3542,-4.3732,-4.3365,-4.345,-4.4106,-4.4083,-4.4174,-4.4379,0.0,0.0,-4.5682,-4.6156,-4.6986,-4.8145,-4.9114,-4.9951,-5.0659,-5.1902,-5.2762,-5.3132,-5.377,-5.4095,-5.4073,-5.4258,-5.421,-5.3925,-5.3566,-5.2778,0.0,0.0,0.0,0.0,0.0,0.0,0.0,0.0,0.0,0.0,0.0,-4.977,-5.0312,0.0,0.0,0.0,-5.2441,-5.2969,-5.3011,-5.302,0.0,0.0,0.0,0.0,0.0,0.0,0.0,-5.626,-5.81,-5.9824,-6.1364,-6.2707,-6.4115,-6.5556,-6.6786,-6.7875,-6.8759,0.0,-7.117,-7.2054,-7.251,-7.2965,-7.3484,-7.3898,-7.4361,-7.5055,-7.6313,-7.7053,-7.6586,-7.6897,-7.7063,-7.6682,-7.6917,-7.7258,-7.7238,-7.5881,-7.456,-7.3938,-7.4403,-7.4919,-7.4966,-7.6022,-7.6747,-5.532,-5.3584,-5.1197,-5.0098,-4.9815,-4.9109,-4.7829,-4.6254,-4.6257,-4.5333,-4.3677,-4.2939,-4.2549,-4.251,-4.249,0.0,-4.2442,-4.3148,-4.3471,-4.3563,-4.4215,-4.4491,-4.4504,-4.4512,-4.4804,-4.5381,-4.4651,-4.5006,-4.6351,-4.6466,-4.6938,-4.7638,-4.5975,-4.5885,-4.7257,-4.7408,-4.8239,-4.9816,-4.9977,-5.0786,-5.2391,-5.3187,-5.4035,-5.4874,-5.4979,-5.5076,-5.5102,-5.5195,-5.4918,-5.425,-5.4265,-5.3964,-5.3255,0.0,0.0,0.0,0.0,0.0,0.0,0.0,0.0,0.0,0.0,0.0,0.0,0.0,0.0,0.0,-5.339,0.0,-5.3896,-5.3905,0.0,0.0,0.0,-5.4047,-5.4183,-5.5627,-5.6686,-5.6875,0.0,0.0,-6.1907,-6.4833,-6.6867,-6.6813,-6.8242,-6.9656,-7.0497,-7.1459,-7.2315,-7.3258,-7.4031,-7.4626,-7.4878,-7.5611,-7.6622,-7.7972,-7.9065,-7.94,-7.9422,-7.9431,-7.9557,-7.9409,-7.9635,-7.9704,-7.9782,-7.9695,-7.9413,-7.7857,-7.7845,-7.8168,-7.8076,-7.8723,-7.9197,-5.567,-5.4594,-5.339,-5.173,-4.9925,-4.9741,-4.872,-4.7203,-4.7196,-4.6235,-4.4674,-4.4421,-4.3977,-4.34,-4.3378,-4.3373,-4.3383,-4.35,-4.3919,-4.4443,-4.4548,-4.4853,-4.5411,-4.5953,-4.5935,-4.5512,-4.6532,-4.6912,-4.6619,-4.7166,-4.7884,-4.86,-4.8199,-4.815,-4.8504,-4.9022,-4.9868,-5.0968,-5.2115,-5.3194,-5.4224,-5.4553,-5.5113,-5.589,-5.5483,-5.5538,-5.6168,-5.5696,-5.5331,-5.5176,-5.5275,-5.4951,-5.4143,-5.4053,0.0,0.0,0.0,0.0,0.0,0.0,0.0,0.0,0.0,-5.318,-5.3185,0.0,-5.3254,0.0,-5.4333,-5.4888,-5.4857,-5.4874,0.0,0.0,-5.4872,-5.5432,-5.6719,-5.7226,-5.824,-6.0191,-6.1088,-6.2336,-6.4326,-6.6432,-6.8031,-6.8592,-7.0142,-7.1312,-7.1594,-7.3456,-7.4899,-7.5152,-7.5833,-7.6622,-7.7324,-7.8188,-7.884,-7.9313,-7.9572,-7.9665,-7.9704,-7.9689,-7.9694,-7.9717,-8.0257,-8.0868,-8.1507,-8.2148,-8.267,-8.2655,-8.0982,-7.9227,-7.9244,-7.9895,-8.026,-5.6136,-5.4971,-5.4517,-5.3063,-5.1035,-5.0675,-4.9771,-4.8593,-4.8591,-4.7868,-4.6614,-4.6235,-4.5591,-4.4855,-4.5201,-4.5406,-4.5416,-4.5747,-4.6144,-4.6528,-4.6413,-4.659,-4.6931,-4.7289,-4.7199,-4.6742,-4.7607,-4.8143,-4.837,-4.8805,-4.9602,-5.0765,-5.0741,-5.0718,-5.0718,-5.0647,-5.1254,-5.2498,-5.3677,-5.4704,-5.5617,-5.5739,-5.5984,-5.6415,-5.6155,-5.6014,-5.6155,-5.5792,-5.5621,-5.5651,-5.5728,-5.5594,-5.5075,-5.4859,-5.452,0.0,0.0,0.0,0.0,0.0,0.0,0.0,0.0,0.0,0.0,0.0,-5.4749,-5.5506,-5.6051,-5.6519,-5.6878,-5.6932,-5.6939,-5.6953,-5.7271,-5.7908,-5.885,-5.967,-6.0684,-6.205,-6.2909,-6.3923,-6.5406,-6.7397,-6.8841,-6.9309,-7.1494,-7.3094,-7.3197,-7.4663,-7.5911,-7.6326,-7.7082,-7.7941,-7.8838,-7.9707,-8.027,-8.0309,-8.0615,-8.084,-8.0855,-8.0875,-8.0847,-8.0922,-8.1578,-8.231,-8.2807,-8.3555,-8.4307,-8.4424,-8.332,-8.1968,-8.1451,-8.1675,-8.1821,-5.6563,-5.5009,-5.5007,-5.4097,-5.2611,-5.1852,-5.0918,-4.9926,-4.9984,-4.9504,-4.8663,-4.7859,-4.708,-4.641,-4.7138,-4.7501,-4.7546,-4.8398,-4.8737,-4.8694,-4.873,-4.8681,-4.8476,-4.8593,-4.8523,-4.8337,-4.8491,-4.9317,-5.0604,-5.0794,-5.1579,-5.2976,-5.2992,-5.3069,-5.3146,-5.2245,-5.2527,-5.4104,-5.4791,-5.5619,-5.6613,-5.6499,-5.6563,-5.683,-5.675,-5.6391,-5.583,-5.5737,-5.5787,-5.5962,-5.604,-5.6136,-5.6212,-5.5586,-5.5265,0.0,-5.4749,0.0,0.0,0.0,0.0,0.0,0.0,0.0,0.0,-5.5662,-5.6308,-5.7843,-5.7946,-5.8258,-5.9014,-5.9098,-5.9183,-5.943,-6.0099,-6.0656,-6.09,-6.2267,-6.3243,-6.3477,-6.4843,-6.5819,-6.6214,-6.8249,-6.9733,-7.0079,-7.2656,-7.4597,-7.4733,-7.5428,-7.6326,-7.714,-7.8122,-7.9092,-7.9816,-8.07,-8.1405,-8.1444,-8.207,-8.2615,-8.2628,-8.2636,-8.2612,-8.2694,-8.32,-8.3779,-8.3896,-8.4599,-8.5107,-8.5299,-8.5065,-8.4585,-8.3802,-8.3553,-8.367,-5.6537,-5.5022,-5.5046,-5.4474,-5.3552,-5.3428,-5.2083,-4.9971,-4.9979,-4.9504,-4.8669,-4.7812,-4.7345,-4.7198,-4.7345,-4.7439,-4.7469,-4.8312,-4.8677,-4.8651,-4.9323,-4.9225,-4.8632,-4.9819,-4.9671,-4.8491,-5.0374,-5.1105,-5.0721,-5.203,-5.2838,-5.3144,-5.3037,-5.3376,-5.3989,0.0,0.0,0.0,-5.5339,-5.5861,-5.6688,-5.605,-5.6405,-5.7719,-5.656,0.0,-5.6688,-5.619,-5.6191,-5.6875,-5.7069,0.0,0.0,0.0,0.0,0.0,0.0,0.0,0.0,0.0,0.0,0.0,-5.8335,-5.8082,-5.8267,-5.8267,-5.8394,-5.8732,-5.8749,-5.8835,-5.8999,-5.9066,-5.9664,-6.103,-6.1359,-6.1993,-6.336,-6.3867,-6.457,-6.6019,-6.6449,-6.7156,-6.8499,-7.0338,-7.1431,-7.1549,-7.3915,-7.5506,-7.5618,-7.632,-7.7146,-7.8063,-7.9391,-8.0445,-8.0739,-8.2061,-8.2945,-8.3229,-8.3818,-8.4333,-8.4296,-8.4334,-8.4375,-8.4336,-8.4531,-8.4883,-8.5547,-8.5859,-8.6209,-8.6865,-8.6474,-8.569,-8.4823,-8.4628,-8.4624,-5.6819,0.0,-5.5755,-5.5298,0.0,-5.4515,-5.3564,-5.1927,-5.1951,-5.1178,-4.9897,-4.9517,-4.9089,-4.8699,-4.8669,-4.8919,-4.9372,-4.98,-5.0213,-5.0586,-5.0977,-5.1172,-5.1161,-5.1916,-5.1803,-5.1001,-5.2244,-5.2768,-5.272,-5.3563,-5.4203,-5.4554,-5.4535,-5.494,-5.575,-5.6225,-5.6137,-5.5531,-5.5506,-5.6181,-5.742,-5.7113,-5.7505,-5.8781,-5.8077,0.0,0.0,0.0,0.0,0.0,0.0,0.0,0.0,0.0,0.0,-6.0034,-5.9748,-5.9733,-6.011,-6.0233,-6.0468,-6.0848,-6.1305,-6.1197,-6.036,-6.0672,-6.0915,-6.0902,-6.0551,-6.0481,-6.0878,-6.0984,-6.1543,-6.2792,-6.3349,-6.4028,-6.486,-6.568,-6.6504,-6.7324,-6.7863,-6.8492,-6.9293,-7.0505,-7.1522,-7.2031,-7.3867,-7.5586,-7.6326,-7.6868,-7.7573,-7.8826,-7.9687,-8.0664,-8.1559,-8.271,-8.3621,-8.3677,-8.4307,-8.4819,-8.4905,-8.4918,-8.4883,-8.4922,-8.5234,-8.582,-8.664,-8.7148,-8.7695,-8.8396,-8.8043,-8.7379,-8.6793,-8.6129,-8.5539,-5.7644,-5.6853,-5.6917,-5.6535,-5.5872,-5.5879,-5.5386,-5.4573,0.0,0.0,0.0,-5.1576,-5.1139,-5.046,-5.0447,-5.0852,-5.1515,-5.1686,-5.2107,-5.2823,-5.2903,-5.3263,-5.3788,-5.3902,-5.3819,-5.3659,-5.392,-5.4381,-5.4984,-5.5312,-5.5854,-5.6411,-5.6466,-5.6869,-5.755,-5.824,-5.7811,-5.6225,-5.6071,-5.6862,-5.8479,-5.8402,-5.8732,-5.9605,-5.9531,-5.9321,-5.8877,-5.8874,-5.9033,-5.9385,-5.9381,-5.9832,-6.073,-6.0812,-6.1085,-6.1756,-6.1256,-6.1237,-6.1889,-6.2045,-6.2383,-6.3101,-6.392,-6.3756,-6.2188,-6.2726,-6.3124,-6.3109,-6.2469,-6.2383,-6.307,-6.3208,-6.3572,-6.4359,-6.515,-6.5677,-6.6086,-6.7224,-6.8123,-6.8554,-6.9174,-6.9716,-6.9961,-7.0897,-7.1638,-7.2528,-7.4154,-7.5584,-7.6974,-7.7769,-7.8552,-7.9703,-8.028,-8.0821,-8.2203,-8.3287,-8.3816,-8.4167,-8.487,-8.5332,-8.5345,-8.5452,-8.5545,-8.5781,-8.6289,-8.7148,-8.7812,-8.8437,-8.914,-8.9844,-8.9453,-8.8945,-8.8827,-8.7849,-8.6914,-5.9366,-5.8618,-5.8624,-5.857,-5.8492,-5.852,-5.8058,-5.7082,-5.4879,-5.3748,-5.3481,-5.2721,-5.2356,-5.2255,-5.2263,-5.2294,-5.2464,-5.3126,-5.3497,-5.3662,-5.4383,-5.4383,-5.3846,-5.4486,-5.4412,-5.3831,-5.5152,-5.589,-5.6149,-5.7482,-5.8298,-5.8362,-5.8343,-5.8389,-5.8506,-5.8562,-5.8505,-5.8264,-5.8143,-5.8567,-5.9553,-5.8798,-5.8838,-5.9688,-5.9166,-5.9106,-5.9782,-5.9885,-6.0584,-6.1949,-6.2104,-6.2546,-6.3376,-6.3431,-6.3542,-6.3709,-6.367,-6.3652,-6.3711,-6.3803,-6.3917,-6.413,-6.4854,-6.4864,-6.3943,-6.3925,-6.4012,-6.4037,-6.3943,-6.3964,-6.409,-6.4162,-6.458,-6.5306,-6.5546,-6.6149,-6.7577,-6.8078,-6.8765,-7.0054,-7.0416,-7.0855,-7.1554,-7.2951,-7.3963,-7.4396,-7.5829,-7.7218,-7.8161,-7.9508,-8.0456,-8.0844,-8.1451,-8.2299,-8.3158,-8.4095,-8.4792,-8.5651,-8.6353,-8.69,-8.6939,-8.7459,-8.783,-8.8124,-8.8633,-8.9258,-8.9609,-8.9726,-8.9922,-9.0156,-9.0,-8.9803,-8.9822,-8.9495,-8.9158,-5.9404,-5.9077,-5.9066,-5.9039,-5.9039,-5.909,-5.89,-5.8426,-5.725,-5.5912,-5.4651,-5.4663,-5.4462,-5.4014,-5.4014,-5.4008,-5.3993,-5.3915,-5.4134,-5.4576,-5.4983,-5.5217,-5.5277,-5.5658,-5.5823,-5.5847,-5.662,-5.7231,-5.7741,-5.8515,-5.8915,-5.8919,-5.9763,-6.045,-6.0903,-6.1369,-6.1564,-6.1589,-5.9614,-5.921,-6.0517,-6.0166,-6.061,-6.1905,-6.1663,-6.1718,-6.2134,-6.2235,-6.2627,-6.3391,-6.3429,-6.4079,-6.5372,-6.5477,-6.5883,-6.6811,-6.6525,-6.6307,-6.6291,-6.5881,-6.5677,-6.5759,-6.6453,-6.6766,-6.6344,-6.5868,-6.541,-6.501,-6.534,-6.5663,-6.5663,-6.6053,-6.6727,-6.7565,-6.7672,-6.7991,-6.8748,-6.9316,-6.9879,-7.066,-7.1529,-7.2236,-7.2627,-7.4218,-7.5506,-7.6024,-7.781,-7.9209,-7.917,-8.0587,-8.1534,-8.1139,-8.1356,-8.2124,-8.3347,-8.4239,-8.5097,-8.5963,-8.6822,-8.7525,-8.7954,-8.8501,-8.8826,-8.9314,-8.9755,-9.0151,-9.0543,-9.0703,-9.0895,-9.1324,-9.0973,-9.077,-9.0716,-9.07,-9.0398,-6.0126,-5.9982,-5.9959,-5.9885,-5.969,-5.969,-5.9573,-5.9378,-5.9378,-5.8153,-5.6335,-5.6792,-5.6714,-5.6113,-5.6074,-5.5957,-5.5717,-5.5093,-5.5042,-5.5464,-5.5496,-5.5957,-5.673,-5.6808,-5.7165,-5.7858,-5.816,-5.8618,-5.916,-5.9436,-5.9679,-5.9921,-6.1139,-6.2229,-6.3064,-6.3769,-6.4081,-6.392,-6.1312,-6.0462,-6.1756,-6.188,-6.2531,-6.3759,-6.3962,-6.4131,-6.4323,-6.4375,-6.4598,-6.4958,-6.4958,-6.5695,-6.7139,-6.7275,-6.7907,-6.9093,-6.8742,-6.8379,-6.8366,-6.782,-6.749,-6.7494,-6.8044,-6.8398,-6.8358,-6.7765,-6.7117,-6.6579,-6.7025,-6.7382,-6.7461,-6.7929,-6.867,-6.9297,-6.941,-6.953,-6.9947,-7.0592,-7.1206,-7.1597,-7.2768,-7.3549,-7.3861,-7.5071,-7.6516,-7.7765,-7.9639,-8.0615,-8.0296,-8.1467,-8.217,-8.1812,-8.1563,-8.2382,-8.3763,-8.4654,-8.5426,-8.623,-8.6971,-8.7596,-8.8142,-8.8461,-8.9047,-8.9717,-9.0159,-9.0681,-9.1384,-9.158,-9.1814,-9.2243,-9.197,-9.1658,-9.1887,-9.2189,-9.1804,-6.3247,-6.2675,-6.2574,-6.2189,-6.1486,-6.1447,-6.1017,-6.0354,-6.0276,-5.9729,-5.8827,-5.8831,-5.8831,-5.8748,-5.867,-5.8241,-5.7538,-5.749,-5.706,-5.6441,-5.638,-5.6861,-5.7634,-5.7666,-5.8087,-5.888,-5.962,-5.9971,-6.0195,-6.0945,-6.1724,-6.2455,-6.2689,-6.3195,-6.3935,-6.4101,-6.414,-6.4091,-6.3769,-6.3624,-6.3728,-6.3742,-6.3845,-6.4048,-6.4137,-6.4481,-6.5289,-6.528,-6.603,-6.7452,-6.7569,-6.8043,-6.8933,-6.906,-6.9177,-6.9405,-6.9351,-6.9277,-6.9299,-6.9221,-6.9163,-6.9179,-6.9247,-6.9347,-6.9303,-6.923,-6.9166,-6.9023,-6.906,-6.9088,-6.9186,-6.9269,-6.9472,-6.9716,-6.9671,-7.0006,-7.1446,-7.1831,-7.2495,-7.4095,-7.4212,-7.4369,-7.4603,-7.5969,-7.7648,-7.9131,-8.042,-8.1194,-8.1024,-8.2265,-8.3428,-8.3302,-8.3263,-8.3926,-8.5253,-8.579,-8.6189,-8.6987,-8.7299,-8.7542,-8.7823,-8.8416,-8.9008,-9.0047,-9.0765,-9.1474,-9.206,-9.245,-9.245,-9.2528,-9.2567,-9.2685,-9.3426,-9.4005,-9.3829,-6.3995,-6.3728,-6.3745,-6.3555,-6.3204,-6.2696,-6.2267,-6.1915,-6.1369,-6.1252,-6.1408,-6.1417,-6.0561,-5.9195,-5.9616,-5.9378,-5.8597,-5.8553,-5.8397,-5.805,-5.8041,-5.822,-5.852,-5.8598,-5.9014,-5.9779,-6.02,-6.059,-6.1144,-6.1954,-6.3038,-6.4324,-6.4441,-6.4861,-6.5582,-6.5688,-6.5892,-6.639,-6.6455,-6.6689,-6.6954,-6.5679,-6.5124,-6.5631,-6.6165,-6.6619,-6.7025,-6.7493,-6.8092,-6.8762,-6.8819,-6.9209,-7.0075,-7.0135,-7.0381,-7.0855,-7.0927,-7.0935,-7.0931,-7.0937,-7.0697,-7.0217,-7.1151,-7.1299,-7.0348,-7.1089,-7.149,-7.0956,-7.0483,-7.0162,-7.023,-7.0621,-7.1134,-7.1568,-7.1719,-7.2182,-7.3315,-7.3471,-7.3822,-7.4486,-7.4954,-7.5266,-7.5579,-7.7257,-7.9014,-8.0381,-8.1545,-8.2195,-8.1914,-8.3155,-8.4337,-8.4863,-8.498,-8.5224,-8.5898,-8.6005,-8.6434,-8.7078,-8.736,-8.7399,-8.811,-8.8852,-8.971,-9.053,-9.1319,-9.1943,-9.2364,-9.252,-9.252,-9.2646,-9.3114,-9.3504,-9.4411,-9.4831,-9.4614,-6.5178,-6.4593,-6.437,-6.4297,-6.4258,-6.3633,-6.336,-6.3282,-6.2657,-6.2774,-6.3321,-6.3334,-6.2361,-6.0757,-6.0944,-6.0744,-6.0159,-5.9651,-5.9456,-5.9417,-5.9222,-5.9329,-5.9748,-5.9826,-6.0405,-6.1322,-6.1502,-6.19,-6.2648,-6.3265,-6.4505,-6.5987,-6.6221,-6.6603,-6.7326,-6.7469,-6.779,-6.8288,-6.8422,-6.8749,-6.9036,-6.7546,-6.6837,-6.7446,-6.8092,-6.8457,-6.845,-6.9054,-6.9533,-6.9733,-6.9767,-7.0158,-7.0987,-7.1044,-7.1437,-7.2248,-7.2578,-7.2691,-7.273,-7.2713,-7.2461,-7.1948,-7.2983,-7.3139,-7.2305,-7.2924,-7.3275,-7.2768,-7.2104,-7.1753,-7.1519,-7.2182,-7.2963,-7.3549,-7.3627,-7.3978,-7.472,-7.4876,-7.4954,-7.5227,-7.6086,-7.675,-7.7375,-7.8897,-8.0341,-8.1272,-8.2507,-8.3311,-8.2951,-8.3986,-8.5331,-8.5921,-8.6311,-8.6584,-8.6373,-8.6401,-8.6713,-8.732,-8.7721,-8.8033,-8.8745,-8.9525,-9.0189,-9.0823,-9.171,-9.2256,-9.2461,-9.25,-9.2685,-9.2997,-9.366,-9.4518,-9.5231,-9.5494,-9.5678,-6.776,-6.5585,-6.4687,-6.4492,-6.4336,-6.4297,-6.4297,-6.4414,-6.4223,-6.4223,-6.4379,-6.434,-6.4219,-6.4023,-6.336,-6.2891,-6.2579,-6.1174,-6.051,-6.0427,-5.969,-6.0071,-6.1543,-6.1621,-6.2395,-6.3592,-6.3662,-6.4248,-6.5152,-6.5347,-6.6283,-6.789,-6.7922,-6.8344,-6.8968,-6.9085,-6.9202,-6.9241,-6.9419,-6.9465,-6.951,-6.9327,-6.9288,-6.9366,-6.9333,-6.9411,-6.9411,-6.9411,-6.985,-7.0644,-7.0753,-7.1104,-7.1861,-7.199,-7.2383,-7.3203,-7.397,-7.4413,-7.4418,-7.4388,-7.4353,-7.4374,-7.4486,-7.4486,-7.4095,-7.4369,-7.4447,-7.4369,-7.433,-7.4056,-7.351,-7.3783,-7.4251,-7.4408,-7.4447,-7.4837,-7.5657,-7.5852,-7.6164,-7.6828,-7.7648,-7.8663,-8.0302,-8.0849,-8.1272,-8.2039,-8.2968,-8.3575,-8.3927,-8.4997,-8.5999,-8.652,-8.7326,-8.8105,-8.7365,-8.7378,-8.7741,-8.8182,-8.8584,-8.8752,-8.9387,-8.9993,-9.049,-9.0919,-9.1387,-9.1855,-9.2295,-9.2685,-9.3025,-9.3677,-9.503,-9.5927,-9.6421,-9.6967,-9.7266,-6.8898,-6.7966,-6.7107,-6.7068,-6.742,-6.6405,-6.6209,-6.6644,-6.6162,-6.624,-6.6696,-6.6722,-6.7029,-6.7498,-6.6639,-6.5351,-6.3867,-6.3164,-6.2891,-6.2852,-6.2579,-6.2774,-6.3277,-6.3355,-6.3623,-6.4169,-6.4281,-6.4977,-6.6271,-6.6862,-6.7754,-6.8723,-6.8925,-6.9068,-6.9366,-6.9894,-7.0206,-7.0317,-7.1267,-7.163,-7.124,-7.2143,-7.2495,-7.1909,-7.1363,-7.1056,-7.1069,-7.2115,-7.2627,-7.2408,-7.29,-7.3338,-7.3631,-7.3665,-7.3768,-7.4119,-7.4432,-7.4853,-7.5305,-7.5389,-7.5355,-7.5423,-7.593,-7.5696,-7.4993,-7.5462,-7.593,-7.5657,-7.6438,-7.675,-7.636,-7.5384,-7.472,-7.5227,-7.5345,-7.5735,-7.6516,-7.7101,-7.7609,-7.796,-7.8702,-7.9711,-8.0602,-8.0953,-8.1485,-8.2795,-8.3752,-8.4629,-8.5777,-8.6884,-8.7651,-8.83,-8.8923,-8.9235,-8.9001,-8.8884,-8.904,-8.917,-8.9417,-8.9456,-8.9859,-9.0482,-9.1067,-9.1249,-9.1496,-9.2068,-9.2731,-9.3288,-9.3599,-9.4549,-9.5937,-9.7067,-9.7715,-9.8167,-9.8657,-6.9567,-6.9645,-6.8903,-6.8864,-6.9255,-6.8161,-6.7966,-6.844,-6.7877,-6.7958,-6.8449,-6.8518,-6.8864,-6.9255,-6.8786,-6.7654,-6.5936,-6.5155,-6.4843,-6.5038,-6.4531,-6.457,-6.5038,-6.5116,-6.5273,-6.5546,-6.5814,-6.6829,-6.8312,-6.8775,-6.9556,-7.0609,-7.0654,-7.0766,-7.1065,-7.1663,-7.1943,-7.2249,-7.3153,-7.3398,-7.3052,-7.3993,-7.4496,-7.4179,-7.3822,-7.3369,-7.2921,-7.3998,-7.4349,-7.3897,-7.431,-7.4595,-7.4606,-7.4857,-7.5032,-7.5032,-7.5282,-7.5794,-7.6555,-7.6672,-7.675,-7.7062,-7.7531,-7.7375,-7.6399,-7.7296,-7.7531,-7.7492,-7.7999,-7.8819,-7.8507,-7.7218,-7.632,-7.6672,-7.6867,-7.714,-7.7492,-7.8272,-7.8858,-7.9242,-7.9711,-8.0438,-8.1165,-8.1594,-8.2279,-8.3391,-8.4384,-8.566,-8.6689,-8.7845,-8.8637,-8.9299,-8.9791,-9.0103,-9.0181,-9.0259,-9.0156,-9.0287,-9.0248,-9.0248,-9.0546,-9.113,-9.1466,-9.1622,-9.2036,-9.2643,-9.325,-9.38,-9.4578,-9.5452,-9.6715,-9.7961,-9.8626,-9.9347,-9.96,-6.9957,-7.0543,-6.9762,-6.9489,-6.9606,-6.9372,-6.9372,-6.9489,-6.9455,-6.946,-6.9572,-6.9489,-6.9606,-6.9567,-6.9606,-6.9372,-6.8747,-6.7029,-6.6366,-6.6678,-6.539,-6.5507,-6.6795,-6.6834,-6.7185,-6.7888,-6.8847,-7.0141,-7.1435,-7.1026,-7.1533,-7.2918,-7.3075,-7.3309,-7.4408,-7.4251,-7.4452,-7.4486,-7.4686,-7.4735,-7.4634,-7.491,-7.5373,-7.5941,-7.661,-7.6316,-7.4844,-7.4865,-7.4978,-7.4763,-7.479,-7.4684,-7.4935,-7.5501,-7.593,-7.6125,-7.6633,-7.7453,-7.8233,-7.8311,-7.8624,-7.9092,-7.9522,-7.9366,-7.9131,-7.9366,-7.9522,-7.9444,-7.9639,-7.9795,-7.9834,-7.96,-7.9092,-7.8624,-7.8819,-7.8936,-7.8702,-7.917,-8.0023,-8.0712,-8.1055,-8.1321,-8.2123,-8.2972,-8.3625,-8.4111,-8.5192,-8.6389,-8.7027,-8.8183,-8.8559,-8.9075,-9.0112,-9.0968,-9.1319,-9.1592,-9.1412,-9.1311,-9.1169,-9.1169,-9.1553,-9.2059,-9.2238,-9.2432,-9.2983,-9.3566,-9.4093,-9.4737,-9.5768,-9.6721,-9.7869,-9.8841,-9.956,-10.0123,-10.0218,-7.1363,-7.148,-7.066,-7.066,-7.105,-7.0582,-7.0621,-7.1173,-7.1197,-7.1202,-7.1194,-7.119,-7.1182,-7.1206,-7.1167,-7.0855,-7.0309,-6.9996,-6.9528,-6.863,-6.8005,-6.8044,-6.8513,-6.863,-6.8747,-6.9098,-6.9874,-7.0889,-7.1903,-7.2333,-7.3114,-7.4017,-7.4212,-7.433,-7.472,-7.5169,-7.549,-7.5603,-7.6644,-7.699,-7.6575,-7.7532,-7.8001,-7.7786,-7.8476,-7.8617,-7.8141,-7.812,-7.7547,-7.6469,-7.6914,-7.6941,-7.6501,-7.6566,-7.7023,-7.757,-7.7843,-7.839,-7.9131,-7.9287,-7.9405,-7.9678,-7.9756,-7.9717,-7.9795,-8.0341,-8.0615,-8.0693,-8.1122,-8.1474,-8.1513,-8.1513,-8.0888,-7.9444,-7.9522,-7.9756,-7.9678,-8.0094,-8.1133,-8.2405,-8.2669,-8.2816,-8.3225,-8.415,-8.527,-8.5831,-8.691,-8.7923,-8.9157,-8.9586,-9.0531,-9.1053,-9.1659,-9.1663,-9.1762,-9.1839,-9.178,-9.1832,-9.1848,-9.1903,-9.2338,-9.2866,-9.3004,-9.3375,-9.394,-9.4465,-9.501,-9.5807,-9.6856,-9.7808,-9.8819,-9.9652,-10.0446,-10.0796,-10.0951,-7.2495,-7.2378,-7.1558,-7.148,-7.1948,-7.1402,-7.148,-7.2032,-7.2369,-7.2489,-7.2518,-7.283,-7.2978,-7.2963,-7.2963,-7.2651,-7.226,-7.2729,-7.2383,-7.1295,-7.0548,-7.0543,-7.0777,-7.0855,-7.1285,-7.1753,-7.2065,-7.2612,-7.3393,-7.3666,-7.4218,-7.4931,-7.5095,-7.5482,-7.5936,-7.6532,-7.6938,-7.7415,-7.8308,-7.8621,-7.8436,-7.9139,-7.9452,-7.9139,-7.975,-8.0146,-8.0191,-8.0465,-7.988,-7.8553,-7.8621,-7.8557,-7.8141,-7.8088,-7.8311,-7.8741,-7.8936,-7.9248,-8.0068,-8.0185,-8.0498,-8.0927,-8.1122,-8.1161,-8.1278,-8.1903,-8.2293,-8.2098,-8.2723,-8.323,-8.323,-8.323,-8.2677,-8.1773,-8.1389,-8.1278,-8.1513,-8.1726,-8.2405,-8.3479,-8.3625,-8.3644,-8.4128,-8.5325,-8.6533,-8.7248,-8.8261,-8.9157,-9.0404,-9.0741,-9.1342,-9.1759,-9.186,-9.186,-9.1993,-9.2032,-9.2053,-9.2229,-9.2441,-9.2576,-9.2869,-9.357,-9.394,-9.4446,-9.5009,-9.5475,-9.5999,-9.6931,-9.7881,-9.883,-9.9724,-10.0501,-10.1262,-10.1666,-10.1861,-7.3315,-7.3197,-7.2417,-7.2026,-7.2026,-7.2026,-7.2104,-7.226,-7.3008,-7.3359,-7.351,-7.4023,-7.4413,-7.4486,-7.429,-7.4251,-7.4525,-7.4486,-7.4496,-7.3998,-7.3174,-7.2768,-7.3041,-7.3041,-7.3705,-7.4837,-7.4569,-7.4921,-7.5579,-7.5155,-7.5204,-7.6232,-7.6441,-7.687,-7.7985,-7.844,-7.878,-7.9452,-7.9687,-7.9762,-7.9816,-7.9918,-7.9968,-7.9949,-8.0631,-8.1083,-8.1167,-8.1647,-8.1378,-7.9981,-7.9655,-7.9522,-7.9639,-7.9678,-7.9554,-7.9873,-7.9873,-8.0459,-8.1005,-8.1474,-8.1942,-8.3113,-8.3308,-8.3504,-8.3269,-8.3575,-8.3809,-8.3302,-8.3926,-8.4512,-8.4551,-8.459,-8.4544,-8.4693,-8.3756,-8.3692,-8.4551,-8.3974,-8.3937,-8.4384,-8.41,-8.3894,-8.4922,-8.639,-8.7326,-8.7988,-8.9118,-9.0092,-9.0429,-9.0984,-9.1036,-9.1393,-9.1859,-9.185,-9.1936,-9.1936,-9.1983,-9.2261,-9.2675,-9.3279,-9.3513,-9.4174,-9.5029,-9.5532,-9.5861,-9.6344,-9.7082,-9.7937,-9.8792,-9.9685,-10.0501,-10.1356,-10.1822,-10.2171,-10.2288,-7.3315,-7.3275,-7.3041,-7.2573,-7.2143,-7.2651,-7.2924,-7.308,-7.3783,-7.4056,-7.4246,-7.4408,-7.4603,-7.4525,-7.4564,-7.4525,-7.4759,-7.5227,-7.5501,-7.5545,-7.578,-7.5032,-7.4369,-7.4251,-7.4525,-7.4954,-7.5087,-7.5365,-7.6677,-7.6644,-7.7229,-7.8679,-7.8512,-7.8789,-7.9334,-7.9373,-7.9801,-8.0547,-8.0664,-8.1015,-8.1479,-8.153,-8.1591,-8.1636,-8.1831,-8.1915,-8.1929,-8.2188,-8.1825,-8.0743,-7.9996,-7.9717,-7.9873,-7.9899,-8.0485,-8.1428,-8.1617,-8.2202,-8.3386,-8.3699,-8.4011,-8.4362,-8.4473,-8.4161,-8.3522,-8.3717,-8.3748,-8.3545,-8.377,-8.42,-8.4668,-8.4863,-8.5097,-8.5478,-8.498,-8.4824,-8.5322,-8.4941,-8.4724,-8.5441,-8.539,-8.5663,-8.6507,-8.791,-8.9196,-8.9897,-9.0702,-9.152,-9.1412,-9.1442,-9.1645,-9.1682,-9.1944,-9.1849,-9.1812,-9.1838,-9.1915,-9.2173,-9.2891,-9.3974,-9.4268,-9.4734,-9.5744,-9.6616,-9.6538,-9.6888,-9.7859,-9.883,-9.9685,-10.0345,-10.1239,-10.1938,-10.2055,-10.2288,-10.2288,-7.3315,-7.3236,-7.2924,-7.2456,-7.2065,-7.2534,-7.2729,-7.2924,-7.3627,-7.4212,-7.4486,-7.4915,-7.5266,-7.5579,-7.5618,-7.5618,-7.5657,-7.6125,-7.632,-7.6516,-7.7179,-7.6789,-7.5969,-7.593,-7.6164,-7.6203,-7.6532,-7.7325,-7.8071,-7.8227,-7.8852,-7.9441,-7.9725,-7.9883,-8.0273,-8.0659,-8.0996,-8.1523,-8.1875,-8.2265,-8.2304,-8.2292,-8.2276,-8.231,-8.2305,-8.2305,-8.2315,-8.2299,-8.2059,-8.163,-8.1356,-8.1278,-8.1356,-8.1662,-8.2319,-8.3334,-8.3327,-8.3802,-8.4512,-8.4824,-8.4973,-8.5247,-8.5317,-8.5083,-8.4841,-8.4841,-8.5028,-8.42,-8.4668,-8.5127,-8.5273,-8.5614,-8.6033,-8.6384,-8.6061,-8.6022,-8.6501,-8.5777,-8.5753,-8.6235,-8.6546,-8.6819,-8.7637,-8.9274,-9.0312,-9.0999,-9.1583,-9.1981,-9.2126,-9.219,-9.2132,-9.1983,-9.1888,-9.1812,-9.1953,-9.203,-9.2393,-9.2613,-9.358,-9.4606,-9.5195,-9.5606,-9.6228,-9.7005,-9.7121,-9.751,-9.8442,-9.9297,-9.9957,-10.0734,-10.1705,-10.221,-10.2288,-10.2288,-10.2288,-7.3348,-7.3231,-7.245,-7.2138,-7.2177,-7.2255,-7.2606,-7.2651,-7.3627,-7.433,-7.4954,-7.5657,-7.6242,-7.7101,-7.675,-7.6984,-7.6984,-7.6906,-7.6984,-7.7296,-7.7882,-7.796,-7.7257,-7.7882,-7.8194,-7.835,-7.9293,-7.9512,-7.9644,-7.9726,-7.9882,-8.0194,-8.0195,-8.0429,-8.1133,-8.1914,-8.2339,-8.2324,-8.2922,-8.289,-8.2461,-8.2295,-8.232,-8.232,-8.2305,-8.2293,-8.2293,-8.2293,-8.2254,-8.2293,-8.3074,-8.3269,-8.3504,-8.4362,-8.4739,-8.481,-8.4817,-8.4941,-8.5137,-8.5364,-8.5465,-8.609,-8.6189,-8.6063,-8.6003,-8.6276,-8.6159,-8.5028,-8.6354,-8.6453,-8.6395,-8.688,-8.7298,-8.7403,-8.739,-8.7481,-8.727,-8.6662,-8.6429,-8.7092,-8.7209,-8.7754,-8.8728,-8.9936,-9.113,-9.1451,-9.1981,-9.2087,-9.2151,-9.2112,-9.2028,-9.1912,-9.1812,-9.1798,-9.1976,-9.2247,-9.2766,-9.3271,-9.4511,-9.5538,-9.6283,-9.6694,-9.6927,-9.7199,-9.7199,-9.7743,-9.8714,-9.9491,-10.0112,-10.1045,-10.1977,-10.221,-10.2288,-10.2288,-10.2288,-7.386,-7.3197,-7.3041,-7.2963,-7.3072,-7.3665,-7.4304,-7.4915,-7.5774,-7.6047,-7.6477,-7.6711,-7.6867,-7.7101,-7.7101,-7.7101,-7.7101,-7.714,-7.7101,-7.7296,-7.8741,-7.8858,-7.8507,-7.9131,-7.9405,-7.9528,-7.9582,-8.0063,-8.0537,-8.0778,-8.1054,-8.1597,-8.1601,-8.1797,-8.2109,-8.2929,-8.2969,-8.2614,-8.319,-8.3193,-8.2537,-8.2331,-8.231,-8.2305,-8.2339,-8.2332,-8.2293,-8.2293,-8.2293,-8.2489,-8.3074,-8.3738,-8.4245,-8.4661,-8.5129,-8.5598,-8.5824,-8.6105,-8.662,-8.6683,-8.687,-8.694,-8.6922,-8.6717,-8.6063,-8.6258,-8.6219,-8.579,-8.6122,-8.6579,-8.6896,-8.7689,-8.8079,-8.8235,-8.8651,-8.8845,-8.8274,-8.7456,-8.7131,-8.7248,-8.7793,-8.8534,-8.9391,-9.0287,-9.1194,-9.1786,-9.2048,-9.2151,-9.2073,-9.2028,-9.196,-9.1863,-9.1851,-9.1798,-9.1953,-9.2379,-9.3052,-9.3724,-9.4962,-9.5849,-9.6632,-9.7199,-9.7199,-9.7199,-9.7199,-9.7976,-9.8947,-9.953,-10.0112,-10.1161,-10.2133,-10.221,-10.2288,-10.2288,-10.2288,-7.3025,-7.2587,-7.2604,-7.2565,-7.2721,-7.3484,-7.4164,-7.4694,-7.5514,-7.6138,-7.645,-7.6489,-7.6685,-7.7036,-7.7043,-7.7043,-7.7153,-7.7543,-7.8136,-7.8884,-7.9938,-8.0218,-8.042,-8.0576,-8.0771,-8.0459,-8.0782,-8.1217,-8.1495,-8.1625,-8.1826,-8.23,-8.2649,-8.2851,-8.3164,-8.4101,-8.4336,-8.3828,-8.3901,-8.3784,-8.3046,-8.2495,-8.2315,-8.2456,-8.2645,-8.2762,-8.2371,-8.2723,-8.2833,-8.299,-8.3302,-8.3699,-8.4284,-8.498,-8.5644,-8.5995,-8.6542,-8.68,-8.726,-8.736,-8.7302,-8.7341,-8.732,-8.7058,-8.6765,-8.6658,-8.6424,-8.6258,-8.6405,-8.6841,-8.7222,-8.7949,-8.8417,-8.8664,-8.926,-8.9363,-8.8662,-8.8091,-8.7598,-8.752,-8.7949,-8.8754,-8.965,-9.0531,-9.1319,-9.1914,-9.2091,-9.2152,-9.2071,-9.1983,-9.1936,-9.1902,-9.1851,-9.1863,-9.1941,-9.2419,-9.3258,-9.4084,-9.5103,-9.5732,-9.6244,-9.6771,-9.7199,-9.7199,-9.7238,-9.817,-9.9063,-9.9569,-10.0268,-10.1472,-10.221,-10.2288,-10.2288,-10.2288,-10.2288,-7.214,-7.1906,-7.1885,-7.194,-7.2182,-7.289,-7.3466,-7.3826,-7.4363,-7.5455,-7.5893,-7.598,-7.6565,-7.6886,-7.7004,-7.7043,-7.7441,-7.8144,-7.9127,-8.0119,-8.0821,-8.1187,-8.1623,-8.1786,-8.1786,-8.1317,-8.1747,-8.2137,-8.2176,-8.2293,-8.2203,-8.2415,-8.2949,-8.3226,-8.3828,-8.5,-8.5234,-8.4414,-8.4804,-8.4336,-8.3437,-8.2734,-8.2571,-8.2432,-8.2762,-8.2996,-8.2762,-8.3068,-8.349,-8.367,-8.3685,-8.3692,-8.4083,-8.5097,-8.619,-8.63,-8.6956,-8.7213,-8.7273,-8.727,-8.7286,-8.7247,-8.7222,-8.7234,-8.7253,-8.7185,-8.6922,-8.6834,-8.693,-8.7442,-8.7468,-8.8506,-8.8987,-8.9196,-8.9699,-8.9629,-8.9123,-8.8842,-8.8506,-8.7493,-8.7946,-8.8803,-8.9644,-9.0485,-9.1292,-9.1976,-9.2113,-9.2151,-9.2066,-9.1999,-9.1936,-9.1912,-9.1863,-9.1902,-9.1941,-9.2508,-9.3333,-9.39,-9.4956,-9.5522,-9.5917,-9.6305,-9.6733,-9.7121,-9.7471,-9.8287,-9.8947,-9.9491,-10.0423,-10.1744,-10.2249,-10.2288,-10.2288,-10.2288,-10.2288,-7.3106,-7.1827,-7.1833,-7.2234,-7.2851,-7.3066,-7.4002,-7.5179,-7.5374,-7.5998,-7.6699,-7.6777,-7.6809,-7.7024,-7.7033,-7.7394,-7.8233,-7.9062,-7.9656,-8.0384,-8.1204,-8.1844,-8.1591,-8.2209,-8.2248,-8.2176,-8.2365,-8.2482,-8.2332,-8.2293,-8.2305,-8.2349,-8.2554,-8.2917,-8.3706,-8.4531,-8.4844,-8.4414,-8.4961,-8.457,-8.3281,-8.3086,-8.2969,-8.2558,-8.2891,-8.3074,-8.3341,-8.3451,-8.3826,-8.449,-8.4551,-8.4581,-8.4746,-8.5574,-8.6315,-8.6804,-8.7146,-8.7341,-8.7281,-8.7183,-8.7156,-8.7195,-8.7181,-8.7128,-8.7156,-8.7144,-8.7091,-8.7234,-8.7598,-8.818,-8.8234,-8.9379,-9.0391,-9.0742,-9.1014,-9.1253,-9.0652,-9.0241,-8.948,-8.7945,-8.8234,-8.8834,-8.9791,-9.0591,-9.1256,-9.188,-9.2073,-9.2131,-9.2066,-9.1983,-9.196,-9.1897,-9.1873,-9.1936,-9.1999,-9.2658,-9.3341,-9.3503,-9.4302,-9.5157,-9.5567,-9.5878,-9.6266,-9.6888,-9.7315,-9.7781,-9.852,-9.9258,-10.019,-10.12,-10.1744,-10.2249,-10.2288,-10.2288,-10.2288,-7.2471,-7.1835,-7.225,-7.2702,-7.3219,-7.4099,-7.4899,-7.5718,-7.6153,-7.661,-7.6921,-7.6999,-7.7272,-7.7518,-7.765,-7.8312,-7.9466,-7.9984,-8.0474,-8.109,-8.1724,-8.2023,-8.174,-8.2507,-8.2812,-8.3038,-8.3272,-8.3014,-8.2371,-8.2293,-8.2332,-8.2456,-8.2701,-8.3187,-8.3706,-8.445,-8.4608,-8.4492,-8.4648,-8.4414,-8.3125,-8.3476,-8.3281,-8.3268,-8.3755,-8.4206,-8.4154,-8.4693,-8.4746,-8.4766,-8.4766,-8.5019,-8.5398,-8.5799,-8.6239,-8.6657,-8.7086,-8.7309,-8.7259,-8.717,-8.7156,-8.7142,-8.7128,-8.7142,-8.7142,-8.7156,-8.7156,-8.7323,-8.7907,-8.8422,-8.8412,-9.0008,-9.0825,-9.1114,-9.1681,-9.1723,-9.1217,-9.1004,-8.9935,-8.8652,-8.9039,-8.9601,-9.0167,-9.0849,-9.1335,-9.1743,-9.2053,-9.2088,-9.2066,-9.2005,-9.1983,-9.1983,-9.1983,-9.1983,-9.2083,-9.261,-9.3193,-9.3331,-9.378,-9.4635,-9.5295,-9.5684,-9.6305,-9.7005,-9.7354,-9.751,-9.8131,-9.8908,-9.9802,-10.0617,-10.1122,-10.1589,-10.2094,-10.2288,-10.221,-7.2351,-7.2273,-7.3004,-7.3352,-7.3547,-7.4806,-7.5463,-7.5806,-7.6348,-7.6741,-7.6975,-7.717,-7.7586,-7.8065,-7.8532,-7.9311,-8.0766,-8.0779,-8.1169,-8.1839,-8.2045,-8.2114,-8.2413,-8.2999,-8.344,-8.3459,-8.4191,-8.4091,-8.3178,-8.2755,-8.256,-8.2645,-8.323,-8.3604,-8.3977,-8.4567,-8.4842,-8.4958,-8.4765,-8.4336,-8.414,-8.3945,-8.3866,-8.3896,-8.5155,-8.5434,-8.5161,-8.5535,-8.5702,-8.5526,-8.5437,-8.5621,-8.6131,-8.626,-8.6245,-8.6345,-8.693,-8.7169,-8.7222,-8.7181,-8.7167,-8.7152,-8.7089,-8.7128,-8.7128,-8.7137,-8.7137,-8.7261,-8.8078,-8.8684,-8.8961,-9.0262,-9.1097,-9.1408,-9.1801,-9.1957,-9.151,-9.1219,-9.1043,-9.0324,-9.0187,-9.0265,-9.0713,-9.081,-9.1218,-9.1801,-9.211,-9.211,-9.2088,-9.2088,-9.2049,-9.2088,-9.2088,-9.2088,-9.2205,-9.2477,-9.2865,-9.312,-9.3625,-9.4363,-9.5023,-9.5567,-9.6305,-9.7005,-9.7199,-9.7432,-9.8015,-9.8481,-9.9141,-9.9802,-10.0423,-10.0967,-10.1534,-10.1906,-10.1945,-7.4584,-7.3877,-7.3994,-7.4102,-7.4184,-7.4481,-7.4963,-7.5635,-7.5859,-7.6208,-7.6947,-7.7584,-7.7934,-7.8348,-7.9141,-7.9934,-8.061,-8.0987,-8.1364,-8.2023,-8.2112,-8.2123,-8.2318,-8.3077,-8.3576,-8.3894,-8.4561,-8.4668,-8.4341,-8.3795,-8.3373,-8.3347,-8.3074,-8.3164,-8.4433,-8.4685,-8.5193,-8.5885,-8.6445,-8.6362,-8.5703,-8.5039,-8.4804,-8.4799,-8.5077,-8.5496,-8.5863,-8.6141,-8.6217,-8.6841,-8.6845,-8.6949,-8.7053,-8.7053,-8.7066,-8.7092,-8.7156,-8.722,-8.7195,-8.7167,-8.7137,-8.7176,-8.716,-8.7072,-8.7055,-8.7076,-8.7058,-8.7098,-8.8342,-8.9178,-8.9489,-9.0946,-9.1743,-9.1976,-9.2054,-9.2152,-9.1918,-9.1626,-9.1451,-9.149,-9.1199,-9.0966,-9.1063,-9.1043,-9.1061,-9.1643,-9.211,-9.211,-9.211,-9.211,-9.211,-9.211,-9.211,-9.211,-9.2304,-9.2537,-9.2692,-9.2925,-9.3625,-9.4246,-9.4868,-9.5567,-9.6266,-9.6849,-9.7043,-9.7199,-9.7548,-9.7976,-9.8481,-9.9025,-9.9607,-10.0291,-10.1034,-10.1328,-10.1617,-7.4377,-7.2796,-7.379,-7.4211,-7.4359,-7.5316,-7.5969,-7.626,-7.6324,-7.6552,-7.6926,-7.7244,-7.792,-7.8917,-8.0201,-8.1096,-8.1399,-8.1428,-8.165,-8.1987,-8.2077,-8.2128,-8.2452,-8.3449,-8.4167,-8.4384,-8.5426,-8.6356,-8.5877,-8.4966,-8.4239,-8.4167,-8.39,-8.4028,-8.4858,-8.484,-8.5,-8.5348,-8.5647,-8.5768,-8.5582,-8.5581,-8.5617,-8.5664,-8.6002,-8.6393,-8.6609,-8.6785,-8.6857,-8.7247,-8.7234,-8.7234,-8.7222,-8.7222,-8.7234,-8.717,-8.7195,-8.7195,-8.7209,-8.7181,-8.7167,-8.7191,-8.7176,-8.7144,-8.7058,-8.7021,-8.7001,-8.7076,-8.8089,-8.8983,-8.9663,-9.0789,-9.1567,-9.1995,-9.219,-9.219,-9.219,-9.2171,-9.2015,-9.2132,-9.2113,-9.1763,-9.151,-9.1529,-9.1529,-9.1781,-9.2131,-9.2151,-9.2131,-9.211,-9.211,-9.211,-9.211,-9.211,-9.2343,-9.2615,-9.2653,-9.2964,-9.3897,-9.4479,-9.4907,-9.5528,-9.6344,-9.6849,-9.7082,-9.7199,-9.7238,-9.7471,-9.7937,-9.8364,-9.8792,-9.9552,-10.0335,-10.1051,-10.144,-7.3936,-7.238,-7.4084,-7.4839,-7.4933,-7.6298,-7.6799,-7.6864,-7.6809,-7.6838,-7.692,-7.7166,-7.8163,-7.9618,-8.087,-8.1509,-8.1952,-8.2022,-8.1998,-8.2012,-8.2026,-8.2091,-8.2506,-8.357,-8.4267,-8.4464,-8.5859,-8.66,-8.655,-8.6066,-8.5456,-8.5143,-8.4714,-8.4932,-8.5068,-8.5233,-8.5428,-8.5786,-8.5852,-8.5834,-8.5813,-8.6259,-8.642,-8.665,-8.701,-8.7331,-8.7298,-8.7247,-8.7234,-8.7222,-8.7247,-8.7247,-8.7222,-8.7234,-8.7234,-8.7222,-8.7209,-8.7209,-8.7209,-8.7195,-8.7195,-8.7181,-8.7206,-8.7176,-8.715,-8.7037,-8.7016,-8.7089,-8.7872,-8.8766,-8.9618,-9.0513,-9.1387,-9.1932,-9.2243,-9.2243,-9.2226,-9.2169,-9.2169,-9.219,-9.219,-9.2208,-9.1995,-9.2074,-9.2093,-9.2073,-9.2171,-9.2171,-9.2151,-9.2131,-9.211,-9.211,-9.211,-9.211,-9.2265,-9.2498,-9.2576,-9.3042,-9.3974,-9.4907,-9.5489,-9.5956,-9.6577,-9.6966,-9.716,-9.7199,-9.7199,-9.7276,-9.7393,-9.7743,-9.817,-9.8853,-9.9591,-10.0485,-10.1362,-7.4014,-7.3995,-7.5737,-7.6397,-7.6399,-7.663,-7.6726,-7.6743,-7.6747,-7.6788,-7.6963,-7.7679,-7.9026,-8.0264,-8.0863,-8.1447,-8.1991,-8.1991,-8.2007,-8.2007,-8.2007,-8.2065,-8.2455,-8.3048,-8.3674,-8.3951,-8.5512,-8.6246,-8.641,-8.6886,-8.6431,-8.6041,-8.5534,-8.5556,-8.5774,-8.6015,-8.6315,-8.6672,-8.6861,-8.6945,-8.6967,-8.7147,-8.7205,-8.7243,-8.7309,-8.73,-8.73,-8.7378,-8.7495,-8.7481,-8.7481,-8.7442,-8.7456,-8.7481,-8.7481,-8.7261,-8.7209,-8.7248,-8.7365,-8.7287,-8.7209,-8.7195,-8.7181,-8.7167,-8.7152,-8.7105,-8.7105,-8.716,-8.7767,-8.8646,-8.9557,-9.043,-9.1147,-9.1965,-9.2276,-9.2276,-9.226,-9.2187,-9.2187,-9.2187,-9.2187,-9.2243,-9.226,-9.2226,-9.219,-9.2171,-9.2171,-9.219,-9.2191,-9.2171,-9.2151,-9.2131,-9.211,-9.211,-9.211,-9.2265,-9.2459,-9.3159,-9.4052,-9.5256,-9.6266,-9.6694,-9.6888,-9.7005,-9.7199,-9.7199,-9.7199,-9.7238,-9.7276,-9.7238,-9.7587,-9.8348,-9.9497,-10.0701,-10.1561,-7.4848,-7.4926,-7.6187,-7.64,-7.5954,-7.6475,-7.6687,-7.6687,-7.6799,-7.7127,-7.7615,-7.9009,-8.003,-8.0698,-8.1321,-8.1633,-8.1998,-8.2039,-8.2026,-8.2026,-8.2091,-8.2116,-8.2424,-8.2874,-8.3506,-8.3848,-8.5143,-8.608,-8.6222,-8.6978,-8.7173,-8.6783,-8.6392,-8.6627,-8.6836,-8.6826,-8.7074,-8.7219,-8.7407,-8.7414,-8.7414,-8.7414,-8.7386,-8.7419,-8.7994,-8.805,-8.8089,-8.8053,-8.8313,-8.8508,-8.826,-8.8131,-8.8001,-8.8026,-8.778,-8.7404,-8.7326,-8.7481,-8.7754,-8.7559,-8.7209,-8.7209,-8.7195,-8.7273,-8.7404,-8.723,-8.7191,-8.7308,-8.7542,-8.8383,-8.966,-9.0142,-9.0648,-9.1817,-9.2347,-9.2293,-9.2276,-9.2204,-9.2204,-9.2243,-9.226,-9.2276,-9.2331,-9.2347,-9.226,-9.2226,-9.2226,-9.2187,-9.219,-9.221,-9.2171,-9.2151,-9.2131,-9.211,-9.211,-9.2226,-9.242,-9.3314,-9.4229,-9.5317,-9.6444,-9.6927,-9.7082,-9.716,-9.7221,-9.7221,-9.7221,-9.7199,-9.7199,-9.7199,-9.7471,-9.7976,-9.9302,-10.0801,-10.16,-7.5488,-7.574,-7.6126,-7.6128,-7.5876,-7.6436,-7.6743,-7.6721,-7.6793,-7.7346,-7.8178,-7.9423,-8.0309,-8.0805,-8.1311,-8.1764,-8.1934,-8.2039,-8.2039,-8.2052,-8.2065,-8.2101,-8.2346,-8.265,-8.3007,-8.3575,-8.4753,-8.569,-8.5651,-8.6828,-8.7219,-8.7329,-8.7407,-8.7369,-8.7343,-8.7392,-8.7407,-8.7407,-8.7407,-8.7407,-8.7407,-8.7401,-8.7393,-8.7429,-8.7848,-8.7994,-8.81,-8.8221,-8.8664,-8.8937,-8.9028,-8.895,-8.8833,-8.8677,-8.8365,-8.804,-8.7793,-8.791,-8.8183,-8.83,-8.7949,-8.8222,-8.8144,-8.8105,-8.7935,-8.796,-8.8233,-8.813,-8.796,-8.8272,-8.9858,-9.0195,-9.0726,-9.1841,-9.2199,-9.226,-9.226,-9.2243,-9.2243,-9.2243,-9.2276,-9.2293,-9.2347,-9.2362,-9.2362,-9.2293,-9.2293,-9.2276,-9.2243,-9.2208,-9.221,-9.2171,-9.2151,-9.2131,-9.211,-9.2579,-9.3065,-9.3881,-9.4698,-9.5379,-9.6253,-9.6815,-9.7204,-9.7284,-9.7323,-9.7264,-9.7264,-9.7284,-9.7242,-9.7199,-9.7626,-9.8153,-9.9225,-10.0667,-10.1484,-7.5818,-7.6418,-7.572,-7.5915,-7.6555,-7.6669,-7.6738,-7.6825,-7.6871,-7.7392,-7.8192,-7.8504,-7.9467,-8.0598,-8.1091,-8.1389,-8.1934,-8.2036,-8.209,-8.2208,-8.2299,-8.2194,-8.2307,-8.2582,-8.2921,-8.2872,-8.3933,-8.487,-8.5104,-8.6455,-8.7157,-8.7426,-8.7465,-8.7475,-8.7414,-8.7405,-8.7407,-8.7407,-8.7407,-8.7407,-8.7557,-8.7588,-8.762,-8.7885,-8.814,-8.8355,-8.8511,-8.8869,-8.9274,-8.9495,-8.9742,-8.9781,-8.9755,-8.9222,-8.9105,-8.9391,-8.8806,-8.8573,-8.8612,-8.9313,-8.9547,-8.9274,-8.8962,-8.9235,-8.9508,-8.9586,-8.9377,-8.9079,-8.8871,-8.9299,-9.0,-9.0454,-9.1101,-9.1708,-9.2104,-9.2226,-9.2226,-9.2208,-9.2208,-9.2226,-9.226,-9.2293,-9.2347,-9.2362,-9.2377,-9.2377,-9.2391,-9.2362,-9.2293,-9.2282,-9.2286,-9.256,-9.2579,-9.2793,-9.2929,-9.324,-9.3764,-9.4523,-9.5127,-9.5729,-9.6352,-9.6974,-9.7285,-9.7343,-9.7382,-9.7343,-9.7363,-9.7401,-9.746,-9.7575,-9.8059,-9.8642,-9.9596,-10.0473,-10.1388,-7.5949,-7.6687,-7.6415,-7.6454,-7.6743,-7.6726,-7.6704,-7.6816,-7.7361,-7.8143,-7.8883,-7.9013,-8.0014,-8.1078,-8.1156,-8.1299,-8.1922,-8.2104,-8.2206,-8.2883,-8.2908,-8.3426,-8.3498,-8.3323,-8.335,-8.3756,-8.4317,-8.487,-8.5729,-8.6537,-8.6945,-8.7258,-8.7461,-8.7456,-8.7422,-8.7405,-8.7414,-8.7426,-8.7459,-8.7642,-8.8149,-8.8259,-8.8455,-8.8923,-8.929,-8.9398,-8.9437,-8.9769,-9.0128,-9.0468,-9.0741,-9.0599,-9.0599,-9.0145,-9.0028,-8.9975,-8.943,-8.9703,-9.0209,-9.0833,-9.056,-8.9897,-8.9664,-8.9936,-8.982,-8.9781,-8.9781,-8.982,-8.9625,-9.0092,-9.0663,-9.0819,-9.1311,-9.1942,-9.226,-9.2226,-9.219,-9.2152,-9.2132,-9.2191,-9.2228,-9.226,-9.2293,-9.2362,-9.2377,-9.243,-9.243,-9.2377,-9.2293,-9.2354,-9.2416,-9.2965,-9.324,-9.3512,-9.3803,-9.4055,-9.4306,-9.4872,-9.5398,-9.5904,-9.6545,-9.7147,-9.7303,-9.7381,-9.7401,-9.7401,-9.742,-9.7497,-9.779,-9.8024,-9.8354,-9.8938,-9.9891,-10.0689,-10.1429,-7.5572,-7.631,-7.6038,-7.6077,-7.6333,-7.6588,-7.6726,-7.6838,-7.7438,-7.8182,-7.8883,-7.9312,-8.0221,-8.1156,-8.1481,-8.1442,-8.2065,-8.2128,-8.2557,-8.3312,-8.3399,-8.3878,-8.4161,-8.4269,-8.4247,-8.4615,-8.4817,-8.5182,-8.6002,-8.641,-8.6901,-8.7304,-8.7422,-8.7461,-8.7422,-8.7453,-8.7631,-8.7782,-8.8039,-8.8149,-8.8501,-8.8696,-8.8891,-8.9274,-8.9587,-8.9735,-9.0204,-9.0656,-9.1018,-9.1398,-9.1426,-9.1262,-9.1353,-9.0963,-9.0807,-9.056,-9.0443,-9.0638,-9.1066,-9.1339,-9.0794,-8.9897,-9.0248,-9.0638,-9.0716,-9.0911,-9.0833,-9.0755,-9.0404,-9.0794,-9.13,-9.1417,-9.1466,-9.2059,-9.226,-9.2208,-9.2171,-9.2132,-9.2151,-9.2191,-9.2228,-9.2243,-9.2293,-9.2362,-9.243,-9.243,-9.243,-9.2362,-9.2308,-9.237,-9.2565,-9.3116,-9.3527,-9.3761,-9.4228,-9.4846,-9.508,-9.5257,-9.5802,-9.6425,-9.6715,-9.7316,-9.7377,-9.7416,-9.7455,-9.7472,-9.7455,-9.7572,-9.7727,-9.8039,-9.8389,-9.915,-10.0123,-10.0845,-10.1506,-7.4744,-7.5327,-7.4628,-7.49,-7.5638,-7.6415,-7.6743,-7.6816,-7.6937,-7.7532,-7.8256,-7.9221,-8.0156,-8.0935,-8.1663,-8.1948,-8.2065,-8.2116,-8.265,-8.3273,-8.3582,-8.4167,-8.4657,-8.4854,-8.5067,-8.527,-8.5364,-8.5534,-8.6204,-8.6789,-8.7245,-8.7381,-8.7422,-8.7422,-8.7461,-8.7539,-8.7773,-8.8026,-8.8167,-8.8429,-8.8891,-8.893,-8.9281,-8.9516,-8.9477,-8.9469,-8.9782,-9.0282,-9.0421,-9.0725,-9.094,-9.1637,-9.1613,-9.0794,-9.1288,-9.1587,-9.1456,-9.1339,-9.13,-9.1495,-9.1417,-9.0989,-9.1651,-9.2197,-9.2197,-9.1924,-9.1807,-9.169,-9.1456,-9.1768,-9.208,-9.1778,-9.1529,-9.1926,-9.2187,-9.2208,-9.221,-9.2191,-9.2191,-9.2228,-9.2243,-9.2293,-9.2347,-9.2377,-9.243,-9.243,-9.243,-9.2391,-9.2362,-9.2362,-9.262,-9.3204,-9.3578,-9.3873,-9.4512,-9.5619,-9.5969,-9.6226,-9.6647,-9.7154,-9.7364,-9.7364,-9.7426,-9.7465,-9.7481,-9.7481,-9.7465,-9.7504,-9.7598,-9.7948,-9.8478,-9.9218,-10.0159,-10.086,-10.1522,-7.4722,-7.5533,-7.5849,-7.616,-7.6427,-7.6626,-7.6726,-7.6821,-7.7386,-7.8159,-7.9026,-7.9298,-8.0162,-8.1583,-8.1325,-8.165,-8.1909,-8.2221,-8.2689,-8.3247,-8.387,-8.4767,-8.5337,-8.5614,-8.5985,-8.6042,-8.5981,-8.6002,-8.6822,-8.7407,-8.7407,-8.7392,-8.7416,-8.7422,-8.75,-8.7461,-8.7734,-8.7924,-8.8069,-8.8558,-8.9249,-8.9437,-8.9984,-9.0413,-9.0531,-9.057,-9.096,-9.1226,-9.1453,-9.1687,-9.1904,-9.2344,-9.2284,-9.1949,-9.2159,-9.2197,-9.2119,-9.2041,-9.2041,-9.2041,-9.1963,-9.1924,-9.2274,-9.2313,-9.2391,-9.243,-9.243,-9.2235,-9.2119,-9.2235,-9.2313,-9.2104,-9.1919,-9.2059,-9.226,-9.2243,-9.2226,-9.2208,-9.2208,-9.2226,-9.2276,-9.2293,-9.2362,-9.2377,-9.243,-9.243,-9.243,-9.243,-9.2391,-9.2377,-9.2752,-9.3336,-9.3998,-9.4372,-9.5635,-9.6819,-9.6974,-9.7208,-9.7418,-9.7496,-9.7496,-9.7457,-9.7496,-9.7496,-9.7496,-9.7496,-9.7496,-9.7535,-9.7574,-9.8197,-9.8728,-9.9429,-10.013,-10.0715,-10.1478,-7.4489,-7.5089,-7.5888,-7.6432,-7.6721,-7.6743,-7.6842,-7.7231,-7.7425,-7.7831,-7.8392,-7.9074,-8.0003,-8.0824,-8.118,-8.1597,-8.2026,-8.2143,-8.2572,-8.339,-8.3974,-8.4871,-8.5558,-8.6061,-8.6473,-8.657,-8.6597,-8.6542,-8.7244,-8.7401,-8.7407,-8.7414,-8.7408,-8.7653,-8.7773,-8.7773,-8.7969,-8.8164,-8.8395,-8.8694,-8.9183,-8.9828,-9.0687,-9.135,-9.1624,-9.178,-9.2053,-9.2092,-9.2053,-9.2053,-9.1999,-9.2217,-9.2334,-9.2417,-9.238,-9.2391,-9.2352,-9.2313,-9.2313,-9.2352,-9.2391,-9.243,-9.243,-9.243,-9.243,-9.243,-9.243,-9.2352,-9.2391,-9.2391,-9.2391,-9.2391,-9.2377,-9.2362,-9.2308,-9.2293,-9.2293,-9.2276,-9.2276,-9.2276,-9.2293,-9.2347,-9.2362,-9.2377,-9.243,-9.243,-9.243,-9.243,-9.243,-9.2377,-9.2923,-9.3585,-9.4418,-9.5119,-9.6444,-9.7379,-9.7418,-9.7379,-9.7457,-9.7496,-9.7496,-9.7496,-9.7496,-9.7496,-9.7496,-9.7496,-9.7511,-9.7535,-9.7652,-9.8197,-9.8587,-9.9094,-9.96,-10.0146,-10.1065,-7.4123,-7.4317,-7.5211,-7.6104,-7.6648,-7.6687,-7.7114,-7.7775,-7.7075,-7.6803,-7.727,-7.865,-7.9541,-8.0193,-8.098,-8.1661,-8.1961,-8.2091,-8.2364,-8.3299,-8.3507,-8.4364,-8.5402,-8.6022,-8.654,-8.7058,-8.7243,-8.7034,-8.7269,-8.7393,-8.7407,-8.7407,-8.7414,-8.7631,-8.8008,-8.7695,-8.7929,-8.8554,-8.8633,-8.8784,-8.9037,-8.9522,-8.9984,-9.0257,-9.0452,-9.0648,-9.1272,-9.1467,-9.1389,-9.1428,-9.1538,-9.1913,-9.2217,-9.2444,-9.2405,-9.243,-9.243,-9.243,-9.2508,-9.2586,-9.2547,-9.2508,-9.2469,-9.2508,-9.2508,-9.243,-9.243,-9.243,-9.243,-9.243,-9.243,-9.243,-9.2377,-9.2533,-9.2596,-9.2479,-9.2347,-9.2347,-9.2308,-9.2347,-9.2362,-9.2377,-9.2377,-9.243,-9.243,-9.243,-9.243,-9.243,-9.243,-9.243,-9.3054,-9.3833,-9.4496,-9.5353,-9.6444,-9.7223,-9.7457,-9.7496,-9.7496,-9.7496,-9.7496,-9.7496,-9.7496,-9.7511,-9.7511,-9.7511,-9.7511,-9.7511,-9.755,-9.7745,-9.8173,-9.8602,-9.9055,-9.9537,-10.0263,-7.3618,-7.4356,-7.5797,-7.6516,-7.6671,-7.6651,-7.6767,-7.7021,-7.6786,-7.7114,-7.7813,-7.8802,-7.9714,-8.0331,-8.0815,-8.1408,-8.192,-8.2026,-8.2168,-8.2649,-8.3026,-8.3974,-8.5039,-8.5777,-8.6451,-8.7036,-8.7331,-8.736,-8.7377,-8.7393,-8.7407,-8.7446,-8.7407,-8.7665,-8.8039,-8.7656,-8.7851,-8.8711,-8.875,-8.9062,-8.9565,-8.9344,-8.9437,-9.0335,-9.096,-9.1272,-9.1819,-9.2131,-9.217,-9.2209,-9.2209,-9.2342,-9.2451,-9.2417,-9.2419,-9.2391,-9.243,-9.243,-9.2547,-9.2742,-9.282,-9.2781,-9.2742,-9.2742,-9.2664,-9.2508,-9.243,-9.243,-9.243,-9.243,-9.243,-9.243,-9.243,-9.265,-9.2923,-9.2728,-9.2494,-9.2494,-9.2455,-9.2455,-9.2469,-9.243,-9.243,-9.243,-9.243,-9.243,-9.243,-9.243,-9.243,-9.2508,-9.3249,-9.395,-9.4535,-9.5353,-9.6444,-9.7184,-9.7418,-9.7496,-9.7496,-9.7496,-9.7496,-9.7511,-9.7525,-9.7564,-9.7564,-9.7539,-9.7539,-9.7591,-9.7617,-9.7656,-9.7759,-9.8173,-9.8304,-9.8694,-9.9381,-7.3717,-7.4395,-7.6011,-7.6924,-7.7118,-7.6808,-7.7079,-7.7681,-7.7407,-7.7718,-7.8494,-7.9095,-7.9774,-8.0647,-8.0975,-8.1281,-8.1913,-8.2007,-8.2075,-8.2284,-8.296,-8.3845,-8.4728,-8.5609,-8.6428,-8.7052,-8.727,-8.7331,-8.7408,-8.7432,-8.7486,-8.772,-8.772,-8.7732,-8.8104,-8.7969,-8.789,-8.8672,-8.875,-8.9219,-8.9922,-8.968,-8.931,-9.0247,-9.0895,-9.1396,-9.1897,-9.2248,-9.2482,-9.2482,-9.2436,-9.2451,-9.249,-9.2417,-9.2419,-9.2405,-9.243,-9.243,-9.2547,-9.2781,-9.3015,-9.2898,-9.2742,-9.2625,-9.2547,-9.243,-9.243,-9.243,-9.243,-9.243,-9.243,-9.243,-9.243,-9.2547,-9.3132,-9.3405,-9.3366,-9.3405,-9.3288,-9.3132,-9.2898,-9.243,-9.243,-9.243,-9.243,-9.243,-9.243,-9.2469,-9.2469,-9.243,-9.3249,-9.3911,-9.4379,-9.5236,-9.6249,-9.6989,-9.7457,-9.7496,-9.7511,-9.7539,-9.7552,-9.7552,-9.7552,-9.7565,-9.7604,-9.7604,-9.7604,-9.7616,-9.7616,-9.7616,-9.7669,-9.7759,-9.785,-9.8033,-9.8695,-7.407,-7.4554,-7.6031,-7.7138,-7.7758,-7.7136,-7.7679,-7.8845,-7.8379,-7.8535,-7.9311,-7.9465,-7.995,-8.0668,-8.1307,-8.1636,-8.1887,-8.1959,-8.1968,-8.2411,-8.2985,-8.4012,-8.491,-8.5675,-8.6455,-8.6962,-8.7247,-8.732,-8.736,-8.7425,-8.7681,-8.8227,-8.8344,-8.8266,-8.8948,-8.8867,-8.8476,-8.9297,-8.957,-8.9531,-8.9765,-8.9921,-8.9606,-8.9752,-9.0164,-9.1045,-9.1546,-9.1897,-9.2326,-9.2522,-9.2507,-9.249,-9.251,-9.244,-9.2405,-9.2419,-9.2405,-9.2405,-9.2469,-9.2717,-9.2742,-9.2664,-9.2547,-9.2586,-9.2625,-9.2508,-9.2508,-9.2625,-9.2625,-9.2469,-9.2469,-9.2469,-9.2469,-9.282,-9.3521,-9.4223,-9.434,-9.4301,-9.4028,-9.3794,-9.3327,-9.2742,-9.2625,-9.2625,-9.2586,-9.2586,-9.2547,-9.2547,-9.2586,-9.2508,-9.282,-9.3443,-9.395,-9.4885,-9.6054,-9.6848,-9.7433,-9.7525,-9.7539,-9.7565,-9.7589,-9.7577,-9.7589,-9.76,-9.76,-9.76,-9.76,-9.76,-9.76,-9.76,-9.7628,-9.7694,-9.7706,-9.7884,-9.8207,-7.3801,-7.5159,-7.6144,-7.7035,-7.7694,-7.7542,-7.8124,-7.8912,-7.8905,-7.9338,-8.0086,-8.0262,-8.0455,-8.061,-8.0688,-8.1134,-8.189,-8.1926,-8.2448,-8.3009,-8.3268,-8.4309,-8.5297,-8.5884,-8.6468,-8.691,-8.7234,-8.7309,-8.7341,-8.7377,-8.7479,-8.7776,-8.8494,-8.8618,-8.8852,-8.8919,-8.9439,-8.9996,-9.0426,-9.0497,-8.9787,-8.9875,-8.9961,-8.9881,-8.9716,-9.0833,-9.1559,-9.1702,-9.2014,-9.2287,-9.2514,-9.2507,-9.2481,-9.249,-9.2456,-9.2393,-9.2419,-9.2405,-9.2483,-9.2808,-9.2925,-9.3054,-9.3093,-9.3405,-9.3249,-9.2898,-9.3015,-9.3327,-9.321,-9.2742,-9.2664,-9.2703,-9.2781,-9.356,-9.4301,-9.508,-9.5548,-9.5119,-9.4729,-9.4418,-9.4028,-9.3677,-9.3482,-9.3443,-9.3443,-9.3443,-9.3443,-9.3405,-9.3171,-9.2898,-9.2586,-9.3015,-9.356,-9.4729,-9.5937,-9.6784,-9.7383,-9.7474,-9.7565,-9.76,-9.7611,-9.76,-9.7611,-9.7632,-9.7632,-9.7622,-9.7622,-9.7632,-9.7671,-9.7671,-9.7661,-9.77,-9.7656,-9.7776,-9.8104]}]]